<?xml version='1.0' encoding='UTF-8'?><gpx version="1.1" creator="JPX - https://github.com/jenetics/jpx" xmlns="http://www.topografix.com/GPX/1/1"><trk><trkseg><trkpt lat="45.5680982557168" lon="11.076084589059631"><ele>727.0</ele><time>2026-04-18T13:16:51.5Z</time></trkpt><trkpt lat="45.56814014763196" lon="11.075998426990326"><ele>727.0</ele><time>2026-04-18T13:16:58.5Z</time></trkpt><trkpt lat="45.568102147957894" lon="11.07609624501445"><ele>727.0</ele><time>2026-04-18T13:17:25Z</time></trkpt><trkpt lat="45.56803313796366" lon="11.07611049711858"><ele>727.0</ele><time>2026-04-18T13:17:28Z</time></trkpt><trkpt lat="45.5679657725722" lon="11.076088191989404"><ele>727.0</ele><time>2026-04-18T13:17:30Z</time></trkpt><trkpt lat="45.567900326813735" lon="11.076070755401053"><ele>727.0</ele><time>2026-04-18T13:17:32Z</time></trkpt><trkpt lat="45.567847188810255" lon="11.076121358925787"><ele>727.0</ele><time>2026-04-18T13:17:35Z</time></trkpt><trkpt lat="45.56786717237211" lon="11.076220120008466"><ele>727.0</ele><time>2026-04-18T13:17:40Z</time></trkpt><trkpt lat="45.56793784605203" lon="11.076289371342074"><ele>727.0</ele><time>2026-04-18T13:17:43Z</time></trkpt><trkpt lat="45.56792692770154" lon="11.076383743322621"><ele>727.0</ele><time>2026-04-18T13:18:12Z</time></trkpt><trkpt lat="45.567864141145016" lon="11.076315372236328"><ele>727.0</ele><time>2026-04-18T13:18:16Z</time></trkpt><trkpt lat="45.56781198277567" lon="11.076188903716544"><ele>727.0</ele><time>2026-04-18T13:18:18Z</time></trkpt><trkpt lat="45.56779220885524" lon="11.076095705350406"><ele>727.0</ele><time>2026-04-18T13:18:20Z</time></trkpt><trkpt lat="45.567729721912045" lon="11.07604613466335"><ele>725.5</ele><time>2026-04-18T13:18:35Z</time></trkpt><trkpt lat="45.56763121591995" lon="11.076045393288824"><ele>724.0</ele><time>2026-04-18T13:18:37Z</time></trkpt><trkpt lat="45.567513406790106" lon="11.076037805409845"><ele>722.5</ele><time>2026-04-18T13:18:39Z</time></trkpt><trkpt lat="45.56744963865281" lon="11.076050833781183"><ele>721.0</ele><time>2026-04-18T13:18:40Z</time></trkpt><trkpt lat="45.56739239467306" lon="11.076109162266903"><ele>719.5</ele><time>2026-04-18T13:18:41Z</time></trkpt><trkpt lat="45.56732087521695" lon="11.076150297230756"><ele>718.0</ele><time>2026-04-18T13:18:42Z</time></trkpt><trkpt lat="45.56728262657361" lon="11.076258052377192"><ele>718.0</ele><time>2026-04-18T13:18:43Z</time></trkpt><trkpt lat="45.56726880103016" lon="11.07637924258398"><ele>718.0</ele><time>2026-04-18T13:18:44Z</time></trkpt><trkpt lat="45.567242185030395" lon="11.076487547487783"><ele>718.0</ele><time>2026-04-18T13:18:45Z</time></trkpt><trkpt lat="45.567259599833434" lon="11.076616706182671"><ele>718.0</ele><time>2026-04-18T13:18:46Z</time></trkpt><trkpt lat="45.56727309756563" lon="11.076733282852505"><ele>718.0</ele><time>2026-04-18T13:18:47Z</time></trkpt><trkpt lat="45.5672965577014" lon="11.076840604244497"><ele>718.0</ele><time>2026-04-18T13:18:48Z</time></trkpt><trkpt lat="45.56730652486694" lon="11.07695929919975"><ele>718.8</ele><time>2026-04-18T13:18:49Z</time></trkpt><trkpt lat="45.567330870170764" lon="11.077083009079555"><ele>719.5999999999999</ele><time>2026-04-18T13:18:50Z</time></trkpt><trkpt lat="45.56735788743155" lon="11.077212142012536"><ele>720.4000000000001</ele><time>2026-04-18T13:18:51Z</time></trkpt><trkpt lat="45.567384391883245" lon="11.07734624030261"><ele>721.2</ele><time>2026-04-18T13:18:52Z</time></trkpt><trkpt lat="45.567406875212676" lon="11.077474727831133"><ele>722.0</ele><time>2026-04-18T13:18:53Z</time></trkpt><trkpt lat="45.56742297664596" lon="11.077596404112786"><ele>720.4000000000001</ele><time>2026-04-18T13:18:54Z</time></trkpt><trkpt lat="45.5674181258626" lon="11.077711965536533"><ele>718.8000000000001</ele><time>2026-04-18T13:18:55Z</time></trkpt><trkpt lat="45.56739805750864" lon="11.07782908806513"><ele>717.2</ele><time>2026-04-18T13:18:56Z</time></trkpt><trkpt lat="45.56733106885436" lon="11.077922473422246"><ele>715.6</ele><time>2026-04-18T13:18:57Z</time></trkpt><trkpt lat="45.5672332911928" lon="11.078014894483873"><ele>714.0</ele><time>2026-04-18T13:18:58Z</time></trkpt><trkpt lat="45.56711894098989" lon="11.078117678732925"><ele>710.75</ele><time>2026-04-18T13:18:59Z</time></trkpt><trkpt lat="45.56700497062948" lon="11.07821469965599"><ele>707.5</ele><time>2026-04-18T13:19:00Z</time></trkpt><trkpt lat="45.56689021697211" lon="11.078307543181655"><ele>704.25</ele><time>2026-04-18T13:19:01Z</time></trkpt><trkpt lat="45.56677230276335" lon="11.078403223814204"><ele>701.0</ele><time>2026-04-18T13:19:02Z</time></trkpt><trkpt lat="45.566666284849646" lon="11.078531731873065"><ele>701.0</ele><time>2026-04-18T13:19:03Z</time></trkpt><trkpt lat="45.56654391817278" lon="11.078587178012112"><ele>701.0</ele><time>2026-04-18T13:19:04Z</time></trkpt><trkpt lat="45.56646032347789" lon="11.078688778673813"><ele>701.0</ele><time>2026-04-18T13:19:05Z</time></trkpt><trkpt lat="45.56637103065065" lon="11.078762000220056"><ele>701.0</ele><time>2026-04-18T13:19:06Z</time></trkpt><trkpt lat="45.56629970018726" lon="11.078876013812241"><ele>701.0</ele><time>2026-04-18T13:19:07Z</time></trkpt><trkpt lat="45.56623482592172" lon="11.078991522381731"><ele>700.8</ele><time>2026-04-18T13:19:08Z</time></trkpt><trkpt lat="45.56618813464651" lon="11.079088886312489"><ele>700.5999999999999</ele><time>2026-04-18T13:19:09Z</time></trkpt><trkpt lat="45.56614405475576" lon="11.0791579707434"><ele>700.4</ele><time>2026-04-18T13:19:10Z</time></trkpt><trkpt lat="45.56606451923075" lon="11.079235749967504"><ele>700.2</ele><time>2026-04-18T13:19:12Z</time></trkpt><trkpt lat="45.565940591073996" lon="11.079173933905691"><ele>700.0</ele><time>2026-04-18T13:19:14Z</time></trkpt><trkpt lat="45.5660152783232" lon="11.079328706165782"><ele>700.0</ele><time>2026-04-18T13:19:15Z</time></trkpt><trkpt lat="45.56582090660398" lon="11.079047022368757"><ele>700.0</ele><time>2026-04-18T13:19:16Z</time></trkpt><trkpt lat="45.56575686402196" lon="11.078949131966542"><ele>700.0</ele><time>2026-04-18T13:19:17Z</time></trkpt><trkpt lat="45.565695795700606" lon="11.07886082155689"><ele>700.0</ele><time>2026-04-18T13:19:18Z</time></trkpt><trkpt lat="45.56563677263175" lon="11.078772202585553"><ele>700.0</ele><time>2026-04-18T13:19:19Z</time></trkpt><trkpt lat="45.56557863283839" lon="11.078688308292056"><ele>700.0</ele><time>2026-04-18T13:19:20Z</time></trkpt><trkpt lat="45.56552666617053" lon="11.07859939797482"><ele>700.0</ele><time>2026-04-18T13:19:21Z</time></trkpt><trkpt lat="45.56547628129097" lon="11.078494089066192"><ele>700.0</ele><time>2026-04-18T13:19:22Z</time></trkpt><trkpt lat="45.56542437467853" lon="11.078392418825889"><ele>700.0</ele><time>2026-04-18T13:19:23Z</time></trkpt><trkpt lat="45.565368920483884" lon="11.078317557255449"><ele>700.8333333333334</ele><time>2026-04-18T13:19:24Z</time></trkpt><trkpt lat="45.565308707295074" lon="11.078270167748125"><ele>701.6666666666667</ele><time>2026-04-18T13:19:25Z</time></trkpt><trkpt lat="45.565238639171284" lon="11.078229849110873"><ele>702.5</ele><time>2026-04-18T13:19:26Z</time></trkpt><trkpt lat="45.56516284913964" lon="11.078192397552003"><ele>703.3333333333334</ele><time>2026-04-18T13:19:27Z</time></trkpt><trkpt lat="45.565084633100184" lon="11.078149724304337"><ele>704.1666666666666</ele><time>2026-04-18T13:19:28Z</time></trkpt><trkpt lat="45.565007034378006" lon="11.078116590110545"><ele>705.0</ele><time>2026-04-18T13:19:29Z</time></trkpt><trkpt lat="45.56492527368629" lon="11.078087462878402"><ele>702.6666666666666</ele><time>2026-04-18T13:19:30Z</time></trkpt><trkpt lat="45.564841344376596" lon="11.078058624453966"><ele>700.3333333333334</ele><time>2026-04-18T13:19:31Z</time></trkpt><trkpt lat="45.56475473447476" lon="11.078024692549572"><ele>698.0</ele><time>2026-04-18T13:19:32Z</time></trkpt><trkpt lat="45.56467367348984" lon="11.077988085509137"><ele>695.6666666666667</ele><time>2026-04-18T13:19:33Z</time></trkpt><trkpt lat="45.5646039653959" lon="11.07794611358149"><ele>693.3333333333334</ele><time>2026-04-18T13:19:34Z</time></trkpt><trkpt lat="45.5645483806394" lon="11.077899633938902"><ele>691.0</ele><time>2026-04-18T13:19:35Z</time></trkpt><trkpt lat="45.56444983507003" lon="11.077808834354318"><ele>690.6666666666667</ele><time>2026-04-18T13:19:37Z</time></trkpt><trkpt lat="45.56439181620859" lon="11.077773878662223"><ele>690.3333333333334</ele><time>2026-04-18T13:19:38Z</time></trkpt><trkpt lat="45.564304852084994" lon="11.077760517338703"><ele>690.0</ele><time>2026-04-18T13:19:39Z</time></trkpt><trkpt lat="45.564222465480896" lon="11.077781153909271"><ele>689.6666666666666</ele><time>2026-04-18T13:19:40Z</time></trkpt><trkpt lat="45.56414794745385" lon="11.077811642325193"><ele>689.3333333333333</ele><time>2026-04-18T13:19:41Z</time></trkpt><trkpt lat="45.564066716308325" lon="11.077817724047511"><ele>689.0</ele><time>2026-04-18T13:22:24Z</time></trkpt><trkpt lat="45.56395883098375" lon="11.07782396498646"><ele>689.0</ele><time>2026-04-18T13:22:26Z</time></trkpt><trkpt lat="45.563858881465485" lon="11.07781461130095"><ele>689.0</ele><time>2026-04-18T13:22:28Z</time></trkpt><trkpt lat="45.563761036086014" lon="11.077817064138573"><ele>689.0</ele><time>2026-04-18T13:22:30Z</time></trkpt><trkpt lat="45.56367657243624" lon="11.077815139180794"><ele>689.0</ele><time>2026-04-18T13:22:32Z</time></trkpt><trkpt lat="45.56359869597421" lon="11.077814063175854"><ele>689.0</ele><time>2026-04-18T13:22:34Z</time></trkpt><trkpt lat="45.56353467259779" lon="11.077817513915004"><ele>689.0</ele><time>2026-04-18T13:22:36Z</time></trkpt><trkpt lat="45.56346279680191" lon="11.077840257241744"><ele>688.8571428571429</ele><time>2026-04-18T13:22:38Z</time></trkpt><trkpt lat="45.56338522389036" lon="11.077883129852244"><ele>688.7142857142858</ele><time>2026-04-18T13:22:40Z</time></trkpt><trkpt lat="45.563310092945734" lon="11.077881537685755"><ele>688.5714285714287</ele><time>2026-04-18T13:22:42Z</time></trkpt><trkpt lat="45.563246000011006" lon="11.077841442691817"><ele>688.4285714285714</ele><time>2026-04-18T13:22:44Z</time></trkpt><trkpt lat="45.563182817276626" lon="11.077807272273239"><ele>688.2857142857143</ele><time>2026-04-18T13:22:47Z</time></trkpt><trkpt lat="45.563122260201844" lon="11.077766269362781"><ele>688.1428571428572</ele><time>2026-04-18T13:22:48Z</time></trkpt><trkpt lat="45.56305904941932" lon="11.077707770866787"><ele>688.0</ele><time>2026-04-18T13:22:50Z</time></trkpt><trkpt lat="45.562992576933844" lon="11.077674552527093"><ele>688.0000000000001</ele><time>2026-04-18T13:22:52Z</time></trkpt><trkpt lat="45.56292006223012" lon="11.077651987524757"><ele>688.0</ele><time>2026-04-18T13:22:54Z</time></trkpt><trkpt lat="45.56284366287509" lon="11.077648152376183"><ele>688.0</ele><time>2026-04-18T13:22:57Z</time></trkpt><trkpt lat="45.5627830048265" lon="11.07767618091976"><ele>688.0</ele><time>2026-04-18T13:22:59Z</time></trkpt><trkpt lat="45.56272561602671" lon="11.077753468480358"><ele>688.0</ele><time>2026-04-18T13:23:01Z</time></trkpt><trkpt lat="45.56267628862403" lon="11.077811887276127"><ele>688.0000000000001</ele><time>2026-04-18T13:23:03Z</time></trkpt><trkpt lat="45.56259591376218" lon="11.077840913999708"><ele>688.0</ele><time>2026-04-18T13:23:05Z</time></trkpt><trkpt lat="45.56250649203643" lon="11.077895331358894"><ele>687.3333333333334</ele><time>2026-04-18T13:23:07Z</time></trkpt><trkpt lat="45.56241875509169" lon="11.07795495467163"><ele>686.6666666666667</ele><time>2026-04-18T13:23:09Z</time></trkpt><trkpt lat="45.562336748249294" lon="11.07803536355677"><ele>686.0</ele><time>2026-04-18T13:23:11Z</time></trkpt><trkpt lat="45.562257795716135" lon="11.078162174367197"><ele>685.3333333333334</ele><time>2026-04-18T13:23:13Z</time></trkpt><trkpt lat="45.56220229101742" lon="11.07821300268061"><ele>684.6666666666666</ele><time>2026-04-18T13:23:14Z</time></trkpt><trkpt lat="45.562149187946204" lon="11.078273079166479"><ele>684.0</ele><time>2026-04-18T13:23:15Z</time></trkpt><trkpt lat="45.56210953075025" lon="11.078347680155082"><ele>684.0</ele><time>2026-04-18T13:23:16Z</time></trkpt><trkpt lat="45.56207373045689" lon="11.078432621954212"><ele>684.0</ele><time>2026-04-18T13:23:17Z</time></trkpt><trkpt lat="45.56203917824544" lon="11.078525757906283"><ele>684.0</ele><time>2026-04-18T13:23:18Z</time></trkpt><trkpt lat="45.56200812417964" lon="11.078619461676697"><ele>684.0</ele><time>2026-04-18T13:23:19Z</time></trkpt><trkpt lat="45.56197957627009" lon="11.078717517348824"><ele>684.0</ele><time>2026-04-18T13:23:20Z</time></trkpt><trkpt lat="45.56194628723413" lon="11.078847401367769"><ele>684.0</ele><time>2026-04-18T13:23:22Z</time></trkpt><trkpt lat="45.56195227548148" lon="11.078967867959742"><ele>681.0</ele><time>2026-04-18T13:23:25Z</time></trkpt><trkpt lat="45.56194550292208" lon="11.079097242131057"><ele>678.0</ele><time>2026-04-18T13:23:27Z</time></trkpt><trkpt lat="45.56194201225528" lon="11.079224592573185"><ele>675.0</ele><time>2026-04-18T13:23:29Z</time></trkpt><trkpt lat="45.561944168280085" lon="11.079337426930476"><ele>672.0</ele><time>2026-04-18T13:23:34Z</time></trkpt><trkpt lat="45.56194447275546" lon="11.079442060444272"><ele>669.0</ele><time>2026-04-18T13:23:37Z</time></trkpt><trkpt lat="45.56188029369436" lon="11.079479170001182"><ele>666.0</ele><time>2026-04-18T13:23:41Z</time></trkpt><trkpt lat="45.56183401997926" lon="11.07955454778193"><ele>666.0</ele><time>2026-04-18T13:23:46Z</time></trkpt><trkpt lat="45.56176205405442" lon="11.079632903628525"><ele>666.0</ele><time>2026-04-18T13:23:49Z</time></trkpt><trkpt lat="45.56167048067515" lon="11.079664825066029"><ele>666.0</ele><time>2026-04-18T13:23:52Z</time></trkpt><trkpt lat="45.56159529587534" lon="11.07966591365971"><ele>666.0</ele><time>2026-04-18T13:23:54Z</time></trkpt><trkpt lat="45.56150305906542" lon="11.079656277219447"><ele>666.0</ele><time>2026-04-18T13:23:57Z</time></trkpt><trkpt lat="45.56142498454449" lon="11.079726187697897"><ele>666.0</ele><time>2026-04-18T13:24:00Z</time></trkpt><trkpt lat="45.56141481400818" lon="11.079876444635465"><ele>666.0</ele><time>2026-04-18T13:24:02Z</time></trkpt><trkpt lat="45.561409337876185" lon="11.080048779192117"><ele>666.0</ele><time>2026-04-18T13:24:04Z</time></trkpt><trkpt lat="45.56139715578426" lon="11.080187485450077"><ele>666.0</ele><time>2026-04-18T13:24:06Z</time></trkpt><trkpt lat="45.56140679661413" lon="11.080026726947795"><ele>666.0</ele><time>2026-04-18T13:24:11Z</time></trkpt><trkpt lat="45.5614566536908" lon="11.079940726698341"><ele>666.0</ele><time>2026-04-18T13:24:12Z</time></trkpt><trkpt lat="45.561438986283974" lon="11.079851009972483"><ele>666.0</ele><time>2026-04-18T13:24:13Z</time></trkpt><trkpt lat="45.56143291643147" lon="11.079728359935517"><ele>666.0</ele><time>2026-04-18T13:24:15Z</time></trkpt><trkpt lat="45.56136034574942" lon="11.079737460771513"><ele>666.0</ele><time>2026-04-18T13:24:18Z</time></trkpt><trkpt lat="45.56130690113404" lon="11.079788683115272"><ele>666.0</ele><time>2026-04-18T13:24:20Z</time></trkpt><trkpt lat="45.56125185337339" lon="11.079845550376497"><ele>666.0</ele><time>2026-04-18T13:24:22Z</time></trkpt><trkpt lat="45.56118775020287" lon="11.079895507422785"><ele>666.0</ele><time>2026-04-18T13:24:24Z</time></trkpt><trkpt lat="45.56111701472857" lon="11.079912913430597"><ele>666.0</ele><time>2026-04-18T13:24:26Z</time></trkpt><trkpt lat="45.561042679400224" lon="11.079912881682553"><ele>666.0</ele><time>2026-04-18T13:24:28Z</time></trkpt><trkpt lat="45.56095445231314" lon="11.079916030031596"><ele>666.0</ele><time>2026-04-18T13:24:30Z</time></trkpt><trkpt lat="45.56087555367173" lon="11.079940886428608"><ele>666.0</ele><time>2026-04-18T13:24:32Z</time></trkpt><trkpt lat="45.560812446886786" lon="11.080001109698054"><ele>666.0</ele><time>2026-04-18T13:24:34Z</time></trkpt><trkpt lat="45.560753384948605" lon="11.080075334913085"><ele>666.0</ele><time>2026-04-18T13:24:36Z</time></trkpt><trkpt lat="45.56071139899485" lon="11.080145008496302"><ele>666.0</ele><time>2026-04-18T13:24:38Z</time></trkpt><trkpt lat="45.560633909857586" lon="11.080161067029938"><ele>666.0</ele><time>2026-04-18T13:24:41Z</time></trkpt><trkpt lat="45.56058469550487" lon="11.0800780561468"><ele>666.0</ele><time>2026-04-18T13:24:43Z</time></trkpt><trkpt lat="45.56050849854956" lon="11.079933271039712"><ele>666.0</ele><time>2026-04-18T13:24:45Z</time></trkpt><trkpt lat="45.56045065308708" lon="11.079869607510336"><ele>666.0</ele><time>2026-04-18T13:24:46Z</time></trkpt><trkpt lat="45.560391910703636" lon="11.07979982487648"><ele>666.0</ele><time>2026-04-18T13:24:47Z</time></trkpt><trkpt lat="45.560332669275006" lon="11.079725614819619"><ele>666.0</ele><time>2026-04-18T13:24:48Z</time></trkpt><trkpt lat="45.560273706539185" lon="11.079653849993294"><ele>667.8</ele><time>2026-04-18T13:24:49Z</time></trkpt><trkpt lat="45.560214317256296" lon="11.079588649635117"><ele>669.5999999999999</ele><time>2026-04-18T13:24:50Z</time></trkpt><trkpt lat="45.56015881045322" lon="11.079531877983849"><ele>671.4</ele><time>2026-04-18T13:24:51Z</time></trkpt><trkpt lat="45.56006094422302" lon="11.079440487888833"><ele>673.2</ele><time>2026-04-18T13:24:53Z</time></trkpt><trkpt lat="45.55995145549208" lon="11.079366155481129"><ele>675.0</ele><time>2026-04-18T13:24:55Z</time></trkpt><trkpt lat="45.559890542624146" lon="11.079318209975558"><ele>675.0</ele><time>2026-04-18T13:24:56Z</time></trkpt><trkpt lat="45.559825428606054" lon="11.079261895420595"><ele>675.0</ele><time>2026-04-18T13:24:57Z</time></trkpt><trkpt lat="45.55976356284888" lon="11.079196532086574"><ele>675.0</ele><time>2026-04-18T13:24:58Z</time></trkpt><trkpt lat="45.55971269123338" lon="11.079117245787426"><ele>675.0</ele><time>2026-04-18T13:24:59Z</time></trkpt><trkpt lat="45.55967126443537" lon="11.079026870319852"><ele>675.0</ele><time>2026-04-18T13:25:00Z</time></trkpt><trkpt lat="45.55964136288361" lon="11.078921560727158"><ele>675.0</ele><time>2026-04-18T13:25:01Z</time></trkpt><trkpt lat="45.559616704059316" lon="11.078807564932283"><ele>674.3333333333334</ele><time>2026-04-18T13:25:02Z</time></trkpt><trkpt lat="45.55959171208272" lon="11.078692165664537"><ele>673.6666666666666</ele><time>2026-04-18T13:25:03Z</time></trkpt><trkpt lat="45.55956514532724" lon="11.078578977517632"><ele>673.0</ele><time>2026-04-18T13:25:04Z</time></trkpt><trkpt lat="45.55954305413897" lon="11.078473346990712"><ele>672.3333333333333</ele><time>2026-04-18T13:25:05Z</time></trkpt><trkpt lat="45.55952284666817" lon="11.078362970834183"><ele>671.6666666666666</ele><time>2026-04-18T13:25:06Z</time></trkpt><trkpt lat="45.55950040467398" lon="11.078256633728953"><ele>671.0</ele><time>2026-04-18T13:25:07Z</time></trkpt><trkpt lat="45.55947722334399" lon="11.078158557897853"><ele>669.2857142857142</ele><time>2026-04-18T13:25:08Z</time></trkpt><trkpt lat="45.55945862705979" lon="11.078070335179454"><ele>667.5714285714287</ele><time>2026-04-18T13:25:09Z</time></trkpt><trkpt lat="45.559425000038125" lon="11.07798218944579"><ele>665.8571428571429</ele><time>2026-04-18T13:25:10Z</time></trkpt><trkpt lat="45.55939098003409" lon="11.077889050586355"><ele>664.1428571428571</ele><time>2026-04-18T13:25:11Z</time></trkpt><trkpt lat="45.559348716005445" lon="11.077809591768055"><ele>662.4285714285713</ele><time>2026-04-18T13:25:12Z</time></trkpt><trkpt lat="45.55929998652234" lon="11.077732614583327"><ele>660.7142857142858</ele><time>2026-04-18T13:25:13Z</time></trkpt><trkpt lat="45.55924842868604" lon="11.077657890489892"><ele>659.0</ele><time>2026-04-18T13:25:14Z</time></trkpt><trkpt lat="45.55920799628982" lon="11.077573199142806"><ele>659.0</ele><time>2026-04-18T13:25:15Z</time></trkpt><trkpt lat="45.559170624920775" lon="11.077484048836869"><ele>659.0</ele><time>2026-04-18T13:25:16Z</time></trkpt><trkpt lat="45.55913274670797" lon="11.077393270681137"><ele>659.0</ele><time>2026-04-18T13:25:17Z</time></trkpt><trkpt lat="45.55909690030378" lon="11.077297936279443"><ele>659.0</ele><time>2026-04-18T13:25:18Z</time></trkpt><trkpt lat="45.559056190226116" lon="11.077197549126533"><ele>659.0</ele><time>2026-04-18T13:25:19Z</time></trkpt><trkpt lat="45.55900733481663" lon="11.077101384211954"><ele>659.0</ele><time>2026-04-18T13:25:20Z</time></trkpt><trkpt lat="45.55895732885483" lon="11.077015327788764"><ele>657.7142857142858</ele><time>2026-04-18T13:25:21Z</time></trkpt><trkpt lat="45.55890589492333" lon="11.07693907330874"><ele>656.4285714285713</ele><time>2026-04-18T13:25:22Z</time></trkpt><trkpt lat="45.55886183222157" lon="11.076860388496579"><ele>655.1428571428571</ele><time>2026-04-18T13:25:23Z</time></trkpt><trkpt lat="45.558829823352085" lon="11.076773446671133"><ele>653.8571428571429</ele><time>2026-04-18T13:25:24Z</time></trkpt><trkpt lat="45.55880304396451" lon="11.076681075542062"><ele>652.5714285714287</ele><time>2026-04-18T13:25:25Z</time></trkpt><trkpt lat="45.558776317886874" lon="11.07659093972012"><ele>651.2857142857142</ele><time>2026-04-18T13:25:26Z</time></trkpt><trkpt lat="45.55874619445274" lon="11.076505547682617"><ele>650.0</ele><time>2026-04-18T13:25:27Z</time></trkpt><trkpt lat="45.55870377828117" lon="11.076426201520666"><ele>649.1666666666666</ele><time>2026-04-18T13:25:28Z</time></trkpt><trkpt lat="45.55865116703177" lon="11.07636061132079"><ele>648.3333333333333</ele><time>2026-04-18T13:25:29Z</time></trkpt><trkpt lat="45.5585954311525" lon="11.076286439945296"><ele>647.5</ele><time>2026-04-18T13:25:30Z</time></trkpt><trkpt lat="45.558545221094285" lon="11.076217688997104"><ele>646.6666666666666</ele><time>2026-04-18T13:25:31Z</time></trkpt><trkpt lat="45.5585010698474" lon="11.07614498112094"><ele>645.8333333333334</ele><time>2026-04-18T13:25:32Z</time></trkpt><trkpt lat="45.55842085794794" lon="11.076015775835067"><ele>645.0</ele><time>2026-04-18T13:25:34Z</time></trkpt><trkpt lat="45.558347009766244" lon="11.075917114858123"><ele>645.0</ele><time>2026-04-18T13:25:36Z</time></trkpt><trkpt lat="45.55834236501492" lon="11.075824071278321"><ele>645.0</ele><time>2026-04-18T13:25:40Z</time></trkpt><trkpt lat="45.55839000852227" lon="11.075760233858995"><ele>645.0</ele><time>2026-04-18T13:25:42Z</time></trkpt><trkpt lat="45.558415555793275" lon="11.075675760967867"><ele>645.0</ele><time>2026-04-18T13:25:44Z</time></trkpt><trkpt lat="45.55846179672212" lon="11.075592760069323"><ele>645.0</ele><time>2026-04-18T13:25:46Z</time></trkpt><trkpt lat="45.55853156254805" lon="11.075516761554425"><ele>645.0</ele><time>2026-04-18T13:25:48Z</time></trkpt><trkpt lat="45.55861491879609" lon="11.075433940188075"><ele>644.6</ele><time>2026-04-18T13:25:50Z</time></trkpt><trkpt lat="45.55868617666904" lon="11.075351813797191"><ele>644.2</ele><time>2026-04-18T13:25:52Z</time></trkpt><trkpt lat="45.55874847102463" lon="11.075261478459574"><ele>643.8</ele><time>2026-04-18T13:25:54Z</time></trkpt><trkpt lat="45.55880787209808" lon="11.07515881306254"><ele>643.4</ele><time>2026-04-18T13:25:56Z</time></trkpt><trkpt lat="45.55887488294089" lon="11.07505015414415"><ele>643.0</ele><time>2026-04-18T13:25:58Z</time></trkpt><trkpt lat="45.558946198857385" lon="11.074947506762497"><ele>641.5</ele><time>2026-04-18T13:26:00Z</time></trkpt><trkpt lat="45.55899788384259" lon="11.074853987458567"><ele>640.0</ele><time>2026-04-18T13:26:02Z</time></trkpt><trkpt lat="45.55906383593119" lon="11.07475893335552"><ele>638.5</ele><time>2026-04-18T13:26:04Z</time></trkpt><trkpt lat="45.559132608531115" lon="11.074698287678792"><ele>637.0</ele><time>2026-04-18T13:26:06Z</time></trkpt><trkpt lat="45.55920754707294" lon="11.074740560502836"><ele>635.5</ele><time>2026-04-18T13:26:09Z</time></trkpt><trkpt lat="45.55919721953686" lon="11.07487662166827"><ele>634.0</ele><time>2026-04-18T13:26:11Z</time></trkpt><trkpt lat="45.559177711257306" lon="11.075050832967863"><ele>634.0</ele><time>2026-04-18T13:26:13Z</time></trkpt><trkpt lat="45.5591384527252" lon="11.075178643118356"><ele>634.0</ele><time>2026-04-18T13:26:15Z</time></trkpt><trkpt lat="45.55919363269145" lon="11.075228316496336"><ele>634.0</ele><time>2026-04-18T13:26:20Z</time></trkpt><trkpt lat="45.55924465266392" lon="11.07510961648"><ele>634.0</ele><time>2026-04-18T13:26:22Z</time></trkpt><trkpt lat="45.559289721499674" lon="11.075014942453183"><ele>634.0</ele><time>2026-04-18T13:26:24Z</time></trkpt><trkpt lat="45.55934988904407" lon="11.0749587269481"><ele>634.0</ele><time>2026-04-18T13:26:26Z</time></trkpt><trkpt lat="45.55944520969496" lon="11.074931626331175"><ele>633.8333333333334</ele><time>2026-04-18T13:26:28Z</time></trkpt><trkpt lat="45.55951308793466" lon="11.0749178867365"><ele>633.6666666666667</ele><time>2026-04-18T13:26:29Z</time></trkpt><trkpt lat="45.55959737273208" lon="11.074891583481309"><ele>633.5</ele><time>2026-04-18T13:26:31Z</time></trkpt><trkpt lat="45.55968379875978" lon="11.074979712198894"><ele>633.3333333333334</ele><time>2026-04-18T13:26:33Z</time></trkpt><trkpt lat="45.55973914789789" lon="11.075050329483675"><ele>633.1666666666666</ele><time>2026-04-18T13:26:34Z</time></trkpt><trkpt lat="45.55979680258543" lon="11.075118373966262"><ele>633.0</ele><time>2026-04-18T13:26:35Z</time></trkpt><trkpt lat="45.55985339255399" lon="11.075177280714682"><ele>630.0</ele><time>2026-04-18T13:26:36Z</time></trkpt><trkpt lat="45.55990312220791" lon="11.075234256572633"><ele>627.0</ele><time>2026-04-18T13:26:37Z</time></trkpt><trkpt lat="45.55996522286802" lon="11.075309158399048"><ele>624.0</ele><time>2026-04-18T13:26:39Z</time></trkpt><trkpt lat="45.559990920947975" lon="11.075214872653977"><ele>621.0</ele><time>2026-04-18T13:26:42Z</time></trkpt><trkpt lat="45.559958702303604" lon="11.075082097615194"><ele>618.0</ele><time>2026-04-18T13:26:44Z</time></trkpt><trkpt lat="45.55990320453207" lon="11.074974599173345"><ele>615.0</ele><time>2026-04-18T13:26:46Z</time></trkpt><trkpt lat="45.559862655724146" lon="11.074880234691943"><ele>613.8</ele><time>2026-04-18T13:26:48Z</time></trkpt><trkpt lat="45.55983837753272" lon="11.074737930997518"><ele>612.6</ele><time>2026-04-18T13:26:50Z</time></trkpt><trkpt lat="45.55984273891442" lon="11.074566184019165"><ele>611.4</ele><time>2026-04-18T13:26:52Z</time></trkpt><trkpt lat="45.55986681071854" lon="11.074479858177856"><ele>610.2</ele><time>2026-04-18T13:26:53Z</time></trkpt><trkpt lat="45.5598968696195" lon="11.074399595960395"><ele>609.0</ele><time>2026-04-18T13:26:54Z</time></trkpt><trkpt lat="45.559948111710796" lon="11.07425134473355"><ele>609.0</ele><time>2026-04-18T13:26:56Z</time></trkpt><trkpt lat="45.55998807219178" lon="11.074125802360513"><ele>609.0</ele><time>2026-04-18T13:26:58Z</time></trkpt><trkpt lat="45.56003030080099" lon="11.07398684573064"><ele>609.0</ele><time>2026-04-18T13:27:00Z</time></trkpt><trkpt lat="45.5600778578971" lon="11.073913489292023"><ele>609.0</ele><time>2026-04-18T13:27:02Z</time></trkpt><trkpt lat="45.560146442017455" lon="11.073941558506464"><ele>609.0</ele><time>2026-04-18T13:27:05Z</time></trkpt><trkpt lat="45.560197223949125" lon="11.074057488522849"><ele>609.0</ele><time>2026-04-18T13:27:07Z</time></trkpt><trkpt lat="45.560234480467194" lon="11.073929006503551"><ele>606.8571428571429</ele><time>2026-04-18T13:27:13Z</time></trkpt><trkpt lat="45.56024027914386" lon="11.073805941144728"><ele>604.7142857142858</ele><time>2026-04-18T13:27:15Z</time></trkpt><trkpt lat="45.56023681777955" lon="11.073700551637259"><ele>602.5714285714286</ele><time>2026-04-18T13:27:19Z</time></trkpt><trkpt lat="45.56024218366477" lon="11.073610815361617"><ele>600.4285714285714</ele><time>2026-04-18T13:27:21Z</time></trkpt><trkpt lat="45.56024265149914" lon="11.07351598006231"><ele>598.2857142857143</ele><time>2026-04-18T13:27:23Z</time></trkpt><trkpt lat="45.56027511708605" lon="11.073427427091051"><ele>596.1428571428571</ele><time>2026-04-18T13:27:31Z</time></trkpt><trkpt lat="45.560331614697276" lon="11.073331689495449"><ele>594.0</ele><time>2026-04-18T13:27:33Z</time></trkpt><trkpt lat="45.56040323112507" lon="11.073239755224618"><ele>593.1666666666666</ele><time>2026-04-18T13:27:35Z</time></trkpt><trkpt lat="45.56047037011894" lon="11.073139094892491"><ele>592.3333333333334</ele><time>2026-04-18T13:27:37Z</time></trkpt><trkpt lat="45.56047874404586" lon="11.073037436208137"><ele>591.5</ele><time>2026-04-18T13:27:39Z</time></trkpt><trkpt lat="45.56050268179199" lon="11.072924854405409"><ele>590.6666666666667</ele><time>2026-04-18T13:27:42Z</time></trkpt><trkpt lat="45.560551042255305" lon="11.07282653751559"><ele>589.8333333333334</ele><time>2026-04-18T13:27:45Z</time></trkpt><trkpt lat="45.560555214325554" lon="11.07273446184513"><ele>589.0</ele><time>2026-04-18T13:27:56Z</time></trkpt><trkpt lat="45.56057893782869" lon="11.072614588060107"><ele>589.0</ele><time>2026-04-18T13:30:29Z</time></trkpt><trkpt lat="45.56060851191686" lon="11.072531520418345"><ele>589.0</ele><time>2026-04-18T13:30:32Z</time></trkpt><trkpt lat="45.560652976241784" lon="11.07246116165766"><ele>589.0</ele><time>2026-04-18T13:30:34Z</time></trkpt><trkpt lat="45.56070694682998" lon="11.072386144157637"><ele>589.0</ele><time>2026-04-18T13:30:36Z</time></trkpt><trkpt lat="45.56076928535553" lon="11.072276441253393"><ele>589.0</ele><time>2026-04-18T13:30:39Z</time></trkpt><trkpt lat="45.56084911862322" lon="11.072213283524302"><ele>589.0</ele><time>2026-04-18T13:30:42Z</time></trkpt><trkpt lat="45.56084599142301" lon="11.072119441689262"><ele>583.3333333333334</ele><time>2026-04-18T13:30:48Z</time></trkpt><trkpt lat="45.560756741264605" lon="11.072125283267702"><ele>577.6666666666667</ele><time>2026-04-18T13:30:52Z</time></trkpt><trkpt lat="45.56067839228148" lon="11.072153276074836"><ele>572.0</ele><time>2026-04-18T13:30:54Z</time></trkpt><trkpt lat="45.56060173578278" lon="11.07217099468772"><ele>566.3333333333334</ele><time>2026-04-18T13:30:56Z</time></trkpt><trkpt lat="45.56053185616304" lon="11.072195705289335"><ele>560.6666666666666</ele><time>2026-04-18T13:30:58Z</time></trkpt><trkpt lat="45.56046710672445" lon="11.072241193441956"><ele>555.0</ele><time>2026-04-18T13:31:00Z</time></trkpt><trkpt lat="45.56041087837939" lon="11.072296558579858"><ele>556.8333333333334</ele><time>2026-04-18T13:31:03Z</time></trkpt><trkpt lat="45.560341046182856" lon="11.072354768639999"><ele>558.6666666666666</ele><time>2026-04-18T13:31:08Z</time></trkpt><trkpt lat="45.56028087254696" lon="11.072421818633849"><ele>560.5</ele><time>2026-04-18T13:31:11Z</time></trkpt><trkpt lat="45.5602124589458" lon="11.072500363494873"><ele>562.3333333333333</ele><time>2026-04-18T13:31:14Z</time></trkpt><trkpt lat="45.56016620406731" lon="11.07256891302954"><ele>564.1666666666666</ele><time>2026-04-18T13:31:17Z</time></trkpt><trkpt lat="45.56010142344599" lon="11.07259018133382"><ele>566.0</ele><time>2026-04-18T13:31:24Z</time></trkpt><trkpt lat="45.560029224011245" lon="11.0726078131761"><ele>566.0</ele><time>2026-04-18T13:31:51Z</time></trkpt><trkpt lat="45.55995913781448" lon="11.072595971416039"><ele>566.0</ele><time>2026-04-18T13:31:53Z</time></trkpt><trkpt lat="45.55989514672484" lon="11.072607456166484"><ele>566.0</ele><time>2026-04-18T13:31:55Z</time></trkpt><trkpt lat="45.55982740114946" lon="11.07261730355377"><ele>566.0</ele><time>2026-04-18T13:31:58Z</time></trkpt><trkpt lat="45.55974612059058" lon="11.072611934795063"><ele>566.0</ele><time>2026-04-18T13:32:01Z</time></trkpt><trkpt lat="45.55965593159349" lon="11.072607740882864"><ele>566.0</ele><time>2026-04-18T13:32:03Z</time></trkpt><trkpt lat="45.55956383157424" lon="11.072593507924674"><ele>566.5714285714286</ele><time>2026-04-18T13:32:05Z</time></trkpt><trkpt lat="45.5594703864102" lon="11.072571473076405"><ele>567.1428571428572</ele><time>2026-04-18T13:32:07Z</time></trkpt><trkpt lat="45.559433904515735" lon="11.072488928842377"><ele>567.7142857142858</ele><time>2026-04-18T13:32:12Z</time></trkpt><trkpt lat="45.55939685468083" lon="11.072401878098859"><ele>568.2857142857143</ele><time>2026-04-18T13:32:19Z</time></trkpt><trkpt lat="45.55934246043049" lon="11.072341498283597"><ele>568.8571428571429</ele><time>2026-04-18T13:32:22Z</time></trkpt><trkpt lat="45.55940467484716" lon="11.072321267362586"><ele>569.4285714285714</ele><time>2026-04-18T13:32:35Z</time></trkpt><trkpt lat="45.55947081745142" lon="11.072333375485377"><ele>570.0</ele><time>2026-04-18T13:32:41Z</time></trkpt><trkpt lat="45.559538741841415" lon="11.072357193487276"><ele>562.6</ele><time>2026-04-18T13:32:44Z</time></trkpt><trkpt lat="45.55960825791253" lon="11.072376688944585"><ele>555.2</ele><time>2026-04-18T13:32:51Z</time></trkpt><trkpt lat="45.55973111406365" lon="11.07233596507507"><ele>547.8</ele><time>2026-04-18T13:33:00Z</time></trkpt><trkpt lat="45.559794634535415" lon="11.07230415050824"><ele>540.4</ele><time>2026-04-18T13:33:23Z</time></trkpt><trkpt lat="45.559868284474874" lon="11.072282941448332"><ele>533.0</ele><time>2026-04-18T13:33:28Z</time></trkpt><trkpt lat="45.559978957872325" lon="11.072226526429823"><ele>533.0</ele><time>2026-04-18T13:34:13Z</time></trkpt><trkpt lat="45.55996794516581" lon="11.072120684904716"><ele>533.0</ele><time>2026-04-18T13:34:52Z</time></trkpt><trkpt lat="45.55999834859146" lon="11.072016928708656"><ele>533.0</ele><time>2026-04-18T13:35:00Z</time></trkpt><trkpt lat="45.56002590162217" lon="11.071873885870348"><ele>533.0</ele><time>2026-04-18T13:35:22Z</time></trkpt><trkpt lat="45.56004753857543" lon="11.07178620442614"><ele>533.0</ele><time>2026-04-18T13:35:27Z</time></trkpt><trkpt lat="45.5601044897465" lon="11.07171469951815"><ele>533.0</ele><time>2026-04-18T13:35:32Z</time></trkpt><trkpt lat="45.56017297680708" lon="11.071645986679624"><ele>529.8571428571429</ele><time>2026-04-18T13:35:35Z</time></trkpt><trkpt lat="45.560230549652054" lon="11.071604246770073"><ele>526.7142857142857</ele><time>2026-04-18T13:35:37Z</time></trkpt><trkpt lat="45.56028286158123" lon="11.071552475187337"><ele>523.5714285714286</ele><time>2026-04-18T13:35:39Z</time></trkpt><trkpt lat="45.560352165720516" lon="11.071495769241073"><ele>520.4285714285714</ele><time>2026-04-18T13:35:42Z</time></trkpt><trkpt lat="45.560399548211514" lon="11.071421375529685"><ele>517.2857142857142</ele><time>2026-04-18T13:35:46Z</time></trkpt><trkpt lat="45.5604536644313" lon="11.071367204301628"><ele>514.1428571428571</ele><time>2026-04-18T13:35:50Z</time></trkpt><trkpt lat="45.560507770758214" lon="11.071306539690813"><ele>511.0</ele><time>2026-04-18T13:35:53Z</time></trkpt><trkpt lat="45.5605579038357" lon="11.071252030873808"><ele>511.0</ele><time>2026-04-18T13:35:56Z</time></trkpt><trkpt lat="45.5606385400789" lon="11.071227382421593"><ele>511.0</ele><time>2026-04-18T13:36:04Z</time></trkpt><trkpt lat="45.56070752578621" lon="11.071197173258659"><ele>511.0</ele><time>2026-04-18T13:36:08Z</time></trkpt><trkpt lat="45.56076613802005" lon="11.071164053630548"><ele>511.0</ele><time>2026-04-18T13:36:12Z</time></trkpt><trkpt lat="45.56083608191618" lon="11.071159213064766"><ele>511.0</ele><time>2026-04-18T13:36:18Z</time></trkpt><trkpt lat="45.56091979545391" lon="11.071149989677764"><ele>511.0</ele><time>2026-04-18T13:36:23Z</time></trkpt><trkpt lat="45.56099596026641" lon="11.071135912240116"><ele>511.0</ele><time>2026-04-18T13:36:27Z</time></trkpt><trkpt lat="45.56107783684141" lon="11.071116941904998"><ele>511.00000000000006</ele><time>2026-04-18T13:36:30Z</time></trkpt><trkpt lat="45.56114862840291" lon="11.071104409502915"><ele>511.0</ele><time>2026-04-18T13:36:35Z</time></trkpt><trkpt lat="45.5612117391764" lon="11.07107684469708"><ele>511.0</ele><time>2026-04-18T13:36:40Z</time></trkpt><trkpt lat="45.56127086710122" lon="11.071012304686604"><ele>511.0</ele><time>2026-04-18T13:36:45Z</time></trkpt><trkpt lat="45.561325907260134" lon="11.07096850154685"><ele>511.00000000000006</ele><time>2026-04-18T13:36:48Z</time></trkpt><trkpt lat="45.561411485580024" lon="11.070929478310553"><ele>511.0</ele><time>2026-04-18T13:36:51Z</time></trkpt><trkpt lat="45.56149710968761" lon="11.0708739552956"><ele>512.8333333333334</ele><time>2026-04-18T13:36:54Z</time></trkpt><trkpt lat="45.561560906137444" lon="11.070818616778748"><ele>514.6666666666667</ele><time>2026-04-18T13:36:57Z</time></trkpt><trkpt lat="45.56163188645703" lon="11.070766954905142"><ele>516.5</ele><time>2026-04-18T13:37:02Z</time></trkpt><trkpt lat="45.56172850464451" lon="11.070753831638099"><ele>518.3333333333334</ele><time>2026-04-18T13:37:08Z</time></trkpt><trkpt lat="45.561777884627276" lon="11.070692645524533"><ele>520.1666666666666</ele><time>2026-04-18T13:37:11Z</time></trkpt><trkpt lat="45.56182909172652" lon="11.070619807948669"><ele>522.0</ele><time>2026-04-18T13:37:14Z</time></trkpt><trkpt lat="45.56188643543598" lon="11.070567433771764"><ele>521.0</ele><time>2026-04-18T13:37:16Z</time></trkpt><trkpt lat="45.561955236663835" lon="11.070504908441944"><ele>520.0</ele><time>2026-04-18T13:37:19Z</time></trkpt><trkpt lat="45.56201361415527" lon="11.070438986662092"><ele>519.0</ele><time>2026-04-18T13:37:23Z</time></trkpt><trkpt lat="45.562060154454386" lon="11.070370634252914"><ele>518.0</ele><time>2026-04-18T13:37:26Z</time></trkpt><trkpt lat="45.56210414167057" lon="11.070265359963274"><ele>517.0</ele><time>2026-04-18T13:37:29Z</time></trkpt><trkpt lat="45.56217915969961" lon="11.070175965966003"><ele>516.0</ele><time>2026-04-18T13:37:32Z</time></trkpt><trkpt lat="45.56222942658864" lon="11.070118128570464"><ele>515.9999999999999</ele><time>2026-04-18T13:37:34Z</time></trkpt><trkpt lat="45.56226580994144" lon="11.070031635786158"><ele>516.0</ele><time>2026-04-18T13:37:36Z</time></trkpt><trkpt lat="45.56230485426636" lon="11.069947315226202"><ele>516.0</ele><time>2026-04-18T13:37:38Z</time></trkpt><trkpt lat="45.56234435936104" lon="11.069844921818975"><ele>516.0</ele><time>2026-04-18T13:37:41Z</time></trkpt><trkpt lat="45.562396968032324" lon="11.069768871806804"><ele>516.0</ele><time>2026-04-18T13:37:47Z</time></trkpt><trkpt lat="45.56244060445329" lon="11.069699490654504"><ele>515.9999999999999</ele><time>2026-04-18T13:38:04Z</time></trkpt><trkpt lat="45.56246755142055" lon="11.069597761242314"><ele>516.0</ele><time>2026-04-18T13:38:08Z</time></trkpt><trkpt lat="45.56249540430417" lon="11.069496456696593"><ele>511.71428571428567</ele><time>2026-04-18T13:38:11Z</time></trkpt><trkpt lat="45.56254710646023" lon="11.069429253460513"><ele>507.42857142857144</ele><time>2026-04-18T13:38:14Z</time></trkpt><trkpt lat="45.56259155513986" lon="11.069357647971517"><ele>503.1428571428571</ele><time>2026-04-18T13:38:20Z</time></trkpt><trkpt lat="45.56260227938719" lon="11.069256672424112"><ele>498.85714285714283</ele><time>2026-04-18T13:38:28Z</time></trkpt><trkpt lat="45.562626365192884" lon="11.069151991637952"><ele>494.57142857142856</ele><time>2026-04-18T13:38:59Z</time></trkpt><trkpt lat="45.56267020931917" lon="11.069083509881981"><ele>490.2857142857143</ele><time>2026-04-18T13:39:06Z</time></trkpt><trkpt lat="45.5626524723176" lon="11.06899426805481"><ele>486.0</ele><time>2026-04-18T13:39:15Z</time></trkpt><trkpt lat="45.56271450871319" lon="11.06895129261952"><ele>485.8333333333333</ele><time>2026-04-18T13:39:27Z</time></trkpt><trkpt lat="45.56275672408734" lon="11.068868911321584"><ele>485.66666666666663</ele><time>2026-04-18T13:39:29Z</time></trkpt><trkpt lat="45.56282398376359" lon="11.06878216210643"><ele>485.5</ele><time>2026-04-18T13:39:32Z</time></trkpt><trkpt lat="45.5628901343311" lon="11.068680464248024"><ele>485.3333333333333</ele><time>2026-04-18T13:39:35Z</time></trkpt><trkpt lat="45.56293555611331" lon="11.06860901311434"><ele>485.16666666666663</ele><time>2026-04-18T13:39:37Z</time></trkpt><trkpt lat="45.562971655366795" lon="11.068524545320617"><ele>485.0</ele><time>2026-04-18T13:39:40Z</time></trkpt><trkpt lat="45.56297859375251" lon="11.068432233741376"><ele>485.00000000000006</ele><time>2026-04-18T13:39:44Z</time></trkpt><trkpt lat="45.563025902973955" lon="11.068348870160184"><ele>485.0</ele><time>2026-04-18T13:39:48Z</time></trkpt><trkpt lat="45.56307786285756" lon="11.068257435568285"><ele>485.00000000000006</ele><time>2026-04-18T13:39:58Z</time></trkpt><trkpt lat="45.56311920135166" lon="11.06817556424716"><ele>485.00000000000006</ele><time>2026-04-18T13:40:21Z</time></trkpt><trkpt lat="45.56316460859489" lon="11.068093929198138"><ele>485.0</ele><time>2026-04-18T13:40:29Z</time></trkpt><trkpt lat="45.56315799476704" lon="11.068003668516052"><ele>485.00000000000006</ele><time>2026-04-18T13:40:32Z</time></trkpt><trkpt lat="45.56319841308241" lon="11.067929972472243"><ele>485.00000000000006</ele><time>2026-04-18T13:40:41Z</time></trkpt><trkpt lat="45.56326036392744" lon="11.0679046246704"><ele>478.0</ele><time>2026-04-18T13:40:45Z</time></trkpt><trkpt lat="45.563506508083734" lon="11.067889164453486"><ele>471.0</ele><time>2026-04-18T13:40:55Z</time></trkpt><trkpt lat="45.563579531595636" lon="11.067848093888538"><ele>464.0</ele><time>2026-04-18T13:40:58Z</time></trkpt><trkpt lat="45.5636403245661" lon="11.067820004250335"><ele>457.0</ele><time>2026-04-18T13:41:01Z</time></trkpt><trkpt lat="45.56370774295293" lon="11.067799787202299"><ele>457.00000000000006</ele><time>2026-04-18T13:41:05Z</time></trkpt><trkpt lat="45.563770697366195" lon="11.067731817415584"><ele>457.0</ele><time>2026-04-18T13:41:22Z</time></trkpt><trkpt lat="45.563834423572544" lon="11.067685324432958"><ele>457.00000000000006</ele><time>2026-04-18T13:41:26Z</time></trkpt><trkpt lat="45.56390759976979" lon="11.067680424938061"><ele>457.00000000000006</ele><time>2026-04-18T13:41:38Z</time></trkpt><trkpt lat="45.56396286324118" lon="11.067628991616477"><ele>457.0</ele><time>2026-04-18T13:42:06Z</time></trkpt><trkpt lat="45.56403768783729" lon="11.067626051408272"><ele>457.00000000000006</ele><time>2026-04-18T13:42:21Z</time></trkpt><trkpt lat="45.56410764187147" lon="11.067593685138318"><ele>457.00000000000006</ele><time>2026-04-18T13:42:37Z</time></trkpt><trkpt lat="45.564178733448166" lon="11.067576678623624"><ele>457.00000000000006</ele><time>2026-04-18T13:42:42Z</time></trkpt><trkpt lat="45.56430090919876" lon="11.067567438501053"><ele>457.0</ele><time>2026-04-18T13:42:57Z</time></trkpt><trkpt lat="45.56436443206302" lon="11.067559743782192"><ele>457.0</ele><time>2026-04-18T13:43:58Z</time></trkpt><trkpt lat="45.56431186575052" lon="11.067503108710046"><ele>457.0</ele><time>2026-04-18T13:44:13Z</time></trkpt><trkpt lat="45.56434374542466" lon="11.067423885964772"><ele>457.00000000000006</ele><time>2026-04-18T13:44:43Z</time></trkpt><trkpt lat="45.56442781915584" lon="11.067367457781241"><ele>457.0</ele><time>2026-04-18T13:45:49Z</time></trkpt><trkpt lat="45.564464504193054" lon="11.06728609918284"><ele>457.33333333333337</ele><time>2026-04-18T13:46:29Z</time></trkpt><trkpt lat="45.564492768587684" lon="11.067196694832187"><ele>457.6666666666667</ele><time>2026-04-18T13:47:08Z</time></trkpt><trkpt lat="45.56448052004087" lon="11.067105321020195"><ele>458.0</ele><time>2026-04-18T13:47:14Z</time></trkpt><trkpt lat="45.56452911150802" lon="11.06703473349634"><ele>458.33333333333337</ele><time>2026-04-18T13:47:21Z</time></trkpt><trkpt lat="45.56453620921224" lon="11.06688797065689"><ele>458.6666666666667</ele><time>2026-04-18T13:48:44Z</time></trkpt><trkpt lat="45.56445208494363" lon="11.066932755091576"><ele>459.0</ele><time>2026-04-18T13:48:46Z</time></trkpt><trkpt lat="45.564364610637504" lon="11.066965473951404"><ele>459.0</ele><time>2026-04-18T13:48:48Z</time></trkpt><trkpt lat="45.56426689897624" lon="11.067015495400883"><ele>459.0</ele><time>2026-04-18T13:48:50Z</time></trkpt><trkpt lat="45.56420699478173" lon="11.06705025884288"><ele>459.0</ele><time>2026-04-18T13:48:51Z</time></trkpt><trkpt lat="45.56410169287193" lon="11.067110259498557"><ele>459.0</ele><time>2026-04-18T13:48:53Z</time></trkpt><trkpt lat="45.564033087692685" lon="11.067133175655137"><ele>459.0</ele><time>2026-04-18T13:48:54Z</time></trkpt><trkpt lat="45.56396847184946" lon="11.067165129297042"><ele>459.0</ele><time>2026-04-18T13:48:55Z</time></trkpt><trkpt lat="45.563818990707006" lon="11.067161860668113"><ele>459.0</ele><time>2026-04-18T13:48:57Z</time></trkpt><trkpt lat="45.56373195222728" lon="11.067164917375909"><ele>459.0</ele><time>2026-04-18T13:48:58Z</time></trkpt><trkpt lat="45.563653324647646" lon="11.067177936839881"><ele>459.0</ele><time>2026-04-18T13:48:59Z</time></trkpt><trkpt lat="45.56356989915124" lon="11.06719803912543"><ele>459.0</ele><time>2026-04-18T13:49:00Z</time></trkpt><trkpt lat="45.56350012790611" lon="11.067231462093668"><ele>459.0</ele><time>2026-04-18T13:49:01Z</time></trkpt><trkpt lat="45.56342320288465" lon="11.067267648997813"><ele>459.0</ele><time>2026-04-18T13:49:02Z</time></trkpt><trkpt lat="45.56333913038741" lon="11.067299090426756"><ele>458.5</ele><time>2026-04-18T13:49:03Z</time></trkpt><trkpt lat="45.56325691715331" lon="11.067329360216894"><ele>458.0</ele><time>2026-04-18T13:49:04Z</time></trkpt><trkpt lat="45.56318387352512" lon="11.067369515054015"><ele>457.5</ele><time>2026-04-18T13:49:05Z</time></trkpt><trkpt lat="45.56308559022658" lon="11.067377456900141"><ele>457.0</ele><time>2026-04-18T13:49:06Z</time></trkpt><trkpt lat="45.56299545500626" lon="11.067344375524064"><ele>456.5</ele><time>2026-04-18T13:49:07Z</time></trkpt><trkpt lat="45.56291292601644" lon="11.067333886033957"><ele>456.0</ele><time>2026-04-18T13:49:08Z</time></trkpt><trkpt lat="45.56283216203744" lon="11.067327590259136"><ele>454.71428571428567</ele><time>2026-04-18T13:49:09Z</time></trkpt><trkpt lat="45.562753239178775" lon="11.067325422698516"><ele>453.4285714285714</ele><time>2026-04-18T13:49:10Z</time></trkpt><trkpt lat="45.56267904584703" lon="11.067322091136482"><ele>452.1428571428571</ele><time>2026-04-18T13:49:11Z</time></trkpt><trkpt lat="45.562605793985036" lon="11.067318479446145"><ele>450.85714285714283</ele><time>2026-04-18T13:49:12Z</time></trkpt><trkpt lat="45.56253835778099" lon="11.06731323133133"><ele>449.57142857142856</ele><time>2026-04-18T13:49:13Z</time></trkpt><trkpt lat="45.562465843093804" lon="11.067318529064412"><ele>448.2857142857142</ele><time>2026-04-18T13:49:14Z</time></trkpt><trkpt lat="45.5623929254506" lon="11.06732366962238"><ele>447.0</ele><time>2026-04-18T13:49:15Z</time></trkpt><trkpt lat="45.562272365491495" lon="11.067361416293638"><ele>447.0</ele><time>2026-04-18T13:49:17Z</time></trkpt><trkpt lat="45.562203255427136" lon="11.067396760346144"><ele>447.0</ele><time>2026-04-18T13:49:18Z</time></trkpt><trkpt lat="45.56214296001903" lon="11.067455349725357"><ele>447.0</ele><time>2026-04-18T13:49:19Z</time></trkpt><trkpt lat="45.562097557186426" lon="11.067558893696555"><ele>447.0</ele><time>2026-04-18T13:49:20Z</time></trkpt><trkpt lat="45.562064062399294" lon="11.067697377547187"><ele>447.0</ele><time>2026-04-18T13:49:21Z</time></trkpt><trkpt lat="45.56204335755409" lon="11.067854701037623"><ele>447.0</ele><time>2026-04-18T13:49:22Z</time></trkpt><trkpt lat="45.56202494710056" lon="11.068010680055968"><ele>446.5</ele><time>2026-04-18T13:49:23Z</time></trkpt><trkpt lat="45.5619939703667" lon="11.068145550553611"><ele>446.0</ele><time>2026-04-18T13:49:24Z</time></trkpt><trkpt lat="45.56194465874516" lon="11.06828031105523"><ele>445.5</ele><time>2026-04-18T13:49:25Z</time></trkpt><trkpt lat="45.56184627263851" lon="11.06838150484284"><ele>445.0</ele><time>2026-04-18T13:49:26Z</time></trkpt><trkpt lat="45.56173052349985" lon="11.068497726091593"><ele>440.5</ele><time>2026-04-18T13:49:27Z</time></trkpt><trkpt lat="45.56160534064845" lon="11.068602531715946"><ele>436.0</ele><time>2026-04-18T13:49:28Z</time></trkpt><trkpt lat="45.56149574409493" lon="11.06869963802829"><ele>431.5</ele><time>2026-04-18T13:49:29Z</time></trkpt><trkpt lat="45.561406042305315" lon="11.068793162026871"><ele>427.0</ele><time>2026-04-18T13:49:30Z</time></trkpt><trkpt lat="45.56130676521924" lon="11.068890027550822"><ele>427.0</ele><time>2026-04-18T13:49:31Z</time></trkpt><trkpt lat="45.5612190989638" lon="11.068981647220168"><ele>427.00000000000006</ele><time>2026-04-18T13:49:32Z</time></trkpt><trkpt lat="45.56112872755122" lon="11.069052292406768"><ele>427.00000000000006</ele><time>2026-04-18T13:49:33Z</time></trkpt><trkpt lat="45.56103152532787" lon="11.069101446816386"><ele>427.0</ele><time>2026-04-18T13:49:34Z</time></trkpt><trkpt lat="45.560925949882744" lon="11.06911732942528"><ele>427.0</ele><time>2026-04-18T13:49:35Z</time></trkpt><trkpt lat="45.56082717035344" lon="11.069096638075322"><ele>429.0</ele><time>2026-04-18T13:49:36Z</time></trkpt><trkpt lat="45.5607304737027" lon="11.069062735418468"><ele>431.00000000000006</ele><time>2026-04-18T13:49:37Z</time></trkpt><trkpt lat="45.56064160007935" lon="11.069016798966713"><ele>433.00000000000006</ele><time>2026-04-18T13:49:38Z</time></trkpt><trkpt lat="45.56055619696067" lon="11.068978410793713"><ele>435.0</ele><time>2026-04-18T13:49:39Z</time></trkpt><trkpt lat="45.560471392101746" lon="11.068936905221278"><ele>437.0</ele><time>2026-04-18T13:49:40Z</time></trkpt><trkpt lat="45.56038783447817" lon="11.06891575983297"><ele>439.0</ele><time>2026-04-18T13:49:41Z</time></trkpt><trkpt lat="45.56029222871863" lon="11.068917002112746"><ele>441.00000000000006</ele><time>2026-04-18T13:49:42Z</time></trkpt><trkpt lat="45.56020768167336" lon="11.068946223312489"><ele>443.00000000000006</ele><time>2026-04-18T13:49:43Z</time></trkpt><trkpt lat="45.56011514642088" lon="11.068989830266386"><ele>445.0</ele><time>2026-04-18T13:49:44Z</time></trkpt><trkpt lat="45.56002069456732" lon="11.069029978934646"><ele>447.0</ele><time>2026-04-18T13:49:45Z</time></trkpt><trkpt lat="45.559913009499546" lon="11.069052180393378"><ele>443.6666666666667</ele><time>2026-04-18T13:49:46Z</time></trkpt><trkpt lat="45.55983789094057" lon="11.069123395706693"><ele>440.33333333333337</ele><time>2026-04-18T13:49:47Z</time></trkpt><trkpt lat="45.55974805774447" lon="11.069173926427629"><ele>437.0</ele><time>2026-04-18T13:49:48Z</time></trkpt><trkpt lat="45.55967959184616" lon="11.06925114734364"><ele>433.6666666666667</ele><time>2026-04-18T13:49:49Z</time></trkpt><trkpt lat="45.55963132974383" lon="11.069340050485799"><ele>430.33333333333337</ele><time>2026-04-18T13:49:50Z</time></trkpt><trkpt lat="45.559565153389634" lon="11.069424604846365"><ele>427.0</ele><time>2026-04-18T13:49:51Z</time></trkpt><trkpt lat="45.55949134460174" lon="11.069517041509208"><ele>427.0</ele><time>2026-04-18T13:49:52Z</time></trkpt><trkpt lat="45.5594146927289" lon="11.06960585471634"><ele>427.00000000000006</ele><time>2026-04-18T13:49:53Z</time></trkpt><trkpt lat="45.55931386675351" lon="11.069658163480314"><ele>427.00000000000006</ele><time>2026-04-18T13:49:54Z</time></trkpt><trkpt lat="45.559224964467816" lon="11.069713807459092"><ele>427.0</ele><time>2026-04-18T13:49:55Z</time></trkpt><trkpt lat="45.55911947831879" lon="11.06973176354153"><ele>427.0</ele><time>2026-04-18T13:49:56Z</time></trkpt><trkpt lat="45.559014067841396" lon="11.06973515405209"><ele>427.0</ele><time>2026-04-18T13:49:57Z</time></trkpt><trkpt lat="45.55891356671464" lon="11.069720379487244"><ele>427.00000000000006</ele><time>2026-04-18T13:49:58Z</time></trkpt><trkpt lat="45.55881819116765" lon="11.069671380795619"><ele>427.00000000000006</ele><time>2026-04-18T13:49:59Z</time></trkpt><trkpt lat="45.558726123995676" lon="11.069635838173836"><ele>427.0</ele><time>2026-04-18T13:50:00Z</time></trkpt><trkpt lat="45.55862517228987" lon="11.069619337487442"><ele>427.0</ele><time>2026-04-18T13:50:01Z</time></trkpt><trkpt lat="45.558533736221605" lon="11.069603864456614"><ele>427.6</ele><time>2026-04-18T13:50:02Z</time></trkpt><trkpt lat="45.55844497187531" lon="11.069588266427745"><ele>428.20000000000005</ele><time>2026-04-18T13:50:03Z</time></trkpt><trkpt lat="45.55834915832843" lon="11.069596351241644"><ele>428.8</ele><time>2026-04-18T13:50:04Z</time></trkpt><trkpt lat="45.55823585682812" lon="11.069635039017548"><ele>429.4</ele><time>2026-04-18T13:50:05Z</time></trkpt><trkpt lat="45.55812264790532" lon="11.069676140455131"><ele>430.0</ele><time>2026-04-18T13:50:06Z</time></trkpt><trkpt lat="45.55800327162028" lon="11.069729014852003"><ele>430.0</ele><time>2026-04-18T13:50:07Z</time></trkpt><trkpt lat="45.55788536188897" lon="11.069770873441652"><ele>430.0</ele><time>2026-04-18T13:50:08Z</time></trkpt><trkpt lat="45.557783011873326" lon="11.06983279747042"><ele>430.0</ele><time>2026-04-18T13:50:09Z</time></trkpt><trkpt lat="45.55766446373587" lon="11.06985891548989"><ele>430.0</ele><time>2026-04-18T13:50:10Z</time></trkpt><trkpt lat="45.557572376602586" lon="11.069900417952265"><ele>430.0</ele><time>2026-04-18T13:50:11Z</time></trkpt><trkpt lat="45.55747789974094" lon="11.069913234734255"><ele>430.0</ele><time>2026-04-18T13:50:12Z</time></trkpt><trkpt lat="45.55737183177265" lon="11.069916609505555"><ele>430.0</ele><time>2026-04-18T13:50:13Z</time></trkpt><trkpt lat="45.55726311813115" lon="11.069915456254208"><ele>430.0</ele><time>2026-04-18T13:50:14Z</time></trkpt><trkpt lat="45.55715410462268" lon="11.069911286655115"><ele>430.0</ele><time>2026-04-18T13:50:15Z</time></trkpt><trkpt lat="45.55704681345064" lon="11.06988740055622"><ele>430.0</ele><time>2026-04-18T13:50:16Z</time></trkpt><trkpt lat="45.55694137485533" lon="11.06983904687312"><ele>428.6</ele><time>2026-04-18T13:50:17Z</time></trkpt><trkpt lat="45.556838803741016" lon="11.069790561236157"><ele>427.2</ele><time>2026-04-18T13:50:18Z</time></trkpt><trkpt lat="45.55673829973384" lon="11.069757978328049"><ele>425.79999999999995</ele><time>2026-04-18T13:50:19Z</time></trkpt><trkpt lat="45.556632461532935" lon="11.069742830908154"><ele>424.4</ele><time>2026-04-18T13:50:20Z</time></trkpt><trkpt lat="45.556525226001" lon="11.069738927466162"><ele>423.0</ele><time>2026-04-18T13:50:21Z</time></trkpt><trkpt lat="45.55642962204043" lon="11.069753896098522"><ele>423.0</ele><time>2026-04-18T13:50:22Z</time></trkpt><trkpt lat="45.55632920556613" lon="11.069760365163653"><ele>423.0</ele><time>2026-04-18T13:50:23Z</time></trkpt><trkpt lat="45.556225217363036" lon="11.06976625852344"><ele>423.0</ele><time>2026-04-18T13:50:24Z</time></trkpt><trkpt lat="45.55612233317659" lon="11.069767693255105"><ele>423.0</ele><time>2026-04-18T13:50:25Z</time></trkpt><trkpt lat="45.55602240877973" lon="11.069764156225975"><ele>423.0</ele><time>2026-04-18T13:50:26Z</time></trkpt><trkpt lat="45.55592464550666" lon="11.069754644914635"><ele>421.0</ele><time>2026-04-18T13:50:27Z</time></trkpt><trkpt lat="45.555812316343996" lon="11.069734129122375"><ele>419.0</ele><time>2026-04-18T13:50:28Z</time></trkpt><trkpt lat="45.55570547799079" lon="11.069690082894518"><ele>417.0</ele><time>2026-04-18T13:50:29Z</time></trkpt><trkpt lat="45.555586683961444" lon="11.069615747725338"><ele>415.0</ele><time>2026-04-18T13:50:30Z</time></trkpt><trkpt lat="45.555476373832164" lon="11.069527190943687"><ele>415.0</ele><time>2026-04-18T13:50:31Z</time></trkpt><trkpt lat="45.55538094001021" lon="11.069460854109897"><ele>415.0</ele><time>2026-04-18T13:50:32Z</time></trkpt><trkpt lat="45.555279944686745" lon="11.069422332538505"><ele>415.0</ele><time>2026-04-18T13:50:33Z</time></trkpt><trkpt lat="45.55518125803253" lon="11.069397625551723"><ele>415.0</ele><time>2026-04-18T13:50:34Z</time></trkpt><trkpt lat="45.55508238872807" lon="11.069371708652728"><ele>415.0</ele><time>2026-04-18T13:50:35Z</time></trkpt><trkpt lat="45.55497162254456" lon="11.06933276278888"><ele>413.6</ele><time>2026-04-18T13:50:36Z</time></trkpt><trkpt lat="45.55486458663421" lon="11.069316836578784"><ele>412.2</ele><time>2026-04-18T13:50:37Z</time></trkpt><trkpt lat="45.55476487632672" lon="11.069299638508612"><ele>410.79999999999995</ele><time>2026-04-18T13:50:38Z</time></trkpt><trkpt lat="45.55466875610144" lon="11.06928774038077"><ele>409.4</ele><time>2026-04-18T13:50:39Z</time></trkpt><trkpt lat="45.55457988636635" lon="11.069303536650844"><ele>408.0</ele><time>2026-04-18T13:50:40Z</time></trkpt><trkpt lat="45.55450083540257" lon="11.069348329046134"><ele>407.59999999999997</ele><time>2026-04-18T13:50:41Z</time></trkpt><trkpt lat="45.554423894657155" lon="11.069434377742294"><ele>407.2</ele><time>2026-04-18T13:50:42Z</time></trkpt><trkpt lat="45.554349379573594" lon="11.069524075323155"><ele>406.8</ele><time>2026-04-18T13:50:43Z</time></trkpt><trkpt lat="45.55425575194966" lon="11.069565490177187"><ele>406.4</ele><time>2026-04-18T13:50:44Z</time></trkpt><trkpt lat="45.55415502391764" lon="11.069626306895252"><ele>406.0</ele><time>2026-04-18T13:50:45Z</time></trkpt><trkpt lat="45.55404304241298" lon="11.069700374603979"><ele>406.0</ele><time>2026-04-18T13:50:46Z</time></trkpt><trkpt lat="45.55391809245211" lon="11.069713814671257"><ele>406.0</ele><time>2026-04-18T13:50:47Z</time></trkpt><trkpt lat="45.55380941418658" lon="11.06975917549868"><ele>406.0</ele><time>2026-04-18T13:50:48Z</time></trkpt><trkpt lat="45.55368265724376" lon="11.069740561234397"><ele>406.0</ele><time>2026-04-18T13:50:49Z</time></trkpt><trkpt lat="45.553561174621855" lon="11.069726991867103"><ele>405.20000000000005</ele><time>2026-04-18T13:50:50Z</time></trkpt><trkpt lat="45.553457350768944" lon="11.069650410792033"><ele>404.40000000000003</ele><time>2026-04-18T13:50:51Z</time></trkpt><trkpt lat="45.55336228818531" lon="11.069585503634862"><ele>403.6</ele><time>2026-04-18T13:50:52Z</time></trkpt><trkpt lat="45.55327047509109" lon="11.069531708860483"><ele>402.8</ele><time>2026-04-18T13:50:53Z</time></trkpt><trkpt lat="45.553177929451394" lon="11.069479971514147"><ele>402.0</ele><time>2026-04-18T13:50:54Z</time></trkpt><trkpt lat="45.553078997445326" lon="11.0694315029139"><ele>402.0</ele><time>2026-04-18T13:50:55Z</time></trkpt><trkpt lat="45.552978803494945" lon="11.06937751701034"><ele>402.0</ele><time>2026-04-18T13:50:56Z</time></trkpt><trkpt lat="45.55288073048074" lon="11.069331802088872"><ele>402.0</ele><time>2026-04-18T13:50:57Z</time></trkpt><trkpt lat="45.55279012881418" lon="11.06932266834622"><ele>402.0</ele><time>2026-04-18T13:50:58Z</time></trkpt><trkpt lat="45.55269724971862" lon="11.069329739325266"><ele>402.0</ele><time>2026-04-18T13:50:59Z</time></trkpt><trkpt lat="45.55260604454719" lon="11.069345127265603"><ele>399.8</ele><time>2026-04-18T13:51:00Z</time></trkpt><trkpt lat="45.5525112424794" lon="11.069360680713112"><ele>397.6</ele><time>2026-04-18T13:51:01Z</time></trkpt><trkpt lat="45.55241606798902" lon="11.069374228845636"><ele>395.40000000000003</ele><time>2026-04-18T13:51:02Z</time></trkpt><trkpt lat="45.55232825337843" lon="11.06938672929571"><ele>393.20000000000005</ele><time>2026-04-18T13:51:03Z</time></trkpt><trkpt lat="45.55224330939315" lon="11.069397951648126"><ele>391.0</ele><time>2026-04-18T13:51:04Z</time></trkpt><trkpt lat="45.5521654701137" lon="11.069495465018766"><ele>391.0</ele><time>2026-04-18T13:51:05Z</time></trkpt><trkpt lat="45.5520807083762" lon="11.069622076142553"><ele>391.0</ele><time>2026-04-18T13:51:06Z</time></trkpt><trkpt lat="45.55198536376559" lon="11.069739057599536"><ele>391.0</ele><time>2026-04-18T13:51:07Z</time></trkpt><trkpt lat="45.55189302818407" lon="11.069839860076943"><ele>391.0</ele><time>2026-04-18T13:51:08Z</time></trkpt><trkpt lat="45.55179550333459" lon="11.069919425004407"><ele>390.4</ele><time>2026-04-18T13:51:09Z</time></trkpt><trkpt lat="45.55168428339683" lon="11.069947580262387"><ele>389.8</ele><time>2026-04-18T13:51:10Z</time></trkpt><trkpt lat="45.55157613648636" lon="11.069947815213167"><ele>389.2</ele><time>2026-04-18T13:51:11Z</time></trkpt><trkpt lat="45.551478649714014" lon="11.069929694207435"><ele>388.59999999999997</ele><time>2026-04-18T13:51:12Z</time></trkpt><trkpt lat="45.55137781941075" lon="11.069933880763388"><ele>388.0</ele><time>2026-04-18T13:51:13Z</time></trkpt><trkpt lat="45.55128475568926" lon="11.069974775836"><ele>387.59999999999997</ele><time>2026-04-18T13:51:14Z</time></trkpt><trkpt lat="45.55118626919602" lon="11.070026169593417"><ele>387.2</ele><time>2026-04-18T13:51:15Z</time></trkpt><trkpt lat="45.551082696917476" lon="11.07008820432269"><ele>386.8</ele><time>2026-04-18T13:51:16Z</time></trkpt><trkpt lat="45.550991774376705" lon="11.070178856082997"><ele>386.4</ele><time>2026-04-18T13:51:17Z</time></trkpt><trkpt lat="45.550915218695394" lon="11.070291841760579"><ele>386.0</ele><time>2026-04-18T13:51:18Z</time></trkpt><trkpt lat="45.55085120220454" lon="11.070423052999699"><ele>386.0</ele><time>2026-04-18T13:51:19Z</time></trkpt><trkpt lat="45.55078148987919" lon="11.070553010848746"><ele>386.0</ele><time>2026-04-18T13:51:20Z</time></trkpt><trkpt lat="45.5506768951586" lon="11.070648417208039"><ele>386.0</ele><time>2026-04-18T13:51:21Z</time></trkpt><trkpt lat="45.55054981958712" lon="11.070696183960244"><ele>386.0</ele><time>2026-04-18T13:51:22Z</time></trkpt><trkpt lat="45.550410438159204" lon="11.070750438174501"><ele>382.25</ele><time>2026-04-18T13:51:23Z</time></trkpt><trkpt lat="45.55027044844573" lon="11.070819837826395"><ele>378.5</ele><time>2026-04-18T13:51:24Z</time></trkpt><trkpt lat="45.55014652377725" lon="11.070899559944756"><ele>374.75</ele><time>2026-04-18T13:51:25Z</time></trkpt><trkpt lat="45.550022509419534" lon="11.070973472612005"><ele>371.0</ele><time>2026-04-18T13:51:26Z</time></trkpt><trkpt lat="45.54991253043119" lon="11.071049145224533"><ele>371.0</ele><time>2026-04-18T13:51:27Z</time></trkpt><trkpt lat="45.549798619312185" lon="11.071088037147428"><ele>371.0</ele><time>2026-04-18T13:51:28Z</time></trkpt><trkpt lat="45.54969407050135" lon="11.071084648482604"><ele>371.0</ele><time>2026-04-18T13:51:29Z</time></trkpt><trkpt lat="45.54959811192836" lon="11.071044400270518"><ele>371.0</ele><time>2026-04-18T13:51:30Z</time></trkpt><trkpt lat="45.549511430706055" lon="11.07098483227712"><ele>371.0</ele><time>2026-04-18T13:51:31Z</time></trkpt><trkpt lat="45.54942710247203" lon="11.070955585109871"><ele>370.5</ele><time>2026-04-18T13:51:32Z</time></trkpt><trkpt lat="45.549335064108355" lon="11.070963596652772"><ele>370.0</ele><time>2026-04-18T13:51:33Z</time></trkpt><trkpt lat="45.54923031262001" lon="11.071007507625788"><ele>369.5</ele><time>2026-04-18T13:51:34Z</time></trkpt><trkpt lat="45.54911208460455" lon="11.071078296163897"><ele>369.0</ele><time>2026-04-18T13:51:35Z</time></trkpt><trkpt lat="45.5489875714694" lon="11.07116352194835"><ele>369.0</ele><time>2026-04-18T13:51:36Z</time></trkpt><trkpt lat="45.54885993384595" lon="11.07122433545378"><ele>369.0</ele><time>2026-04-18T13:51:37Z</time></trkpt><trkpt lat="45.548737199500145" lon="11.071278486215997"><ele>369.0</ele><time>2026-04-18T13:51:38Z</time></trkpt><trkpt lat="45.548617017044606" lon="11.071326429941122"><ele>369.0</ele><time>2026-04-18T13:51:39Z</time></trkpt><trkpt lat="45.548495550485974" lon="11.071362789683404"><ele>368.6</ele><time>2026-04-18T13:51:40Z</time></trkpt><trkpt lat="45.54838028108905" lon="11.071390945870606"><ele>368.2</ele><time>2026-04-18T13:51:41Z</time></trkpt><trkpt lat="45.54826830435607" lon="11.07141048128998"><ele>367.8</ele><time>2026-04-18T13:51:42Z</time></trkpt><trkpt lat="45.54816347752514" lon="11.071404734572548"><ele>367.40000000000003</ele><time>2026-04-18T13:51:43Z</time></trkpt><trkpt lat="45.54806439244516" lon="11.07138063873748"><ele>367.0</ele><time>2026-04-18T13:51:44Z</time></trkpt><trkpt lat="45.54796830471852" lon="11.071373904466437"><ele>364.6</ele><time>2026-04-18T13:51:45Z</time></trkpt><trkpt lat="45.54787453632825" lon="11.071376293913671"><ele>362.20000000000005</ele><time>2026-04-18T13:51:46Z</time></trkpt><trkpt lat="45.54778591786796" lon="11.071417038071948"><ele>359.8</ele><time>2026-04-18T13:51:47Z</time></trkpt><trkpt lat="45.54770802950683" lon="11.071483069365682"><ele>357.4</ele><time>2026-04-18T13:51:48Z</time></trkpt><trkpt lat="45.54765463979972" lon="11.071586178403253"><ele>355.0</ele><time>2026-04-18T13:51:49Z</time></trkpt><trkpt lat="45.54762628184193" lon="11.071704201470013"><ele>355.0</ele><time>2026-04-18T13:51:50Z</time></trkpt><trkpt lat="45.54765757064923" lon="11.071855348765153"><ele>355.0</ele><time>2026-04-18T13:51:51Z</time></trkpt><trkpt lat="45.54765012146791" lon="11.071994233246219"><ele>355.0</ele><time>2026-04-18T13:51:52Z</time></trkpt><trkpt lat="45.54761498724212" lon="11.07213336415236"><ele>355.0</ele><time>2026-04-18T13:51:53Z</time></trkpt><trkpt lat="45.54754547503059" lon="11.072248687880698"><ele>355.0</ele><time>2026-04-18T13:51:54Z</time></trkpt><trkpt lat="45.547456812587086" lon="11.072337179988446"><ele>355.0</ele><time>2026-04-18T13:51:55Z</time></trkpt><trkpt lat="45.54735299805697" lon="11.072406920876624"><ele>355.0</ele><time>2026-04-18T13:51:56Z</time></trkpt><trkpt lat="45.54725538566735" lon="11.072459900894616"><ele>355.0</ele><time>2026-04-18T13:51:57Z</time></trkpt><trkpt lat="45.547149562548505" lon="11.07250842877418"><ele>355.0</ele><time>2026-04-18T13:51:58Z</time></trkpt><trkpt lat="45.547040105121106" lon="11.072542497655393"><ele>355.0</ele><time>2026-04-18T13:51:59Z</time></trkpt><trkpt lat="45.546927892034866" lon="11.072569584914646"><ele>353.5</ele><time>2026-04-18T13:52:00Z</time></trkpt><trkpt lat="45.54681292812756" lon="11.072588802288127"><ele>352.0</ele><time>2026-04-18T13:52:01Z</time></trkpt><trkpt lat="45.546695614529945" lon="11.072593977753211"><ele>350.5</ele><time>2026-04-18T13:52:02Z</time></trkpt><trkpt lat="45.546573942662754" lon="11.072594975022326"><ele>349.0</ele><time>2026-04-18T13:52:03Z</time></trkpt><trkpt lat="45.546440030156596" lon="11.072586971005109"><ele>349.0</ele><time>2026-04-18T13:52:04Z</time></trkpt><trkpt lat="45.5463108888697" lon="11.07258551236592"><ele>349.0</ele><time>2026-04-18T13:52:05Z</time></trkpt><trkpt lat="45.546182096211155" lon="11.072577295539997"><ele>349.0</ele><time>2026-04-18T13:52:06Z</time></trkpt><trkpt lat="45.54606455476153" lon="11.072564547448536"><ele>349.0</ele><time>2026-04-18T13:52:07Z</time></trkpt><trkpt lat="45.54594527463232" lon="11.072525523169745"><ele>347.75</ele><time>2026-04-18T13:52:08Z</time></trkpt><trkpt lat="45.545831469852644" lon="11.072472455725302"><ele>346.5</ele><time>2026-04-18T13:52:09Z</time></trkpt><trkpt lat="45.54574241210744" lon="11.072398246681143"><ele>345.25</ele><time>2026-04-18T13:52:10Z</time></trkpt><trkpt lat="45.54565306556701" lon="11.072288817798478"><ele>344.0</ele><time>2026-04-18T13:52:11Z</time></trkpt><trkpt lat="45.5455635268293" lon="11.072199334604118"><ele>344.0</ele><time>2026-04-18T13:52:12Z</time></trkpt><trkpt lat="45.54546997535444" lon="11.072115417770064"><ele>344.0</ele><time>2026-04-18T13:52:13Z</time></trkpt><trkpt lat="45.54537684781306" lon="11.07204072996259"><ele>344.0</ele><time>2026-04-18T13:52:14Z</time></trkpt><trkpt lat="45.545284509279526" lon="11.071985049579817"><ele>344.0</ele><time>2026-04-18T13:52:15Z</time></trkpt><trkpt lat="45.5451897235111" lon="11.071926761261773"><ele>344.0</ele><time>2026-04-18T13:52:16Z</time></trkpt><trkpt lat="45.54508478210586" lon="11.071884749429431"><ele>344.0</ele><time>2026-04-18T13:52:17Z</time></trkpt><trkpt lat="45.544979463653114" lon="11.071849135272785"><ele>344.0</ele><time>2026-04-18T13:52:18Z</time></trkpt><trkpt lat="45.544871539495254" lon="11.071822882114763"><ele>344.0</ele><time>2026-04-18T13:52:19Z</time></trkpt><trkpt lat="45.544762575668734" lon="11.071800693185118"><ele>344.0</ele><time>2026-04-18T13:52:20Z</time></trkpt><trkpt lat="45.54464996889453" lon="11.071789019164678"><ele>344.0</ele><time>2026-04-18T13:52:21Z</time></trkpt><trkpt lat="45.54454158755523" lon="11.0717947891688"><ele>342.4</ele><time>2026-04-18T13:52:22Z</time></trkpt><trkpt lat="45.544439112201644" lon="11.07181252680122"><ele>340.79999999999995</ele><time>2026-04-18T13:52:23Z</time></trkpt><trkpt lat="45.54434395427786" lon="11.07185047879881"><ele>339.20000000000005</ele><time>2026-04-18T13:52:24Z</time></trkpt><trkpt lat="45.5442592647355" lon="11.071909006483526"><ele>337.6</ele><time>2026-04-18T13:52:25Z</time></trkpt><trkpt lat="45.54417420314802" lon="11.071983044878218"><ele>336.0</ele><time>2026-04-18T13:52:26Z</time></trkpt><trkpt lat="45.54409053462637" lon="11.07207772586835"><ele>336.0</ele><time>2026-04-18T13:52:27Z</time></trkpt><trkpt lat="45.54401337081544" lon="11.072191110886607"><ele>336.0</ele><time>2026-04-18T13:52:28Z</time></trkpt><trkpt lat="45.543937638081466" lon="11.072313269680071"><ele>336.0</ele><time>2026-04-18T13:52:29Z</time></trkpt><trkpt lat="45.54385709418718" lon="11.072439008895358"><ele>336.0</ele><time>2026-04-18T13:52:30Z</time></trkpt><trkpt lat="45.54377266659575" lon="11.072548344422401"><ele>334.20000000000005</ele><time>2026-04-18T13:52:31Z</time></trkpt><trkpt lat="45.54368631245149" lon="11.072641759906956"><ele>332.40000000000003</ele><time>2026-04-18T13:52:32Z</time></trkpt><trkpt lat="45.54360461987141" lon="11.072730111026933"><ele>330.6</ele><time>2026-04-18T13:52:33Z</time></trkpt><trkpt lat="45.54351915442679" lon="11.072783567915621"><ele>328.8</ele><time>2026-04-18T13:52:34Z</time></trkpt><trkpt lat="45.54342049060107" lon="11.072808997420601"><ele>327.0</ele><time>2026-04-18T13:52:35Z</time></trkpt><trkpt lat="45.54332500805586" lon="11.072825914375652"><ele>327.0</ele><time>2026-04-18T13:52:36Z</time></trkpt><trkpt lat="45.54322548725296" lon="11.072830542510369"><ele>327.0</ele><time>2026-04-18T13:52:37Z</time></trkpt><trkpt lat="45.54312399598876" lon="11.072820999376809"><ele>327.0</ele><time>2026-04-18T13:52:38Z</time></trkpt><trkpt lat="45.543016167230974" lon="11.072802174787817"><ele>327.0</ele><time>2026-04-18T13:52:39Z</time></trkpt><trkpt lat="45.542912496896385" lon="11.07277010509182"><ele>327.0</ele><time>2026-04-18T13:52:40Z</time></trkpt><trkpt lat="45.54279951157882" lon="11.072728092541382"><ele>325.20000000000005</ele><time>2026-04-18T13:52:41Z</time></trkpt><trkpt lat="45.54269131752054" lon="11.072688460721382"><ele>323.40000000000003</ele><time>2026-04-18T13:52:42Z</time></trkpt><trkpt lat="45.54257939676441" lon="11.072635172039119"><ele>321.6</ele><time>2026-04-18T13:52:43Z</time></trkpt><trkpt lat="45.5424782882517" lon="11.072586642100658"><ele>319.8</ele><time>2026-04-18T13:52:44Z</time></trkpt><trkpt lat="45.54238466269056" lon="11.072549122115158"><ele>318.0</ele><time>2026-04-18T13:52:45Z</time></trkpt><trkpt lat="45.542295569356966" lon="11.072503346642856"><ele>318.0</ele><time>2026-04-18T13:52:46Z</time></trkpt><trkpt lat="45.54220509341513" lon="11.072471430676353"><ele>318.0</ele><time>2026-04-18T13:52:47Z</time></trkpt><trkpt lat="45.542104646877995" lon="11.072412087869667"><ele>318.0</ele><time>2026-04-18T13:52:48Z</time></trkpt><trkpt lat="45.54201181738982" lon="11.072455924999744"><ele>318.0</ele><time>2026-04-18T13:52:49Z</time></trkpt><trkpt lat="45.5419299133052" lon="11.072520439920453"><ele>318.0</ele><time>2026-04-18T13:52:50Z</time></trkpt><trkpt lat="45.54184191298384" lon="11.072582100620759"><ele>317.4</ele><time>2026-04-18T13:52:51Z</time></trkpt><trkpt lat="45.54173902687506" lon="11.072629734758912"><ele>316.8</ele><time>2026-04-18T13:52:52Z</time></trkpt><trkpt lat="45.54162463550515" lon="11.072657251079082"><ele>316.2</ele><time>2026-04-18T13:52:53Z</time></trkpt><trkpt lat="45.54150799345171" lon="11.072676791452404"><ele>315.6</ele><time>2026-04-18T13:52:54Z</time></trkpt><trkpt lat="45.541407094846726" lon="11.072668321347237"><ele>315.0</ele><time>2026-04-18T13:52:55Z</time></trkpt><trkpt lat="45.54131814839078" lon="11.072615479604782"><ele>315.0</ele><time>2026-04-18T13:52:56Z</time></trkpt><trkpt lat="45.5412227760482" lon="11.072541372715957"><ele>315.0</ele><time>2026-04-18T13:52:57Z</time></trkpt><trkpt lat="45.541140099005055" lon="11.072479962216716"><ele>315.0</ele><time>2026-04-18T13:52:58Z</time></trkpt><trkpt lat="45.541050600523576" lon="11.072435694220523"><ele>315.0</ele><time>2026-04-18T13:52:59Z</time></trkpt><trkpt lat="45.54096494662511" lon="11.072428949827941"><ele>315.0</ele><time>2026-04-18T13:53:00Z</time></trkpt><trkpt lat="45.54087652988284" lon="11.072421064915197"><ele>314.0</ele><time>2026-04-18T13:53:01Z</time></trkpt><trkpt lat="45.54078747721154" lon="11.07245005524942"><ele>313.0</ele><time>2026-04-18T13:53:02Z</time></trkpt><trkpt lat="45.54069282934419" lon="11.072502998240624"><ele>312.0</ele><time>2026-04-18T13:53:03Z</time></trkpt><trkpt lat="45.54061722424133" lon="11.07257890267658"><ele>311.0</ele><time>2026-04-18T13:53:04Z</time></trkpt><trkpt lat="45.54055302238733" lon="11.072656590282959"><ele>310.0</ele><time>2026-04-18T13:53:05Z</time></trkpt><trkpt lat="45.5404874866442" lon="11.072729082062661"><ele>310.0</ele><time>2026-04-18T13:53:06Z</time></trkpt><trkpt lat="45.5404114080512" lon="11.072759272429455"><ele>310.0</ele><time>2026-04-18T13:53:07Z</time></trkpt><trkpt lat="45.54030727584776" lon="11.072777702925602"><ele>310.0</ele><time>2026-04-18T13:53:08Z</time></trkpt><trkpt lat="45.54020431507965" lon="11.072748406054108"><ele>310.0</ele><time>2026-04-18T13:53:09Z</time></trkpt><trkpt lat="45.54010192688547" lon="11.07265603486773"><ele>310.0</ele><time>2026-04-18T13:53:10Z</time></trkpt><trkpt lat="45.540006809157425" lon="11.072541353513035"><ele>309.8</ele><time>2026-04-18T13:53:11Z</time></trkpt><trkpt lat="45.53992062525067" lon="11.072431440376771"><ele>309.6</ele><time>2026-04-18T13:53:12Z</time></trkpt><trkpt lat="45.53983639269377" lon="11.07230573736086"><ele>309.4</ele><time>2026-04-18T13:53:13Z</time></trkpt><trkpt lat="45.53975915887936" lon="11.072184563133566"><ele>309.2</ele><time>2026-04-18T13:53:14Z</time></trkpt><trkpt lat="45.53968611451" lon="11.07209711018029"><ele>309.0</ele><time>2026-04-18T13:53:15Z</time></trkpt><trkpt lat="45.53963315382289" lon="11.072002721876085"><ele>309.0</ele><time>2026-04-18T13:53:16Z</time></trkpt><trkpt lat="45.53957591840366" lon="11.071920906314146"><ele>309.0</ele><time>2026-04-18T13:53:17Z</time></trkpt><trkpt lat="45.53952394604825" lon="11.071839682497899"><ele>309.0</ele><time>2026-04-18T13:53:18Z</time></trkpt><trkpt lat="45.53945685836745" lon="11.071775126812659"><ele>309.0</ele><time>2026-04-18T13:53:19Z</time></trkpt><trkpt lat="45.539366053591166" lon="11.071723365535366"><ele>309.0</ele><time>2026-04-18T13:53:20Z</time></trkpt><trkpt lat="45.53928420070125" lon="11.07168191812677"><ele>309.0</ele><time>2026-04-18T13:53:21Z</time></trkpt><trkpt lat="45.53920443318504" lon="11.071643789555944"><ele>306.0</ele><time>2026-04-18T13:53:22Z</time></trkpt><trkpt lat="45.53911349167322" lon="11.071623651838369"><ele>303.0</ele><time>2026-04-18T13:53:23Z</time></trkpt><trkpt lat="45.53900560980772" lon="11.071635012443387"><ele>300.0</ele><time>2026-04-18T13:53:24Z</time></trkpt><trkpt lat="45.53887187420537" lon="11.071677311762802"><ele>297.0</ele><time>2026-04-18T13:53:25Z</time></trkpt><trkpt lat="45.53874860895907" lon="11.071742657261419"><ele>296.0</ele><time>2026-04-18T13:53:26Z</time></trkpt><trkpt lat="45.538632184769426" lon="11.071813431724962"><ele>295.0</ele><time>2026-04-18T13:53:27Z</time></trkpt><trkpt lat="45.538514943482916" lon="11.071866963141309"><ele>294.0</ele><time>2026-04-18T13:53:28Z</time></trkpt><trkpt lat="45.538420526714" lon="11.071915354849505"><ele>293.0</ele><time>2026-04-18T13:53:29Z</time></trkpt><trkpt lat="45.53831772178854" lon="11.071893835940596"><ele>293.0</ele><time>2026-04-18T13:53:30Z</time></trkpt><trkpt lat="45.53824336692489" lon="11.07187282429273"><ele>293.0</ele><time>2026-04-18T13:53:31Z</time></trkpt><trkpt lat="45.538158592752175" lon="11.071810679131438"><ele>293.0</ele><time>2026-04-18T13:53:32Z</time></trkpt><trkpt lat="45.538092479006124" lon="11.07171058189383"><ele>293.0</ele><time>2026-04-18T13:53:33Z</time></trkpt><trkpt lat="45.53799127442876" lon="11.071571236464058"><ele>293.0</ele><time>2026-04-18T13:53:34Z</time></trkpt><trkpt lat="45.53789787029416" lon="11.071438363698531"><ele>292.8</ele><time>2026-04-18T13:53:35Z</time></trkpt><trkpt lat="45.53781253060788" lon="11.071308141955766"><ele>292.6</ele><time>2026-04-18T13:53:36Z</time></trkpt><trkpt lat="45.53773148902839" lon="11.071193952718298"><ele>292.4</ele><time>2026-04-18T13:53:37Z</time></trkpt><trkpt lat="45.53764748643829" lon="11.071121214707667"><ele>292.2</ele><time>2026-04-18T13:53:38Z</time></trkpt><trkpt lat="45.537566919974225" lon="11.0710606739876"><ele>292.0</ele><time>2026-04-18T13:53:39Z</time></trkpt><trkpt lat="45.537476271146986" lon="11.071018737755361"><ele>292.0</ele><time>2026-04-18T13:53:40Z</time></trkpt><trkpt lat="45.53737008211514" lon="11.071003556533213"><ele>292.0</ele><time>2026-04-18T13:53:41Z</time></trkpt><trkpt lat="45.53723407555094" lon="11.070978510946633"><ele>292.0</ele><time>2026-04-18T13:53:42Z</time></trkpt><trkpt lat="45.53710996726607" lon="11.070986250083738"><ele>292.0</ele><time>2026-04-18T13:53:43Z</time></trkpt><trkpt lat="45.53699165013439" lon="11.070999437310995"><ele>289.6</ele><time>2026-04-18T13:53:44Z</time></trkpt><trkpt lat="45.536881214286524" lon="11.071006880135753"><ele>287.2</ele><time>2026-04-18T13:53:45Z</time></trkpt><trkpt lat="45.53678141284583" lon="11.071005727071247"><ele>284.8</ele><time>2026-04-18T13:53:46Z</time></trkpt><trkpt lat="45.53670604062186" lon="11.070961109699278"><ele>282.4</ele><time>2026-04-18T13:53:47Z</time></trkpt><trkpt lat="45.53662785618398" lon="11.070906316366687"><ele>280.0</ele><time>2026-04-18T13:53:48Z</time></trkpt><trkpt lat="45.536555565259064" lon="11.070824751130361"><ele>279.8</ele><time>2026-04-18T13:53:49Z</time></trkpt><trkpt lat="45.5364970892995" lon="11.070703953495359"><ele>279.6</ele><time>2026-04-18T13:53:50Z</time></trkpt><trkpt lat="45.53646295087311" lon="11.070566725967778"><ele>279.4</ele><time>2026-04-18T13:53:51Z</time></trkpt><trkpt lat="45.536427808479644" lon="11.070451081184173"><ele>279.2</ele><time>2026-04-18T13:53:52Z</time></trkpt><trkpt lat="45.53640311916329" lon="11.070318589332715"><ele>279.0</ele><time>2026-04-18T13:53:53Z</time></trkpt><trkpt lat="45.536367364217206" lon="11.070195905482693"><ele>279.0</ele><time>2026-04-18T13:53:54Z</time></trkpt><trkpt lat="45.53632229151376" lon="11.070070917938267"><ele>279.0</ele><time>2026-04-18T13:53:55Z</time></trkpt><trkpt lat="45.53625665051581" lon="11.069974763185684"><ele>279.0</ele><time>2026-04-18T13:53:56Z</time></trkpt><trkpt lat="45.53616645100108" lon="11.069909089494848"><ele>279.0</ele><time>2026-04-18T13:53:57Z</time></trkpt><trkpt lat="45.53608164895064" lon="11.069859242290677"><ele>279.0</ele><time>2026-04-18T13:53:58Z</time></trkpt><trkpt lat="45.53598702551141" lon="11.069820382741085"><ele>281.75</ele><time>2026-04-18T13:53:59Z</time></trkpt><trkpt lat="45.53587413147128" lon="11.06977784285182"><ele>284.5</ele><time>2026-04-18T13:54:00Z</time></trkpt><trkpt lat="45.535755076051444" lon="11.069759295283818"><ele>287.25</ele><time>2026-04-18T13:54:01Z</time></trkpt><trkpt lat="45.53562171628485" lon="11.069756887393977"><ele>290.0</ele><time>2026-04-18T13:54:02Z</time></trkpt><trkpt lat="45.535489271525755" lon="11.069762330679831"><ele>284.5</ele><time>2026-04-18T13:54:03Z</time></trkpt><trkpt lat="45.53536408789095" lon="11.069780216667208"><ele>279.0</ele><time>2026-04-18T13:54:04Z</time></trkpt><trkpt lat="45.53524632486921" lon="11.06978806942424"><ele>273.5</ele><time>2026-04-18T13:54:05Z</time></trkpt><trkpt lat="45.53514371163747" lon="11.069757887919046"><ele>268.0</ele><time>2026-04-18T13:54:06Z</time></trkpt><trkpt lat="45.53505201704909" lon="11.069678675703107"><ele>268.0</ele><time>2026-04-18T13:54:07Z</time></trkpt><trkpt lat="45.53496161729197" lon="11.069590450431116"><ele>268.0</ele><time>2026-04-18T13:54:08Z</time></trkpt><trkpt lat="45.53486712260268" lon="11.069482036500462"><ele>268.0</ele><time>2026-04-18T13:54:09Z</time></trkpt><trkpt lat="45.534783059010294" lon="11.069375806697987"><ele>268.0</ele><time>2026-04-18T13:54:10Z</time></trkpt><trkpt lat="45.53471055616052" lon="11.069273487633055"><ele>268.0</ele><time>2026-04-18T13:54:11Z</time></trkpt><trkpt lat="45.53464201805767" lon="11.069178463779535"><ele>269.0</ele><time>2026-04-18T13:54:12Z</time></trkpt><trkpt lat="45.534570507246606" lon="11.06908446684666"><ele>270.0</ele><time>2026-04-18T13:54:13Z</time></trkpt><trkpt lat="45.53450269643572" lon="11.068988836504754"><ele>271.0</ele><time>2026-04-18T13:54:14Z</time></trkpt><trkpt lat="45.53443491773428" lon="11.068894669107346"><ele>272.0</ele><time>2026-04-18T13:54:15Z</time></trkpt><trkpt lat="45.534369889251494" lon="11.068802328661697"><ele>273.0</ele><time>2026-04-18T13:54:16Z</time></trkpt><trkpt lat="45.53431668703306" lon="11.068729412477918"><ele>273.0</ele><time>2026-04-18T13:54:17Z</time></trkpt><trkpt lat="45.53426012194303" lon="11.068646759893584"><ele>273.0</ele><time>2026-04-18T13:54:18Z</time></trkpt><trkpt lat="45.53414330574562" lon="11.068585500619454"><ele>273.0</ele><time>2026-04-18T13:54:20Z</time></trkpt><trkpt lat="45.53406923967779" lon="11.068573161183739"><ele>273.0</ele><time>2026-04-18T13:54:21Z</time></trkpt><trkpt lat="45.53397636419464" lon="11.06861313659665"><ele>273.0</ele><time>2026-04-18T13:54:22Z</time></trkpt><trkpt lat="45.533885913856594" lon="11.068663132776582"><ele>273.0</ele><time>2026-04-18T13:54:23Z</time></trkpt><trkpt lat="45.53380044692917" lon="11.068725260534737"><ele>273.0</ele><time>2026-04-18T13:54:24Z</time></trkpt><trkpt lat="45.53372002727607" lon="11.068801079817046"><ele>273.0</ele><time>2026-04-18T13:54:25Z</time></trkpt><trkpt lat="45.533639454253354" lon="11.068886205876296"><ele>273.0</ele><time>2026-04-18T13:54:26Z</time></trkpt><trkpt lat="45.533560480855854" lon="11.06898633908576"><ele>273.0</ele><time>2026-04-18T13:54:27Z</time></trkpt><trkpt lat="45.533479811417685" lon="11.06909517141047"><ele>270.8</ele><time>2026-04-18T13:54:28Z</time></trkpt><trkpt lat="45.53339269157393" lon="11.069199665128856"><ele>268.6</ele><time>2026-04-18T13:54:29Z</time></trkpt><trkpt lat="45.53330375081881" lon="11.069285985947477"><ele>266.4</ele><time>2026-04-18T13:54:30Z</time></trkpt><trkpt lat="45.53322138450183" lon="11.069350958124613"><ele>264.2</ele><time>2026-04-18T13:54:31Z</time></trkpt><trkpt lat="45.533110178811306" lon="11.069380446979052"><ele>262.0</ele><time>2026-04-18T13:54:32Z</time></trkpt><trkpt lat="45.532993489519455" lon="11.069361054983645"><ele>259.75</ele><time>2026-04-18T13:54:33Z</time></trkpt><trkpt lat="45.53287718954068" lon="11.069340753870968"><ele>257.5</ele><time>2026-04-18T13:54:34Z</time></trkpt><trkpt lat="45.53274739820278" lon="11.069291498388525"><ele>255.25</ele><time>2026-04-18T13:54:35Z</time></trkpt><trkpt lat="45.532624734822924" lon="11.069268523382233"><ele>253.0</ele><time>2026-04-18T13:54:36Z</time></trkpt><trkpt lat="45.532505798154354" lon="11.069260408057007"><ele>253.0</ele><time>2026-04-18T13:54:37Z</time></trkpt><trkpt lat="45.53239617041927" lon="11.069272841670113"><ele>253.0</ele><time>2026-04-18T13:54:38Z</time></trkpt><trkpt lat="45.53231142296336" lon="11.069332921147579"><ele>253.0</ele><time>2026-04-18T13:54:39Z</time></trkpt><trkpt lat="45.53221871075985" lon="11.06939982605848"><ele>253.0</ele><time>2026-04-18T13:54:40Z</time></trkpt><trkpt lat="45.532133102160834" lon="11.06950457047259"><ele>253.0</ele><time>2026-04-18T13:54:41Z</time></trkpt><trkpt lat="45.53205010288208" lon="11.069614246597569"><ele>252.4</ele><time>2026-04-18T13:54:42Z</time></trkpt><trkpt lat="45.53197673399066" lon="11.069740284476135"><ele>251.8</ele><time>2026-04-18T13:54:43Z</time></trkpt><trkpt lat="45.53190770648309" lon="11.06986132460573"><ele>251.2</ele><time>2026-04-18T13:54:44Z</time></trkpt><trkpt lat="45.53185178303167" lon="11.069979269612928"><ele>250.6</ele><time>2026-04-18T13:54:45Z</time></trkpt><trkpt lat="45.53179555117735" lon="11.070093568138928"><ele>250.0</ele><time>2026-04-18T13:54:46Z</time></trkpt><trkpt lat="45.53172918475752" lon="11.070198628679826"><ele>250.0</ele><time>2026-04-18T13:54:47Z</time></trkpt><trkpt lat="45.53167274367162" lon="11.070300226790001"><ele>250.0</ele><time>2026-04-18T13:54:48Z</time></trkpt><trkpt lat="45.53160345894203" lon="11.07038353891336"><ele>250.0</ele><time>2026-04-18T13:54:49Z</time></trkpt><trkpt lat="45.531519404158736" lon="11.070423844840388"><ele>250.0</ele><time>2026-04-18T13:54:50Z</time></trkpt><trkpt lat="45.5314158594794" lon="11.070418174704429"><ele>250.0</ele><time>2026-04-18T13:54:51Z</time></trkpt><trkpt lat="45.53130952370287" lon="11.070396284726028"><ele>249.75</ele><time>2026-04-18T13:54:52Z</time></trkpt><trkpt lat="45.53120454050173" lon="11.07036984586965"><ele>249.5</ele><time>2026-04-18T13:54:53Z</time></trkpt><trkpt lat="45.53109384532218" lon="11.070346171098615"><ele>249.25</ele><time>2026-04-18T13:54:54Z</time></trkpt><trkpt lat="45.53097113411903" lon="11.070325164150061"><ele>249.0</ele><time>2026-04-18T13:54:55Z</time></trkpt><trkpt lat="45.53085328603355" lon="11.070295301269631"><ele>249.0</ele><time>2026-04-18T13:54:56Z</time></trkpt><trkpt lat="45.53072530317569" lon="11.070244103009122"><ele>249.0</ele><time>2026-04-18T13:54:57Z</time></trkpt><trkpt lat="45.53060304745822" lon="11.070168866560834"><ele>249.0</ele><time>2026-04-18T13:54:58Z</time></trkpt><trkpt lat="45.53048992148094" lon="11.070110321117594"><ele>249.0</ele><time>2026-04-18T13:54:59Z</time></trkpt><trkpt lat="45.530386592697866" lon="11.070014385265091"><ele>251.75</ele><time>2026-04-18T13:55:00Z</time></trkpt><trkpt lat="45.53029438312894" lon="11.069911019852732"><ele>254.5</ele><time>2026-04-18T13:55:01Z</time></trkpt><trkpt lat="45.53020851513879" lon="11.06984166047988"><ele>257.25</ele><time>2026-04-18T13:55:02Z</time></trkpt><trkpt lat="45.530102088173805" lon="11.06980798496839"><ele>260.0</ele><time>2026-04-18T13:55:03Z</time></trkpt><trkpt lat="45.529966348600645" lon="11.069794621842748"><ele>260.0</ele><time>2026-04-18T13:55:04Z</time></trkpt><trkpt lat="45.529837737333466" lon="11.069761873563506"><ele>260.0</ele><time>2026-04-18T13:55:05Z</time></trkpt><trkpt lat="45.52968397909573" lon="11.06974259431776"><ele>260.0</ele><time>2026-04-18T13:55:06Z</time></trkpt><trkpt lat="45.52953253638311" lon="11.069748739230683"><ele>260.0</ele><time>2026-04-18T13:55:07Z</time></trkpt><trkpt lat="45.52938745447391" lon="11.069746560409007"><ele>257.0</ele><time>2026-04-18T13:55:08Z</time></trkpt><trkpt lat="45.52925364449817" lon="11.069719104558388"><ele>254.0</ele><time>2026-04-18T13:55:09Z</time></trkpt><trkpt lat="45.52911579657252" lon="11.069669424542752"><ele>251.0</ele><time>2026-04-18T13:55:10Z</time></trkpt><trkpt lat="45.52899628371618" lon="11.069633194058728"><ele>248.0</ele><time>2026-04-18T13:55:11Z</time></trkpt><trkpt lat="45.52887877186461" lon="11.069615349620644"><ele>248.0</ele><time>2026-04-18T13:55:12Z</time></trkpt><trkpt lat="45.528750086793345" lon="11.069624306845807"><ele>248.0</ele><time>2026-04-18T13:55:13Z</time></trkpt><trkpt lat="45.52865134573501" lon="11.069627228922023"><ele>248.0</ele><time>2026-04-18T13:55:14Z</time></trkpt><trkpt lat="45.52854649861303" lon="11.069611496862333"><ele>248.0</ele><time>2026-04-18T13:55:15Z</time></trkpt><trkpt lat="45.528449917612384" lon="11.06961443357238"><ele>248.0</ele><time>2026-04-18T13:55:16Z</time></trkpt><trkpt lat="45.52833545955909" lon="11.069649980603746"><ele>248.25</ele><time>2026-04-18T13:55:17Z</time></trkpt><trkpt lat="45.528209666396066" lon="11.069713460636311"><ele>248.5</ele><time>2026-04-18T13:55:18Z</time></trkpt><trkpt lat="45.528064836921295" lon="11.069765356187487"><ele>248.75</ele><time>2026-04-18T13:55:19Z</time></trkpt><trkpt lat="45.527929956105645" lon="11.069821844618547"><ele>249.0</ele><time>2026-04-18T13:55:20Z</time></trkpt><trkpt lat="45.52777815119513" lon="11.06988044028851"><ele>246.0</ele><time>2026-04-18T13:55:21Z</time></trkpt><trkpt lat="45.52764654202504" lon="11.069951119231774"><ele>243.0</ele><time>2026-04-18T13:55:22Z</time></trkpt><trkpt lat="45.52750925446129" lon="11.069994822973694"><ele>240.0</ele><time>2026-04-18T13:55:23Z</time></trkpt><trkpt lat="45.527385724769346" lon="11.070046821249445"><ele>237.0</ele><time>2026-04-18T13:55:24Z</time></trkpt><trkpt lat="45.527263337588515" lon="11.070071885505083"><ele>237.0</ele><time>2026-04-18T13:55:25Z</time></trkpt><trkpt lat="45.5271473117924" lon="11.070041776391832"><ele>237.0</ele><time>2026-04-18T13:55:26Z</time></trkpt><trkpt lat="45.52703613995791" lon="11.06999383929897"><ele>237.0</ele><time>2026-04-18T13:55:27Z</time></trkpt><trkpt lat="45.52692651886042" lon="11.069931912446696"><ele>237.0</ele><time>2026-04-18T13:55:28Z</time></trkpt><trkpt lat="45.526791174106236" lon="11.069844348316908"><ele>237.5</ele><time>2026-04-18T13:55:29Z</time></trkpt><trkpt lat="45.52667793607548" lon="11.069747918494976"><ele>238.0</ele><time>2026-04-18T13:55:30Z</time></trkpt><trkpt lat="45.52655291651742" lon="11.06966317512626"><ele>238.5</ele><time>2026-04-18T13:55:31Z</time></trkpt><trkpt lat="45.5264617171554" lon="11.069577417386489"><ele>239.0</ele><time>2026-04-18T13:55:32Z</time></trkpt><trkpt lat="45.52638330809963" lon="11.06954274030759"><ele>239.0</ele><time>2026-04-18T13:55:33Z</time></trkpt><trkpt lat="45.52629519429744" lon="11.069497570092212"><ele>239.0</ele><time>2026-04-18T13:55:34Z</time></trkpt><trkpt lat="45.52618646366483" lon="11.069460989760259"><ele>239.0</ele><time>2026-04-18T13:55:35Z</time></trkpt><trkpt lat="45.52607122317488" lon="11.069493488531227"><ele>239.0</ele><time>2026-04-18T13:55:36Z</time></trkpt><trkpt lat="45.52593563980886" lon="11.069501851593685"><ele>236.75</ele><time>2026-04-18T13:55:37Z</time></trkpt><trkpt lat="45.5257915200654" lon="11.069528181902964"><ele>234.5</ele><time>2026-04-18T13:55:38Z</time></trkpt><trkpt lat="45.525652059616576" lon="11.069555900982728"><ele>232.25</ele><time>2026-04-18T13:55:39Z</time></trkpt><trkpt lat="45.525511471901076" lon="11.069577391933825"><ele>230.0</ele><time>2026-04-18T13:55:40Z</time></trkpt><trkpt lat="45.52536648751366" lon="11.06957936268743"><ele>228.5</ele><time>2026-04-18T13:55:41Z</time></trkpt><trkpt lat="45.52522162506522" lon="11.069551124642258"><ele>227.0</ele><time>2026-04-18T13:55:42Z</time></trkpt><trkpt lat="45.52510903719254" lon="11.069497363075243"><ele>225.5</ele><time>2026-04-18T13:55:43Z</time></trkpt><trkpt lat="45.525015439532204" lon="11.069427237241706"><ele>224.0</ele><time>2026-04-18T13:55:44Z</time></trkpt><trkpt lat="45.52491682902273" lon="11.069392429904337"><ele>224.0</ele><time>2026-04-18T13:55:45Z</time></trkpt><trkpt lat="45.52481135068258" lon="11.069329304431196"><ele>224.0</ele><time>2026-04-18T13:55:46Z</time></trkpt><trkpt lat="45.52468460519803" lon="11.069314806667059"><ele>224.0</ele><time>2026-04-18T13:55:47Z</time></trkpt><trkpt lat="45.52457619979213" lon="11.069362105112695"><ele>224.0</ele><time>2026-04-18T13:55:48Z</time></trkpt><trkpt lat="45.52447044197769" lon="11.069459040141323"><ele>223.0</ele><time>2026-04-18T13:55:49Z</time></trkpt><trkpt lat="45.52435824677803" lon="11.069540861161741"><ele>222.0</ele><time>2026-04-18T13:55:50Z</time></trkpt><trkpt lat="45.52424088719252" lon="11.069594022619833"><ele>221.0</ele><time>2026-04-18T13:55:51Z</time></trkpt><trkpt lat="45.524134151366134" lon="11.069696545206135"><ele>220.0</ele><time>2026-04-18T13:55:52Z</time></trkpt><trkpt lat="45.52404115424101" lon="11.069800368674569"><ele>220.0</ele><time>2026-04-18T13:55:53Z</time></trkpt><trkpt lat="45.52393742434048" lon="11.069842496350375"><ele>220.0</ele><time>2026-04-18T13:55:54Z</time></trkpt><trkpt lat="45.52383689167057" lon="11.069811971454001"><ele>220.0</ele><time>2026-04-18T13:55:55Z</time></trkpt><trkpt lat="45.52374911739604" lon="11.069713642281139"><ele>220.0</ele><time>2026-04-18T13:55:56Z</time></trkpt><trkpt lat="45.52367103243709" lon="11.069599136609284"><ele>220.0</ele><time>2026-04-18T13:55:57Z</time></trkpt><trkpt lat="45.52358950016631" lon="11.069519151526618"><ele>219.0</ele><time>2026-04-18T13:55:58Z</time></trkpt><trkpt lat="45.5234948623604" lon="11.06944165249633"><ele>218.0</ele><time>2026-04-18T13:55:59Z</time></trkpt><trkpt lat="45.52340335226259" lon="11.06936515905715"><ele>217.0</ele><time>2026-04-18T13:56:00Z</time></trkpt><trkpt lat="45.52330851381309" lon="11.069329794030216"><ele>216.0</ele><time>2026-04-18T13:56:01Z</time></trkpt><trkpt lat="45.52319043477857" lon="11.069320138665878"><ele>215.0</ele><time>2026-04-18T13:56:02Z</time></trkpt><trkpt lat="45.52308656897082" lon="11.069334182803455"><ele>215.0</ele><time>2026-04-18T13:56:03Z</time></trkpt><trkpt lat="45.52300111901505" lon="11.069366919379283"><ele>215.0</ele><time>2026-04-18T13:56:04Z</time></trkpt><trkpt lat="45.522909257792975" lon="11.06941083046889"><ele>215.0</ele><time>2026-04-18T13:56:05Z</time></trkpt><trkpt lat="45.52281583732179" lon="11.06949238838137"><ele>215.0</ele><time>2026-04-18T13:56:06Z</time></trkpt><trkpt lat="45.52273443551452" lon="11.06960709302073"><ele>215.0</ele><time>2026-04-18T13:56:07Z</time></trkpt><trkpt lat="45.52264016072164" lon="11.06971191647026"><ele>215.2</ele><time>2026-04-18T13:56:08Z</time></trkpt><trkpt lat="45.52255959149281" lon="11.069807911971921"><ele>215.4</ele><time>2026-04-18T13:56:09Z</time></trkpt><trkpt lat="45.522473699091606" lon="11.069886813406287"><ele>215.60000000000002</ele><time>2026-04-18T13:56:10Z</time></trkpt><trkpt lat="45.52238954597107" lon="11.069945844948663"><ele>215.8</ele><time>2026-04-18T13:56:11Z</time></trkpt><trkpt lat="45.522304105138815" lon="11.069987248891104"><ele>216.0</ele><time>2026-04-18T13:56:12Z</time></trkpt><trkpt lat="45.52222036907868" lon="11.070005250709281"><ele>214.4</ele><time>2026-04-18T13:56:13Z</time></trkpt><trkpt lat="45.522134327194415" lon="11.069983919627475"><ele>212.8</ele><time>2026-04-18T13:56:14Z</time></trkpt><trkpt lat="45.52205043782223" lon="11.069944809048122"><ele>211.20000000000002</ele><time>2026-04-18T13:56:15Z</time></trkpt><trkpt lat="45.52195541808848" lon="11.069906178857114"><ele>209.60000000000002</ele><time>2026-04-18T13:56:16Z</time></trkpt><trkpt lat="45.52186497753698" lon="11.069906301758945"><ele>208.0</ele><time>2026-04-18T13:56:17Z</time></trkpt><trkpt lat="45.52177074974446" lon="11.069917883193167"><ele>212.60000000000002</ele><time>2026-04-18T13:56:18Z</time></trkpt><trkpt lat="45.521665362332264" lon="11.069921565501481"><ele>217.20000000000002</ele><time>2026-04-18T13:56:19Z</time></trkpt><trkpt lat="45.521563549338666" lon="11.069890240812756"><ele>221.8</ele><time>2026-04-18T13:56:20Z</time></trkpt><trkpt lat="45.52145855482434" lon="11.06983611414905"><ele>226.4</ele><time>2026-04-18T13:56:21Z</time></trkpt><trkpt lat="45.52135204211762" lon="11.069780990546676"><ele>231.0</ele><time>2026-04-18T13:56:22Z</time></trkpt><trkpt lat="45.5212491194209" lon="11.069716540984087"><ele>227.75</ele><time>2026-04-18T13:56:23Z</time></trkpt><trkpt lat="45.521139027192966" lon="11.069659610505004"><ele>224.5</ele><time>2026-04-18T13:56:24Z</time></trkpt><trkpt lat="45.521027402030974" lon="11.069607744996183"><ele>221.25</ele><time>2026-04-18T13:56:25Z</time></trkpt><trkpt lat="45.52091843924871" lon="11.069572107486449"><ele>218.0</ele><time>2026-04-18T13:56:26Z</time></trkpt><trkpt lat="45.52081610934208" lon="11.069539601582187"><ele>218.0</ele><time>2026-04-18T13:56:27Z</time></trkpt><trkpt lat="45.52072697884413" lon="11.06947526685548"><ele>218.0</ele><time>2026-04-18T13:56:28Z</time></trkpt><trkpt lat="45.52064703336692" lon="11.069411574538526"><ele>218.0</ele><time>2026-04-18T13:56:29Z</time></trkpt><trkpt lat="45.52057698634875" lon="11.06934039486961"><ele>218.0</ele><time>2026-04-18T13:56:30Z</time></trkpt><trkpt lat="45.520519011381644" lon="11.06923013846143"><ele>218.0</ele><time>2026-04-18T13:56:31Z</time></trkpt><trkpt lat="45.52047578233541" lon="11.069126904177164"><ele>218.00000000000003</ele><time>2026-04-18T13:56:32Z</time></trkpt><trkpt lat="45.52040807535924" lon="11.06912936242373"><ele>218.0</ele><time>2026-04-18T13:57:02Z</time></trkpt><trkpt lat="45.52035255105693" lon="11.069068637427554"><ele>218.0</ele><time>2026-04-18T13:59:20Z</time></trkpt><trkpt lat="45.520281055235515" lon="11.069018534806592"><ele>218.0</ele><time>2026-04-18T13:59:23Z</time></trkpt><trkpt lat="45.520206684507635" lon="11.068972877984738"><ele>218.00000000000003</ele><time>2026-04-18T13:59:26Z</time></trkpt><trkpt lat="45.52014510095838" lon="11.068930592841332"><ele>218.0</ele><time>2026-04-18T13:59:28Z</time></trkpt><trkpt lat="45.52004540434093" lon="11.068879026211137"><ele>219.00000000000003</ele><time>2026-04-18T13:59:30Z</time></trkpt><trkpt lat="45.5199815060419" lon="11.068851904408936"><ele>220.0</ele><time>2026-04-18T13:59:31Z</time></trkpt><trkpt lat="45.5199022866297" lon="11.068818983354076"><ele>221.0</ele><time>2026-04-18T13:59:32Z</time></trkpt><trkpt lat="45.51982057649445" lon="11.068778873953423"><ele>222.0</ele><time>2026-04-18T13:59:33Z</time></trkpt><trkpt lat="45.51972771980302" lon="11.068744678033179"><ele>223.00000000000003</ele><time>2026-04-18T13:59:34Z</time></trkpt><trkpt lat="45.51963652565552" lon="11.068697148686356"><ele>224.0</ele><time>2026-04-18T13:59:35Z</time></trkpt><trkpt lat="45.51953975392797" lon="11.068653585446643"><ele>220.6</ele><time>2026-04-18T13:59:36Z</time></trkpt><trkpt lat="45.519457394836564" lon="11.06859666994135"><ele>217.2</ele><time>2026-04-18T13:59:37Z</time></trkpt><trkpt lat="45.519360276814766" lon="11.068536515348768"><ele>213.79999999999998</ele><time>2026-04-18T13:59:38Z</time></trkpt><trkpt lat="45.51926666420226" lon="11.068450045448847"><ele>210.39999999999998</ele><time>2026-04-18T13:59:39Z</time></trkpt><trkpt lat="45.5191760954719" lon="11.06836768439068"><ele>207.0</ele><time>2026-04-18T13:59:40Z</time></trkpt><trkpt lat="45.51907812721026" lon="11.068287960602838"><ele>208.5</ele><time>2026-04-18T13:59:41Z</time></trkpt><trkpt lat="45.51897952728809" lon="11.068211005938311"><ele>210.0</ele><time>2026-04-18T13:59:42Z</time></trkpt><trkpt lat="45.51888799421706" lon="11.068125812930083"><ele>211.5</ele><time>2026-04-18T13:59:43Z</time></trkpt><trkpt lat="45.51879495448732" lon="11.068043751471256"><ele>213.0</ele><time>2026-04-18T13:59:44Z</time></trkpt><trkpt lat="45.51868676719843" lon="11.067972450034146"><ele>213.0</ele><time>2026-04-18T13:59:45Z</time></trkpt><trkpt lat="45.51858228802175" lon="11.067930056310477"><ele>213.0</ele><time>2026-04-18T13:59:46Z</time></trkpt><trkpt lat="45.518485831272045" lon="11.0678745225707"><ele>213.0</ele><time>2026-04-18T13:59:47Z</time></trkpt><trkpt lat="45.518378279482036" lon="11.067828317336842"><ele>213.0</ele><time>2026-04-18T13:59:48Z</time></trkpt><trkpt lat="45.51827581571142" lon="11.06779184779429"><ele>213.0</ele><time>2026-04-18T13:59:49Z</time></trkpt><trkpt lat="45.51818260082421" lon="11.067766123669566"><ele>213.0</ele><time>2026-04-18T13:59:50Z</time></trkpt><trkpt lat="45.51808167722956" lon="11.067743310479973"><ele>213.0</ele><time>2026-04-18T13:59:51Z</time></trkpt><trkpt lat="45.51798783151248" lon="11.067728655832438"><ele>213.0</ele><time>2026-04-18T13:59:52Z</time></trkpt><trkpt lat="45.51789671039385" lon="11.067709745836012"><ele>213.0</ele><time>2026-04-18T13:59:53Z</time></trkpt><trkpt lat="45.51780909198872" lon="11.067696822796021"><ele>213.0</ele><time>2026-04-18T13:59:54Z</time></trkpt><trkpt lat="45.51771194678191" lon="11.067676257500988"><ele>215.2</ele><time>2026-04-18T13:59:55Z</time></trkpt><trkpt lat="45.517618764313916" lon="11.067645342965173"><ele>217.4</ele><time>2026-04-18T13:59:56Z</time></trkpt><trkpt lat="45.51752761309367" lon="11.0675913621888"><ele>219.59999999999997</ele><time>2026-04-18T13:59:57Z</time></trkpt><trkpt lat="45.51743286379928" lon="11.067537439855784"><ele>221.79999999999998</ele><time>2026-04-18T13:59:58Z</time></trkpt><trkpt lat="45.51733252281921" lon="11.067477558099847"><ele>224.0</ele><time>2026-04-18T13:59:59Z</time></trkpt><trkpt lat="45.51723711191339" lon="11.067411773784935"><ele>224.0</ele><time>2026-04-18T14:00:00Z</time></trkpt><trkpt lat="45.517140412639456" lon="11.06733632076539"><ele>223.99999999999997</ele><time>2026-04-18T14:00:01Z</time></trkpt><trkpt lat="45.51704677122509" lon="11.067260718460185"><ele>223.99999999999997</ele><time>2026-04-18T14:00:02Z</time></trkpt><trkpt lat="45.5169527390335" lon="11.06718864377696"><ele>224.0</ele><time>2026-04-18T14:00:03Z</time></trkpt><trkpt lat="45.51685931200962" lon="11.067121960975904"><ele>224.0</ele><time>2026-04-18T14:00:04Z</time></trkpt><trkpt lat="45.516765356172975" lon="11.067071691420377"><ele>219.6</ele><time>2026-04-18T14:00:05Z</time></trkpt><trkpt lat="45.51666487905419" lon="11.06703263241711"><ele>215.2</ele><time>2026-04-18T14:00:06Z</time></trkpt><trkpt lat="45.51656261412292" lon="11.067006986029178"><ele>210.79999999999998</ele><time>2026-04-18T14:00:07Z</time></trkpt><trkpt lat="45.51646309956398" lon="11.066987013627259"><ele>206.39999999999998</ele><time>2026-04-18T14:00:08Z</time></trkpt><trkpt lat="45.51637295909359" lon="11.066955522251723"><ele>202.0</ele><time>2026-04-18T14:00:09Z</time></trkpt><trkpt lat="45.5162754346255" lon="11.066934574780305"><ele>200.2</ele><time>2026-04-18T14:00:10Z</time></trkpt><trkpt lat="45.51616937171505" lon="11.066907045087216"><ele>198.39999999999998</ele><time>2026-04-18T14:00:11Z</time></trkpt><trkpt lat="45.51606747950822" lon="11.066864543155248"><ele>196.60000000000002</ele><time>2026-04-18T14:00:12Z</time></trkpt><trkpt lat="45.51594782691338" lon="11.066827715496384"><ele>194.8</ele><time>2026-04-18T14:00:13Z</time></trkpt><trkpt lat="45.5158403140542" lon="11.066813324378684"><ele>193.0</ele><time>2026-04-18T14:00:14Z</time></trkpt><trkpt lat="45.515734512788825" lon="11.066798549834322"><ele>193.0</ele><time>2026-04-18T14:00:15Z</time></trkpt><trkpt lat="45.51563140499086" lon="11.066788996076093"><ele>193.0</ele><time>2026-04-18T14:00:16Z</time></trkpt><trkpt lat="45.51553733467552" lon="11.066784271881849"><ele>193.0</ele><time>2026-04-18T14:00:17Z</time></trkpt><trkpt lat="45.515447268127666" lon="11.066792751036685"><ele>193.0</ele><time>2026-04-18T14:00:18Z</time></trkpt><trkpt lat="45.51536041267429" lon="11.066795405475428"><ele>193.0</ele><time>2026-04-18T14:00:19Z</time></trkpt><trkpt lat="45.51527467430443" lon="11.0667870345705"><ele>191.99999999999997</ele><time>2026-04-18T14:00:20Z</time></trkpt><trkpt lat="45.515195658242774" lon="11.06678532047445"><ele>191.0</ele><time>2026-04-18T14:00:21Z</time></trkpt><trkpt lat="45.515106495434146" lon="11.066797491055999"><ele>190.0</ele><time>2026-04-18T14:00:22Z</time></trkpt><trkpt lat="45.51501884706092" lon="11.066804004359478"><ele>189.0</ele><time>2026-04-18T14:00:23Z</time></trkpt><trkpt lat="45.514932377735214" lon="11.066834410256572"><ele>188.0</ele><time>2026-04-18T14:00:24Z</time></trkpt><trkpt lat="45.51484230914878" lon="11.066864239794569"><ele>187.0</ele><time>2026-04-18T14:00:25Z</time></trkpt><trkpt lat="45.514753549580924" lon="11.066893044395421"><ele>187.0</ele><time>2026-04-18T14:00:26Z</time></trkpt><trkpt lat="45.51465421464696" lon="11.066920040000234"><ele>187.0</ele><time>2026-04-18T14:00:27Z</time></trkpt><trkpt lat="45.51455622628915" lon="11.066946592072544"><ele>187.0</ele><time>2026-04-18T14:00:28Z</time></trkpt><trkpt lat="45.51444953851752" lon="11.066969618436946"><ele>187.0</ele><time>2026-04-18T14:00:29Z</time></trkpt><trkpt lat="45.5143391652879" lon="11.066990957097168"><ele>187.0</ele><time>2026-04-18T14:00:30Z</time></trkpt><trkpt lat="45.5142290287829" lon="11.067014040875398"><ele>185.2</ele><time>2026-04-18T14:00:31Z</time></trkpt><trkpt lat="45.51412498017288" lon="11.067030903625229"><ele>183.39999999999998</ele><time>2026-04-18T14:00:32Z</time></trkpt><trkpt lat="45.514026882948556" lon="11.067051320527266"><ele>181.60000000000002</ele><time>2026-04-18T14:00:33Z</time></trkpt><trkpt lat="45.51393040832595" lon="11.067068835793672"><ele>179.8</ele><time>2026-04-18T14:00:34Z</time></trkpt><trkpt lat="45.51383720085397" lon="11.067082386471794"><ele>178.0</ele><time>2026-04-18T14:00:35Z</time></trkpt><trkpt lat="45.51374376333385" lon="11.06709340412317"><ele>177.2</ele><time>2026-04-18T14:00:36Z</time></trkpt><trkpt lat="45.513650031519475" lon="11.067104263882179"><ele>176.4</ele><time>2026-04-18T14:00:37Z</time></trkpt><trkpt lat="45.513553122902096" lon="11.06711501392657"><ele>175.6</ele><time>2026-04-18T14:00:38Z</time></trkpt><trkpt lat="45.513457561465295" lon="11.06710839547918"><ele>174.79999999999998</ele><time>2026-04-18T14:00:39Z</time></trkpt><trkpt lat="45.51336098114787" lon="11.06708538588032"><ele>174.0</ele><time>2026-04-18T14:00:40Z</time></trkpt><trkpt lat="45.51326326774721" lon="11.06704481135428"><ele>174.0</ele><time>2026-04-18T14:00:41Z</time></trkpt><trkpt lat="45.51316684774449" lon="11.067000586635212"><ele>174.0</ele><time>2026-04-18T14:00:42Z</time></trkpt><trkpt lat="45.51306841913212" lon="11.066952636373387"><ele>174.0</ele><time>2026-04-18T14:00:43Z</time></trkpt><trkpt lat="45.51297986597358" lon="11.066899866947724"><ele>174.0</ele><time>2026-04-18T14:00:44Z</time></trkpt><trkpt lat="45.51289925752522" lon="11.066837722089877"><ele>174.0</ele><time>2026-04-18T14:00:45Z</time></trkpt><trkpt lat="45.51282623039063" lon="11.066767515958619"><ele>173.39999999999998</ele><time>2026-04-18T14:00:46Z</time></trkpt><trkpt lat="45.51275350900349" lon="11.066692458585342"><ele>172.8</ele><time>2026-04-18T14:00:47Z</time></trkpt><trkpt lat="45.512678954619844" lon="11.066613188261885"><ele>172.2</ele><time>2026-04-18T14:00:48Z</time></trkpt><trkpt lat="45.51260292860596" lon="11.066528747147476"><ele>171.60000000000002</ele><time>2026-04-18T14:00:49Z</time></trkpt><trkpt lat="45.512528201779034" lon="11.066439786080135"><ele>171.0</ele><time>2026-04-18T14:00:50Z</time></trkpt><trkpt lat="45.512458558008575" lon="11.0663410888313"><ele>172.0</ele><time>2026-04-18T14:00:51Z</time></trkpt><trkpt lat="45.51239794612814" lon="11.066241073658833"><ele>173.0</ele><time>2026-04-18T14:00:52Z</time></trkpt><trkpt lat="45.512349190675394" lon="11.066134746467641"><ele>174.0</ele><time>2026-04-18T14:00:53Z</time></trkpt><trkpt lat="45.51230665800987" lon="11.066025989693118"><ele>175.0</ele><time>2026-04-18T14:00:54Z</time></trkpt><trkpt lat="45.512276189793134" lon="11.065917236126856"><ele>176.0</ele><time>2026-04-18T14:00:55Z</time></trkpt><trkpt lat="45.51224660565667" lon="11.065822784354753"><ele>177.0</ele><time>2026-04-18T14:00:56Z</time></trkpt><trkpt lat="45.51221714155709" lon="11.065721111252"><ele>179.0</ele><time>2026-04-18T14:00:57Z</time></trkpt><trkpt lat="45.51214790141538" lon="11.065551884155415"><ele>181.0</ele><time>2026-04-18T14:00:59Z</time></trkpt><trkpt lat="45.512106296621326" lon="11.06548290137076"><ele>183.0</ele><time>2026-04-18T14:01:00Z</time></trkpt><trkpt lat="45.51205482902641" lon="11.065409687123127"><ele>185.0</ele><time>2026-04-18T14:01:01Z</time></trkpt><trkpt lat="45.51199678831307" lon="11.065355480019855"><ele>187.0</ele><time>2026-04-18T14:01:02Z</time></trkpt><trkpt lat="45.511927830833216" lon="11.065326554458684"><ele>189.0</ele><time>2026-04-18T14:01:03Z</time></trkpt><trkpt lat="45.51185432951653" lon="11.065317601574332"><ele>189.0</ele><time>2026-04-18T14:01:04Z</time></trkpt><trkpt lat="45.51177811566829" lon="11.065315481439717"><ele>189.0</ele><time>2026-04-18T14:01:05Z</time></trkpt><trkpt lat="45.511708162996584" lon="11.065313170076498"><ele>189.0</ele><time>2026-04-18T14:01:06Z</time></trkpt><trkpt lat="45.51163779874403" lon="11.065312981611738"><ele>189.0</ele><time>2026-04-18T14:01:07Z</time></trkpt><trkpt lat="45.51156886132223" lon="11.065306027442162"><ele>189.0</ele><time>2026-04-18T14:01:08Z</time></trkpt><trkpt lat="45.51149782443411" lon="11.065298963872891"><ele>189.0</ele><time>2026-04-18T14:01:09Z</time></trkpt><trkpt lat="45.511432039829586" lon="11.0652921820774"><ele>189.0</ele><time>2026-04-18T14:01:10Z</time></trkpt><trkpt lat="45.51136810551213" lon="11.065284295417865"><ele>189.0</ele><time>2026-04-18T14:01:11Z</time></trkpt><trkpt lat="45.511242763495545" lon="11.065264816173643"><ele>189.0</ele><time>2026-04-18T14:01:13Z</time></trkpt><trkpt lat="45.51111694757597" lon="11.06526046384812"><ele>189.0</ele><time>2026-04-18T14:01:15Z</time></trkpt><trkpt lat="45.511047627780016" lon="11.065265357331084"><ele>189.0</ele><time>2026-04-18T14:01:16Z</time></trkpt><trkpt lat="45.5109806840675" lon="11.065264419626669"><ele>189.0</ele><time>2026-04-18T14:01:17Z</time></trkpt><trkpt lat="45.51085028552723" lon="11.065260495234456"><ele>187.33333333333334</ele><time>2026-04-18T14:01:19Z</time></trkpt><trkpt lat="45.510775744641414" lon="11.065268186992391"><ele>185.66666666666666</ele><time>2026-04-18T14:01:20Z</time></trkpt><trkpt lat="45.51065938497747" lon="11.065216436880199"><ele>184.0</ele><time>2026-04-18T14:01:22Z</time></trkpt><trkpt lat="45.51059097367908" lon="11.0652162949945"><ele>182.33333333333331</ele><time>2026-04-18T14:01:23Z</time></trkpt><trkpt lat="45.51051034229581" lon="11.06519500763868"><ele>180.66666666666666</ele><time>2026-04-18T14:01:24Z</time></trkpt><trkpt lat="45.51043717811255" lon="11.065155870615007"><ele>179.0</ele><time>2026-04-18T14:01:25Z</time></trkpt><trkpt lat="45.51036187133218" lon="11.06509173074692"><ele>177.79999999999998</ele><time>2026-04-18T14:01:26Z</time></trkpt><trkpt lat="45.51028019849976" lon="11.065043074589115"><ele>176.6</ele><time>2026-04-18T14:01:27Z</time></trkpt><trkpt lat="45.510203777252165" lon="11.064981457236845"><ele>175.4</ele><time>2026-04-18T14:01:28Z</time></trkpt><trkpt lat="45.5101164358525" lon="11.064932222950498"><ele>174.2</ele><time>2026-04-18T14:01:29Z</time></trkpt><trkpt lat="45.51002856547365" lon="11.06488113340272"><ele>173.0</ele><time>2026-04-18T14:01:30Z</time></trkpt><trkpt lat="45.5099383797429" lon="11.06482318913263"><ele>174.60000000000002</ele><time>2026-04-18T14:01:31Z</time></trkpt><trkpt lat="45.50984812002772" lon="11.064778158811766"><ele>176.20000000000002</ele><time>2026-04-18T14:01:32Z</time></trkpt><trkpt lat="45.50975197323901" lon="11.064733374126428"><ele>177.8</ele><time>2026-04-18T14:01:33Z</time></trkpt><trkpt lat="45.50967383929808" lon="11.064684871723234"><ele>179.4</ele><time>2026-04-18T14:01:34Z</time></trkpt><trkpt lat="45.50957423362797" lon="11.064643501543575"><ele>181.0</ele><time>2026-04-18T14:01:35Z</time></trkpt><trkpt lat="45.50947811936339" lon="11.06461028462806"><ele>181.0</ele><time>2026-04-18T14:01:36Z</time></trkpt><trkpt lat="45.5093839560485" lon="11.064588434955999"><ele>181.0</ele><time>2026-04-18T14:01:37Z</time></trkpt><trkpt lat="45.50929245201593" lon="11.06456576716253"><ele>181.0</ele><time>2026-04-18T14:01:38Z</time></trkpt><trkpt lat="45.50919860984423" lon="11.06454678721965"><ele>181.0</ele><time>2026-04-18T14:01:39Z</time></trkpt><trkpt lat="45.5091122718971" lon="11.064528657167937"><ele>181.0</ele><time>2026-04-18T14:01:40Z</time></trkpt><trkpt lat="45.50902609599201" lon="11.064506349741505"><ele>181.0</ele><time>2026-04-18T14:01:41Z</time></trkpt><trkpt lat="45.508953001761604" lon="11.064500738486487"><ele>181.0</ele><time>2026-04-18T14:01:42Z</time></trkpt><trkpt lat="45.5088550544173" lon="11.064470865685415"><ele>181.0</ele><time>2026-04-18T14:01:44Z</time></trkpt><trkpt lat="45.50894980655686" lon="11.064526628928316"><ele>181.0</ele><time>2026-04-18T14:01:53Z</time></trkpt><trkpt lat="45.509022127252514" lon="11.064539126632667"><ele>181.0</ele><time>2026-04-18T14:01:54Z</time></trkpt><trkpt lat="45.50909060261628" lon="11.064548858608587"><ele>181.0</ele><time>2026-04-18T14:01:55Z</time></trkpt><trkpt lat="45.5091727619722" lon="11.064563495439113"><ele>181.0</ele><time>2026-04-18T14:01:56Z</time></trkpt><trkpt lat="45.50925919791773" lon="11.064590166277698"><ele>181.0</ele><time>2026-04-18T14:01:57Z</time></trkpt><trkpt lat="45.50936740669861" lon="11.064616814475658"><ele>181.0</ele><time>2026-04-18T14:01:58Z</time></trkpt><trkpt lat="45.50947585231432" lon="11.064650122595205"><ele>181.0</ele><time>2026-04-18T14:01:59Z</time></trkpt><trkpt lat="45.50958013852549" lon="11.064693253305032"><ele>181.0</ele><time>2026-04-18T14:02:00Z</time></trkpt><trkpt lat="45.50967900418463" lon="11.064759957596527"><ele>179.0</ele><time>2026-04-18T14:02:01Z</time></trkpt><trkpt lat="45.50978889797123" lon="11.064811228088546"><ele>177.0</ele><time>2026-04-18T14:02:02Z</time></trkpt><trkpt lat="45.50989890219152" lon="11.064878227910405"><ele>175.0</ele><time>2026-04-18T14:02:03Z</time></trkpt><trkpt lat="45.51001693971762" lon="11.064948280758506"><ele>173.0</ele><time>2026-04-18T14:02:04Z</time></trkpt><trkpt lat="45.510131699064274" lon="11.065032348156214"><ele>173.0</ele><time>2026-04-18T14:02:05Z</time></trkpt><trkpt lat="45.510251947824635" lon="11.065113189230091"><ele>173.0</ele><time>2026-04-18T14:02:06Z</time></trkpt><trkpt lat="45.51037549745246" lon="11.065185925497595"><ele>173.0</ele><time>2026-04-18T14:02:07Z</time></trkpt><trkpt lat="45.51048668925109" lon="11.06526792401064"><ele>173.0</ele><time>2026-04-18T14:02:08Z</time></trkpt><trkpt lat="45.510614154092416" lon="11.065319422124324"><ele>174.5</ele><time>2026-04-18T14:02:09Z</time></trkpt><trkpt lat="45.51075743178968" lon="11.065313488686025"><ele>176.0</ele><time>2026-04-18T14:02:10Z</time></trkpt><trkpt lat="45.51089955133783" lon="11.065318154654864"><ele>177.5</ele><time>2026-04-18T14:02:11Z</time></trkpt><trkpt lat="45.51104587711203" lon="11.065317369609511"><ele>179.0</ele><time>2026-04-18T14:02:12Z</time></trkpt><trkpt lat="45.51119867619803" lon="11.065324226568025"><ele>181.5</ele><time>2026-04-18T14:02:13Z</time></trkpt><trkpt lat="45.51135482780623" lon="11.06532634579292"><ele>184.0</ele><time>2026-04-18T14:02:14Z</time></trkpt><trkpt lat="45.51150817817997" lon="11.06533873595853"><ele>186.5</ele><time>2026-04-18T14:02:15Z</time></trkpt><trkpt lat="45.511646747377256" lon="11.065352321610254"><ele>189.0</ele><time>2026-04-18T14:02:16Z</time></trkpt><trkpt lat="45.511774058656954" lon="11.065358021056987"><ele>189.0</ele><time>2026-04-18T14:02:17Z</time></trkpt><trkpt lat="45.51189415089924" lon="11.065374194662228"><ele>189.0</ele><time>2026-04-18T14:02:18Z</time></trkpt><trkpt lat="45.51199534929728" lon="11.06542235791371"><ele>189.0</ele><time>2026-04-18T14:02:19Z</time></trkpt><trkpt lat="45.512079108233294" lon="11.06550007864305"><ele>189.0</ele><time>2026-04-18T14:02:20Z</time></trkpt><trkpt lat="45.51214493102555" lon="11.065619466331029"><ele>189.0</ele><time>2026-04-18T14:02:21Z</time></trkpt><trkpt lat="45.51219079613688" lon="11.06576552623641"><ele>186.6</ele><time>2026-04-18T14:02:22Z</time></trkpt><trkpt lat="45.51222554008368" lon="11.065913491537398"><ele>184.2</ele><time>2026-04-18T14:02:23Z</time></trkpt><trkpt lat="45.512263612636396" lon="11.066056820311145"><ele>181.79999999999998</ele><time>2026-04-18T14:02:24Z</time></trkpt><trkpt lat="45.512315377996316" lon="11.066191935912897"><ele>179.39999999999998</ele><time>2026-04-18T14:02:25Z</time></trkpt><trkpt lat="45.51239311414547" lon="11.066325420705832"><ele>177.0</ele><time>2026-04-18T14:02:26Z</time></trkpt><trkpt lat="45.51248816775037" lon="11.066453438555095"><ele>177.0</ele><time>2026-04-18T14:02:27Z</time></trkpt><trkpt lat="45.51259226522167" lon="11.066566865053664"><ele>177.0</ele><time>2026-04-18T14:02:28Z</time></trkpt><trkpt lat="45.51270088569346" lon="11.066676946048958"><ele>177.0</ele><time>2026-04-18T14:02:29Z</time></trkpt><trkpt lat="45.5128101889698" lon="11.066789546877551"><ele>177.0</ele><time>2026-04-18T14:02:30Z</time></trkpt><trkpt lat="45.51292555125073" lon="11.066900141730297"><ele>176.25</ele><time>2026-04-18T14:02:31Z</time></trkpt><trkpt lat="45.513046913786525" lon="11.066985059029104"><ele>175.5</ele><time>2026-04-18T14:02:32Z</time></trkpt><trkpt lat="45.51317931171553" lon="11.067055446303582"><ele>174.75</ele><time>2026-04-18T14:02:33Z</time></trkpt><trkpt lat="45.51332252364499" lon="11.067105632672249"><ele>174.0</ele><time>2026-04-18T14:02:34Z</time></trkpt><trkpt lat="45.513475903708795" lon="11.067133691003438"><ele>174.0</ele><time>2026-04-18T14:02:35Z</time></trkpt><trkpt lat="45.51362772535654" lon="11.067135096444229"><ele>174.0</ele><time>2026-04-18T14:02:36Z</time></trkpt><trkpt lat="45.513780778249284" lon="11.06711083591385"><ele>174.0</ele><time>2026-04-18T14:02:37Z</time></trkpt><trkpt lat="45.513932788034666" lon="11.067079021283066"><ele>175.33333333333334</ele><time>2026-04-18T14:02:38Z</time></trkpt><trkpt lat="45.51408850437835" lon="11.067051458449592"><ele>176.66666666666669</ele><time>2026-04-18T14:02:39Z</time></trkpt><trkpt lat="45.51424276534664" lon="11.067023679352056"><ele>178.0</ele><time>2026-04-18T14:02:40Z</time></trkpt><trkpt lat="45.514396636501324" lon="11.06698933836544"><ele>178.0</ele><time>2026-04-18T14:02:41Z</time></trkpt><trkpt lat="45.51455333321656" lon="11.066945944849174"><ele>178.0</ele><time>2026-04-18T14:02:42Z</time></trkpt><trkpt lat="45.51470593465445" lon="11.066898347780672"><ele>178.0</ele><time>2026-04-18T14:02:43Z</time></trkpt><trkpt lat="45.514847541325715" lon="11.066857065087907"><ele>180.25</ele><time>2026-04-18T14:02:44Z</time></trkpt><trkpt lat="45.51498734923467" lon="11.06683128167736"><ele>182.5</ele><time>2026-04-18T14:02:45Z</time></trkpt><trkpt lat="45.51512719437511" lon="11.066822705330358"><ele>184.75</ele><time>2026-04-18T14:02:46Z</time></trkpt><trkpt lat="45.5152656420002" lon="11.066819099390436"><ele>187.0</ele><time>2026-04-18T14:02:47Z</time></trkpt><trkpt lat="45.515403437247805" lon="11.066809824206432"><ele>188.5</ele><time>2026-04-18T14:02:48Z</time></trkpt><trkpt lat="45.515544668415764" lon="11.066812276113577"><ele>190.0</ele><time>2026-04-18T14:02:49Z</time></trkpt><trkpt lat="45.51568362121496" lon="11.066822255704054"><ele>191.5</ele><time>2026-04-18T14:02:50Z</time></trkpt><trkpt lat="45.51581679287478" lon="11.066832442845234"><ele>193.0</ele><time>2026-04-18T14:02:51Z</time></trkpt><trkpt lat="45.515949379569946" lon="11.066855580805516"><ele>193.0</ele><time>2026-04-18T14:02:52Z</time></trkpt><trkpt lat="45.51607740976497" lon="11.066893118618571"><ele>193.0</ele><time>2026-04-18T14:02:53Z</time></trkpt><trkpt lat="45.51620360500205" lon="11.066913383589107"><ele>193.0</ele><time>2026-04-18T14:02:54Z</time></trkpt><trkpt lat="45.516333860159214" lon="11.06694426209226"><ele>193.0</ele><time>2026-04-18T14:02:55Z</time></trkpt><trkpt lat="45.516462508724615" lon="11.066986863898695"><ele>195.25</ele><time>2026-04-18T14:02:56Z</time></trkpt><trkpt lat="45.516593048879685" lon="11.067032080081612"><ele>197.5</ele><time>2026-04-18T14:02:57Z</time></trkpt><trkpt lat="45.516726871092075" lon="11.06707678181066"><ele>199.75</ele><time>2026-04-18T14:02:58Z</time></trkpt><trkpt lat="45.51686024470846" lon="11.067134967867503"><ele>202.0</ele><time>2026-04-18T14:02:59Z</time></trkpt><trkpt lat="45.51698728851605" lon="11.067222168635256"><ele>201.25</ele><time>2026-04-18T14:03:00Z</time></trkpt><trkpt lat="45.517109587110056" lon="11.067324764862834"><ele>200.5</ele><time>2026-04-18T14:03:01Z</time></trkpt><trkpt lat="45.51723655650698" lon="11.067421090402757"><ele>199.75</ele><time>2026-04-18T14:03:02Z</time></trkpt><trkpt lat="45.517369797642246" lon="11.067497186392528"><ele>199.0</ele><time>2026-04-18T14:03:03Z</time></trkpt><trkpt lat="45.51750681312019" lon="11.067570132334547"><ele>199.0</ele><time>2026-04-18T14:03:04Z</time></trkpt><trkpt lat="45.51764484223403" lon="11.067640697076945"><ele>199.0</ele><time>2026-04-18T14:03:05Z</time></trkpt><trkpt lat="45.51778889562225" lon="11.06769356563922"><ele>199.0</ele><time>2026-04-18T14:03:06Z</time></trkpt><trkpt lat="45.51793941858206" lon="11.067717957205625"><ele>199.0</ele><time>2026-04-18T14:03:07Z</time></trkpt><trkpt lat="45.51809387668345" lon="11.067738975444934"><ele>203.66666666666666</ele><time>2026-04-18T14:03:08Z</time></trkpt><trkpt lat="45.518252557906436" lon="11.067781160321577"><ele>208.33333333333331</ele><time>2026-04-18T14:03:09Z</time></trkpt><trkpt lat="45.518418789545215" lon="11.067851373244356"><ele>213.0</ele><time>2026-04-18T14:03:10Z</time></trkpt><trkpt lat="45.51857341642636" lon="11.06793864608021"><ele>213.0</ele><time>2026-04-18T14:03:11Z</time></trkpt><trkpt lat="45.51870357916569" lon="11.068030494908687"><ele>213.0</ele><time>2026-04-18T14:03:12Z</time></trkpt><trkpt lat="45.51882416730492" lon="11.068134962578215"><ele>213.0</ele><time>2026-04-18T14:03:13Z</time></trkpt><trkpt lat="45.51894317964904" lon="11.068237513361629"><ele>213.0</ele><time>2026-04-18T14:03:14Z</time></trkpt><trkpt lat="45.51906151470598" lon="11.068331183098788"><ele>211.5</ele><time>2026-04-18T14:03:15Z</time></trkpt><trkpt lat="45.51917294104819" lon="11.068430478008473"><ele>210.0</ele><time>2026-04-18T14:03:16Z</time></trkpt><trkpt lat="45.519292775037826" lon="11.06853190333748"><ele>208.5</ele><time>2026-04-18T14:03:17Z</time></trkpt><trkpt lat="45.51941018848575" lon="11.068618302646136"><ele>207.0</ele><time>2026-04-18T14:03:18Z</time></trkpt><trkpt lat="45.51952943657782" lon="11.0686865076417"><ele>211.25</ele><time>2026-04-18T14:03:19Z</time></trkpt><trkpt lat="45.51964940860077" lon="11.068749096119456"><ele>215.5</ele><time>2026-04-18T14:03:20Z</time></trkpt><trkpt lat="45.51977043680825" lon="11.068808556365058"><ele>219.75</ele><time>2026-04-18T14:03:21Z</time></trkpt><trkpt lat="45.51989321276777" lon="11.068862227602452"><ele>224.0</ele><time>2026-04-18T14:03:22Z</time></trkpt><trkpt lat="45.52001827327152" lon="11.068912084326303"><ele>224.0</ele><time>2026-04-18T14:03:23Z</time></trkpt><trkpt lat="45.52014930030922" lon="11.068970247579673"><ele>224.0</ele><time>2026-04-18T14:03:24Z</time></trkpt><trkpt lat="45.520263702622415" lon="11.069027138612778"><ele>224.0</ele><time>2026-04-18T14:03:25Z</time></trkpt><trkpt lat="45.5203694344837" lon="11.06909284313817"><ele>224.0</ele><time>2026-04-18T14:03:26Z</time></trkpt><trkpt lat="45.520468309183194" lon="11.069186282419043"><ele>222.79999999999998</ele><time>2026-04-18T14:03:27Z</time></trkpt><trkpt lat="45.52055379704363" lon="11.069295004904065"><ele>221.59999999999997</ele><time>2026-04-18T14:03:28Z</time></trkpt><trkpt lat="45.52063563247447" lon="11.069406740459335"><ele>220.4</ele><time>2026-04-18T14:03:29Z</time></trkpt><trkpt lat="45.52071842286209" lon="11.06949716607735"><ele>219.2</ele><time>2026-04-18T14:03:30Z</time></trkpt><trkpt lat="45.52082016911029" lon="11.06954970858516"><ele>218.0</ele><time>2026-04-18T14:03:31Z</time></trkpt><trkpt lat="45.52095113978514" lon="11.069577162891655"><ele>218.0</ele><time>2026-04-18T14:03:32Z</time></trkpt><trkpt lat="45.52107719640939" lon="11.069643440288523"><ele>218.0</ele><time>2026-04-18T14:03:33Z</time></trkpt><trkpt lat="45.52120507812577" lon="11.06971883984137"><ele>218.0</ele><time>2026-04-18T14:03:34Z</time></trkpt><trkpt lat="45.521332348465585" lon="11.06979131560525"><ele>218.0</ele><time>2026-04-18T14:03:35Z</time></trkpt><trkpt lat="45.52145535831946" lon="11.069856779529141"><ele>221.25</ele><time>2026-04-18T14:03:36Z</time></trkpt><trkpt lat="45.52157228035219" lon="11.069903508797298"><ele>224.5</ele><time>2026-04-18T14:03:37Z</time></trkpt><trkpt lat="45.52169414300265" lon="11.069939161069355"><ele>227.75</ele><time>2026-04-18T14:03:38Z</time></trkpt><trkpt lat="45.52181518233438" lon="11.069941448061625"><ele>231.0</ele><time>2026-04-18T14:03:39Z</time></trkpt><trkpt lat="45.521933186302654" lon="11.069935508817066"><ele>228.0</ele><time>2026-04-18T14:03:40Z</time></trkpt><trkpt lat="45.52203852285996" lon="11.06994246728246"><ele>225.00000000000003</ele><time>2026-04-18T14:03:41Z</time></trkpt><trkpt lat="45.522140742265165" lon="11.069962818693739"><ele>222.00000000000003</ele><time>2026-04-18T14:03:42Z</time></trkpt><trkpt lat="45.522244479249494" lon="11.06998015359864"><ele>219.0</ele><time>2026-04-18T14:03:43Z</time></trkpt><trkpt lat="45.522352336146795" lon="11.069966801095969"><ele>216.0</ele><time>2026-04-18T14:03:44Z</time></trkpt><trkpt lat="45.52245122532612" lon="11.069934630217784"><ele>216.0</ele><time>2026-04-18T14:03:45Z</time></trkpt><trkpt lat="45.52254463317212" lon="11.06989027248705"><ele>216.00000000000003</ele><time>2026-04-18T14:03:46Z</time></trkpt><trkpt lat="45.52262131536769" lon="11.069824182722584"><ele>216.00000000000003</ele><time>2026-04-18T14:03:47Z</time></trkpt><trkpt lat="45.52269794337097" lon="11.069735205287989"><ele>216.0</ele><time>2026-04-18T14:03:48Z</time></trkpt><trkpt lat="45.52279584175129" lon="11.069628918942293"><ele>216.0</ele><time>2026-04-18T14:03:49Z</time></trkpt><trkpt lat="45.522885777640404" lon="11.069527696507874"><ele>215.8</ele><time>2026-04-18T14:03:50Z</time></trkpt><trkpt lat="45.52297490231475" lon="11.069435582980276"><ele>215.60000000000002</ele><time>2026-04-18T14:03:51Z</time></trkpt><trkpt lat="45.52306606501445" lon="11.069385301272755"><ele>215.4</ele><time>2026-04-18T14:03:52Z</time></trkpt><trkpt lat="45.52315864237945" lon="11.069391246223232"><ele>215.2</ele><time>2026-04-18T14:03:53Z</time></trkpt><trkpt lat="45.52325291993066" lon="11.069388217431097"><ele>215.0</ele><time>2026-04-18T14:03:54Z</time></trkpt><trkpt lat="45.5233605354258" lon="11.069410726759058"><ele>215.0</ele><time>2026-04-18T14:03:55Z</time></trkpt><trkpt lat="45.52349815323379" lon="11.069492606773528"><ele>215.0</ele><time>2026-04-18T14:03:56Z</time></trkpt><trkpt lat="45.52361851597474" lon="11.069573719171272"><ele>215.0</ele><time>2026-04-18T14:03:57Z</time></trkpt><trkpt lat="45.52370658358091" lon="11.069682564335286"><ele>215.0</ele><time>2026-04-18T14:03:58Z</time></trkpt><trkpt lat="45.52379602077991" lon="11.069775117157773"><ele>216.0</ele><time>2026-04-18T14:03:59Z</time></trkpt><trkpt lat="45.52388657367639" lon="11.069856490344415"><ele>217.0</ele><time>2026-04-18T14:04:00Z</time></trkpt><trkpt lat="45.52396740867234" lon="11.069924960818497"><ele>218.0</ele><time>2026-04-18T14:04:01Z</time></trkpt><trkpt lat="45.52403930478232" lon="11.069966535498455"><ele>219.0</ele><time>2026-04-18T14:04:02Z</time></trkpt><trkpt lat="45.52414189333436" lon="11.069898978085154"><ele>220.0</ele><time>2026-04-18T14:04:03Z</time></trkpt><trkpt lat="45.52427212783887" lon="11.06982839656916"><ele>220.0</ele><time>2026-04-18T14:04:04Z</time></trkpt><trkpt lat="45.524385675011466" lon="11.069752987075201"><ele>220.0</ele><time>2026-04-18T14:04:05Z</time></trkpt><trkpt lat="45.524495258348196" lon="11.06967257710104"><ele>220.0</ele><time>2026-04-18T14:04:06Z</time></trkpt><trkpt lat="45.52459874224526" lon="11.069598784878895"><ele>220.0</ele><time>2026-04-18T14:04:07Z</time></trkpt><trkpt lat="45.524709133968386" lon="11.069538241985619"><ele>220.8</ele><time>2026-04-18T14:04:08Z</time></trkpt><trkpt lat="45.524824031891384" lon="11.069499555889456"><ele>221.6</ele><time>2026-04-18T14:04:09Z</time></trkpt><trkpt lat="45.52493020105271" lon="11.069487159505382"><ele>222.39999999999998</ele><time>2026-04-18T14:04:10Z</time></trkpt><trkpt lat="45.525029983167585" lon="11.069511595379078"><ele>223.2</ele><time>2026-04-18T14:04:11Z</time></trkpt><trkpt lat="45.525127381472956" lon="11.069554796249783"><ele>224.0</ele><time>2026-04-18T14:04:12Z</time></trkpt><trkpt lat="45.52523332426877" lon="11.069619412433667"><ele>224.0</ele><time>2026-04-18T14:04:13Z</time></trkpt><trkpt lat="45.52535340196264" lon="11.069674551893291"><ele>224.0</ele><time>2026-04-18T14:04:14Z</time></trkpt><trkpt lat="45.52548047270778" lon="11.069695536343174"><ele>224.0</ele><time>2026-04-18T14:04:15Z</time></trkpt><trkpt lat="45.525624227440645" lon="11.069704404768276"><ele>224.0</ele><time>2026-04-18T14:04:16Z</time></trkpt><trkpt lat="45.52577171115167" lon="11.069675696410666"><ele>225.5</ele><time>2026-04-18T14:04:17Z</time></trkpt><trkpt lat="45.5259019389684" lon="11.069617611277902"><ele>227.0</ele><time>2026-04-18T14:04:18Z</time></trkpt><trkpt lat="45.526032536133386" lon="11.069575730671048"><ele>228.5</ele><time>2026-04-18T14:04:19Z</time></trkpt><trkpt lat="45.52614300516257" lon="11.069566050905623"><ele>230.0</ele><time>2026-04-18T14:04:20Z</time></trkpt><trkpt lat="45.52624205547568" lon="11.069592016277102"><ele>231.8</ele><time>2026-04-18T14:04:21Z</time></trkpt><trkpt lat="45.52635036882025" lon="11.069611997008169"><ele>233.6</ele><time>2026-04-18T14:04:22Z</time></trkpt><trkpt lat="45.52645037686169" lon="11.069681873266038"><ele>235.39999999999998</ele><time>2026-04-18T14:04:23Z</time></trkpt><trkpt lat="45.526537955858984" lon="11.069768383351441"><ele>237.2</ele><time>2026-04-18T14:04:24Z</time></trkpt><trkpt lat="45.526644577634336" lon="11.069828660538485"><ele>239.0</ele><time>2026-04-18T14:04:25Z</time></trkpt><trkpt lat="45.52676142294955" lon="11.069869775310815"><ele>239.0</ele><time>2026-04-18T14:04:26Z</time></trkpt><trkpt lat="45.5268859127717" lon="11.069925691884222"><ele>239.0</ele><time>2026-04-18T14:04:27Z</time></trkpt><trkpt lat="45.52701385293374" lon="11.069996308314755"><ele>239.0</ele><time>2026-04-18T14:04:28Z</time></trkpt><trkpt lat="45.527128689472335" lon="11.070049260871704"><ele>239.0</ele><time>2026-04-18T14:04:29Z</time></trkpt><trkpt lat="45.52723929379039" lon="11.070090332518856"><ele>238.5</ele><time>2026-04-18T14:04:30Z</time></trkpt><trkpt lat="45.52735166045622" lon="11.070108206734332"><ele>238.0</ele><time>2026-04-18T14:04:31Z</time></trkpt><trkpt lat="45.527462746017065" lon="11.07013017505095"><ele>237.5</ele><time>2026-04-18T14:04:32Z</time></trkpt><trkpt lat="45.5275759075513" lon="11.070103066936861"><ele>237.0</ele><time>2026-04-18T14:04:33Z</time></trkpt><trkpt lat="45.527696936853374" lon="11.070040490570074"><ele>237.0</ele><time>2026-04-18T14:04:34Z</time></trkpt><trkpt lat="45.52781673870495" lon="11.069990739990907"><ele>237.0</ele><time>2026-04-18T14:04:35Z</time></trkpt><trkpt lat="45.527930282847656" lon="11.069946129535671"><ele>237.0</ele><time>2026-04-18T14:04:36Z</time></trkpt><trkpt lat="45.52804125144321" lon="11.069889418420326"><ele>237.0</ele><time>2026-04-18T14:04:37Z</time></trkpt><trkpt lat="45.52814303493839" lon="11.06983328484294"><ele>239.25</ele><time>2026-04-18T14:04:38Z</time></trkpt><trkpt lat="45.52826084892324" lon="11.069770154173318"><ele>241.5</ele><time>2026-04-18T14:04:39Z</time></trkpt><trkpt lat="45.528380098954145" lon="11.069715557482319"><ele>243.75</ele><time>2026-04-18T14:04:40Z</time></trkpt><trkpt lat="45.52849668332881" lon="11.069676062665266"><ele>246.0</ele><time>2026-04-18T14:04:41Z</time></trkpt><trkpt lat="45.5285958280298" lon="11.06970897507817"><ele>246.0</ele><time>2026-04-18T14:04:42Z</time></trkpt><trkpt lat="45.52869764514111" lon="11.06970835731139"><ele>246.00000000000003</ele><time>2026-04-18T14:04:43Z</time></trkpt><trkpt lat="45.52880457737018" lon="11.0697147823239"><ele>246.00000000000003</ele><time>2026-04-18T14:04:44Z</time></trkpt><trkpt lat="45.528904110008696" lon="11.069738100782581"><ele>246.0</ele><time>2026-04-18T14:04:45Z</time></trkpt><trkpt lat="45.52902538004838" lon="11.069754958025127"><ele>246.0</ele><time>2026-04-18T14:04:46Z</time></trkpt><trkpt lat="45.529136483544264" lon="11.069787982535576"><ele>246.5</ele><time>2026-04-18T14:04:47Z</time></trkpt><trkpt lat="45.529230690536735" lon="11.069843810923835"><ele>247.0</ele><time>2026-04-18T14:04:48Z</time></trkpt><trkpt lat="45.5293387751656" lon="11.069864373082117"><ele>247.5</ele><time>2026-04-18T14:04:49Z</time></trkpt><trkpt lat="45.52948317216758" lon="11.06989641521246"><ele>248.0</ele><time>2026-04-18T14:04:50Z</time></trkpt><trkpt lat="45.52962865438709" lon="11.069935544878058"><ele>248.75</ele><time>2026-04-18T14:04:51Z</time></trkpt><trkpt lat="45.529777511798194" lon="11.069965798673929"><ele>249.5</ele><time>2026-04-18T14:04:52Z</time></trkpt><trkpt lat="45.52992373618693" lon="11.069960178704065"><ele>250.25</ele><time>2026-04-18T14:04:53Z</time></trkpt><trkpt lat="45.53006724924041" lon="11.06992410700976"><ele>251.0</ele><time>2026-04-18T14:04:54Z</time></trkpt><trkpt lat="45.53019800131053" lon="11.069865518862564"><ele>251.0</ele><time>2026-04-18T14:04:55Z</time></trkpt><trkpt lat="45.530339076284484" lon="11.069804146100081"><ele>251.0</ele><time>2026-04-18T14:04:56Z</time></trkpt><trkpt lat="45.53037697912908" lon="11.069987940915919"><ele>251.0</ele><time>2026-04-18T14:04:57Z</time></trkpt><trkpt lat="45.53047116357417" lon="11.070033497704951"><ele>251.0</ele><time>2026-04-18T14:04:58Z</time></trkpt><trkpt lat="45.530552816364505" lon="11.070085873277636"><ele>250.5</ele><time>2026-04-18T14:04:59Z</time></trkpt><trkpt lat="45.530633441340605" lon="11.070199416767721"><ele>250.0</ele><time>2026-04-18T14:05:00Z</time></trkpt><trkpt lat="45.53073284943474" lon="11.070269792247108"><ele>249.5</ele><time>2026-04-18T14:05:01Z</time></trkpt><trkpt lat="45.53084288636643" lon="11.070332977647377"><ele>249.0</ele><time>2026-04-18T14:05:02Z</time></trkpt><trkpt lat="45.530954119226415" lon="11.070378257719787"><ele>249.0</ele><time>2026-04-18T14:05:03Z</time></trkpt><trkpt lat="45.53106121380942" lon="11.070397172801705"><ele>249.0</ele><time>2026-04-18T14:05:04Z</time></trkpt><trkpt lat="45.5311864882116" lon="11.070411941118447"><ele>249.0</ele><time>2026-04-18T14:05:05Z</time></trkpt><trkpt lat="45.53130624061604" lon="11.0704210438366"><ele>249.0</ele><time>2026-04-18T14:05:06Z</time></trkpt><trkpt lat="45.53142926813469" lon="11.070439526519166"><ele>249.25</ele><time>2026-04-18T14:05:07Z</time></trkpt><trkpt lat="45.531538447160685" lon="11.070444761089057"><ele>249.5</ele><time>2026-04-18T14:05:08Z</time></trkpt><trkpt lat="45.53166229145983" lon="11.070447518161497"><ele>249.75</ele><time>2026-04-18T14:05:09Z</time></trkpt><trkpt lat="45.531772941332605" lon="11.070377829859272"><ele>250.0</ele><time>2026-04-18T14:05:10Z</time></trkpt><trkpt lat="45.53185812939746" lon="11.070232046927039"><ele>250.0</ele><time>2026-04-18T14:05:11Z</time></trkpt><trkpt lat="45.531919030169924" lon="11.070060332711886"><ele>250.0</ele><time>2026-04-18T14:05:12Z</time></trkpt><trkpt lat="45.53198085624944" lon="11.069903772128558"><ele>250.0</ele><time>2026-04-18T14:05:13Z</time></trkpt><trkpt lat="45.53204520627929" lon="11.06977666159751"><ele>250.0</ele><time>2026-04-18T14:05:14Z</time></trkpt><trkpt lat="45.532129801353264" lon="11.069641632400094"><ele>250.75</ele><time>2026-04-18T14:05:15Z</time></trkpt><trkpt lat="45.532223138402216" lon="11.06952025897784"><ele>251.5</ele><time>2026-04-18T14:05:16Z</time></trkpt><trkpt lat="45.53232120874177" lon="11.069411143831283"><ele>252.25</ele><time>2026-04-18T14:05:17Z</time></trkpt><trkpt lat="45.53241895601218" lon="11.06933663031873"><ele>253.0</ele><time>2026-04-18T14:05:18Z</time></trkpt><trkpt lat="45.5325004353666" lon="11.069275805884784"><ele>253.0</ele><time>2026-04-18T14:05:19Z</time></trkpt><trkpt lat="45.53260740491628" lon="11.069262151501608"><ele>253.0</ele><time>2026-04-18T14:05:20Z</time></trkpt><trkpt lat="45.532706856764044" lon="11.06926168686052"><ele>253.0</ele><time>2026-04-18T14:05:21Z</time></trkpt><trkpt lat="45.53281324126321" lon="11.06928524599326"><ele>253.0</ele><time>2026-04-18T14:05:22Z</time></trkpt><trkpt lat="45.532896168460226" lon="11.06935317334839"><ele>253.0</ele><time>2026-04-18T14:05:23Z</time></trkpt><trkpt lat="45.533002247387394" lon="11.069415173923497"><ele>254.8</ele><time>2026-04-18T14:05:24Z</time></trkpt><trkpt lat="45.533110555199976" lon="11.06946780735282"><ele>256.6</ele><time>2026-04-18T14:05:25Z</time></trkpt><trkpt lat="45.533207834525456" lon="11.069464692745463"><ele>258.4</ele><time>2026-04-18T14:05:26Z</time></trkpt><trkpt lat="45.5333030232285" lon="11.069447255176378"><ele>260.2</ele><time>2026-04-18T14:05:27Z</time></trkpt><trkpt lat="45.53338757317366" lon="11.069407431602226"><ele>262.0</ele><time>2026-04-18T14:05:28Z</time></trkpt><trkpt lat="45.53348413844706" lon="11.06929053607839"><ele>262.0</ele><time>2026-04-18T14:05:29Z</time></trkpt><trkpt lat="45.533552432327554" lon="11.069180367660579"><ele>262.0</ele><time>2026-04-18T14:05:30Z</time></trkpt><trkpt lat="45.53362312187542" lon="11.069043268652369"><ele>262.0</ele><time>2026-04-18T14:05:31Z</time></trkpt><trkpt lat="45.533684684736244" lon="11.068905562078585"><ele>262.0</ele><time>2026-04-18T14:05:32Z</time></trkpt><trkpt lat="45.533750156968935" lon="11.06880432917065"><ele>262.0</ele><time>2026-04-18T14:05:33Z</time></trkpt><trkpt lat="45.53383562022647" lon="11.06872734980263"><ele>264.2</ele><time>2026-04-18T14:05:34Z</time></trkpt><trkpt lat="45.53391133457375" lon="11.068673912141344"><ele>266.4</ele><time>2026-04-18T14:05:35Z</time></trkpt><trkpt lat="45.53399471353751" lon="11.068616552421371"><ele>268.6</ele><time>2026-04-18T14:05:36Z</time></trkpt><trkpt lat="45.53408508014399" lon="11.068578125410793"><ele>270.8</ele><time>2026-04-18T14:05:37Z</time></trkpt><trkpt lat="45.53418338022628" lon="11.06859075399154"><ele>273.0</ele><time>2026-04-18T14:05:38Z</time></trkpt><trkpt lat="45.53427307070112" lon="11.068637000741557"><ele>273.0</ele><time>2026-04-18T14:05:39Z</time></trkpt><trkpt lat="45.53435803733793" lon="11.068727093469453"><ele>273.0</ele><time>2026-04-18T14:05:40Z</time></trkpt><trkpt lat="45.53444264506339" lon="11.068833090815586"><ele>273.0</ele><time>2026-04-18T14:05:41Z</time></trkpt><trkpt lat="45.53451160430272" lon="11.06894544767721"><ele>273.0</ele><time>2026-04-18T14:05:42Z</time></trkpt><trkpt lat="45.534574701220954" lon="11.06906418977207"><ele>273.0</ele><time>2026-04-18T14:05:43Z</time></trkpt><trkpt lat="45.53463651274158" lon="11.069177638886115"><ele>272.0</ele><time>2026-04-18T14:05:44Z</time></trkpt><trkpt lat="45.534716460194815" lon="11.06928836592317"><ele>271.0</ele><time>2026-04-18T14:05:45Z</time></trkpt><trkpt lat="45.53479632526749" lon="11.069389398588777"><ele>270.0</ele><time>2026-04-18T14:05:46Z</time></trkpt><trkpt lat="45.53487555358157" lon="11.069494219932364"><ele>269.0</ele><time>2026-04-18T14:05:47Z</time></trkpt><trkpt lat="45.53494576501616" lon="11.06959992417517"><ele>268.0</ele><time>2026-04-18T14:05:48Z</time></trkpt><trkpt lat="45.53502590073306" lon="11.069686946671414"><ele>268.0</ele><time>2026-04-18T14:05:49Z</time></trkpt><trkpt lat="45.535109970233925" lon="11.069759943044527"><ele>268.0</ele><time>2026-04-18T14:05:50Z</time></trkpt><trkpt lat="45.53522693955707" lon="11.06978533294305"><ele>268.0</ele><time>2026-04-18T14:05:51Z</time></trkpt><trkpt lat="45.53533709596311" lon="11.069803581260183"><ele>268.0</ele><time>2026-04-18T14:05:52Z</time></trkpt><trkpt lat="45.53544559105517" lon="11.069806817543583"><ele>268.0</ele><time>2026-04-18T14:05:53Z</time></trkpt><trkpt lat="45.535554745798464" lon="11.069807185084146"><ele>273.5</ele><time>2026-04-18T14:05:54Z</time></trkpt><trkpt lat="45.535662243980155" lon="11.069796021306187"><ele>279.0</ele><time>2026-04-18T14:05:55Z</time></trkpt><trkpt lat="45.53577026717105" lon="11.069810329530107"><ele>284.5</ele><time>2026-04-18T14:05:56Z</time></trkpt><trkpt lat="45.53589286875237" lon="11.069822441054932"><ele>290.0</ele><time>2026-04-18T14:05:57Z</time></trkpt><trkpt lat="45.535997485037214" lon="11.069874148829392"><ele>290.0</ele><time>2026-04-18T14:05:58Z</time></trkpt><trkpt lat="45.53610466448793" lon="11.069931669278892"><ele>290.0</ele><time>2026-04-18T14:05:59Z</time></trkpt><trkpt lat="45.536198123435945" lon="11.0700180352733"><ele>290.0</ele><time>2026-04-18T14:06:00Z</time></trkpt><trkpt lat="45.53627305420676" lon="11.070108737479929"><ele>290.0</ele><time>2026-04-18T14:06:01Z</time></trkpt><trkpt lat="45.53633570653208" lon="11.07021061158878"><ele>290.0</ele><time>2026-04-18T14:06:02Z</time></trkpt><trkpt lat="45.53638381294863" lon="11.070345385101284"><ele>288.0</ele><time>2026-04-18T14:06:03Z</time></trkpt><trkpt lat="45.53641384870792" lon="11.07049507059881"><ele>286.0</ele><time>2026-04-18T14:06:04Z</time></trkpt><trkpt lat="45.53644535701174" lon="11.070631984446848"><ele>284.0</ele><time>2026-04-18T14:06:05Z</time></trkpt><trkpt lat="45.53648912289528" lon="11.070767075656867"><ele>282.0</ele><time>2026-04-18T14:06:06Z</time></trkpt><trkpt lat="45.53655275333018" lon="11.070882204263015"><ele>280.0</ele><time>2026-04-18T14:06:07Z</time></trkpt><trkpt lat="45.53663617372082" lon="11.070989822081604"><ele>280.0</ele><time>2026-04-18T14:06:08Z</time></trkpt><trkpt lat="45.53670665430889" lon="11.071083644266709"><ele>280.0</ele><time>2026-04-18T14:06:09Z</time></trkpt><trkpt lat="45.53678711390239" lon="11.071150690537241"><ele>280.0</ele><time>2026-04-18T14:06:10Z</time></trkpt><trkpt lat="45.53688837976898" lon="11.071198851780647"><ele>280.0</ele><time>2026-04-18T14:06:11Z</time></trkpt><trkpt lat="45.53699049425616" lon="11.071244234907793"><ele>280.0</ele><time>2026-04-18T14:06:12Z</time></trkpt><trkpt lat="45.5370946009869" lon="11.071196154215485"><ele>282.0</ele><time>2026-04-18T14:06:13Z</time></trkpt><trkpt lat="45.537175906052234" lon="11.071179289586105"><ele>284.0</ele><time>2026-04-18T14:06:14Z</time></trkpt><trkpt lat="45.53726338900205" lon="11.071163824063714"><ele>286.0</ele><time>2026-04-18T14:06:15Z</time></trkpt><trkpt lat="45.53734855050364" lon="11.071217171127858"><ele>288.0</ele><time>2026-04-18T14:06:17Z</time></trkpt><trkpt lat="45.53733483309678" lon="11.071317301701287"><ele>290.0</ele><time>2026-04-18T14:06:19Z</time></trkpt><trkpt lat="45.53722106502309" lon="11.071334239512941"><ele>292.0</ele><time>2026-04-18T14:06:21Z</time></trkpt><trkpt lat="45.53709440799326" lon="11.07136388490401"><ele>290.0</ele><time>2026-04-18T14:06:23Z</time></trkpt><trkpt lat="45.53701518864328" lon="11.071375559739021"><ele>288.0</ele><time>2026-04-18T14:06:24Z</time></trkpt><trkpt lat="45.53693852764608" lon="11.071394006891614"><ele>286.0</ele><time>2026-04-18T14:06:25Z</time></trkpt><trkpt lat="45.53685150623649" lon="11.071390789177707"><ele>284.0</ele><time>2026-04-18T14:06:26Z</time></trkpt><trkpt lat="45.53675536322278" lon="11.071352361842926"><ele>282.0</ele><time>2026-04-18T14:06:27Z</time></trkpt><trkpt lat="45.53666471510086" lon="11.071294870485193"><ele>280.0</ele><time>2026-04-18T14:06:28Z</time></trkpt><trkpt lat="45.53657939686615" lon="11.071223487198598"><ele>280.0</ele><time>2026-04-18T14:06:29Z</time></trkpt><trkpt lat="45.53648585656183" lon="11.071138514339392"><ele>280.0</ele><time>2026-04-18T14:06:30Z</time></trkpt><trkpt lat="45.536404255164186" lon="11.071032800735084"><ele>280.0</ele><time>2026-04-18T14:06:31Z</time></trkpt><trkpt lat="45.536326671503595" lon="11.070904118131438"><ele>280.0</ele><time>2026-04-18T14:06:32Z</time></trkpt><trkpt lat="45.536266583772964" lon="11.07076133722312"><ele>278.0</ele><time>2026-04-18T14:06:33Z</time></trkpt><trkpt lat="45.53621231393609" lon="11.070630182341516"><ele>276.0</ele><time>2026-04-18T14:06:34Z</time></trkpt><trkpt lat="45.5361674174409" lon="11.07052874075883"><ele>274.0</ele><time>2026-04-18T14:06:35Z</time></trkpt><trkpt lat="45.53612621028349" lon="11.070449538560801"><ele>272.0</ele><time>2026-04-18T14:06:36Z</time></trkpt><trkpt lat="45.5360444210825" lon="11.07038451800405"><ele>270.0</ele><time>2026-04-18T14:06:37Z</time></trkpt><trkpt lat="45.53594087599624" lon="11.070359507029037"><ele>270.0</ele><time>2026-04-18T14:06:38Z</time></trkpt><trkpt lat="45.53583901388613" lon="11.070331300286032"><ele>270.0</ele><time>2026-04-18T14:06:39Z</time></trkpt><trkpt lat="45.53572458211871" lon="11.070308654227224"><ele>270.0</ele><time>2026-04-18T14:06:40Z</time></trkpt><trkpt lat="45.53561333416648" lon="11.07030448696922"><ele>270.0</ele><time>2026-04-18T14:06:41Z</time></trkpt><trkpt lat="45.535497714686635" lon="11.070320916325427"><ele>270.0</ele><time>2026-04-18T14:06:42Z</time></trkpt><trkpt lat="45.535386782583224" lon="11.070381220130589"><ele>272.6</ele><time>2026-04-18T14:06:43Z</time></trkpt><trkpt lat="45.53528915438818" lon="11.07045662729908"><ele>275.2</ele><time>2026-04-18T14:06:44Z</time></trkpt><trkpt lat="45.53520453327722" lon="11.070486051347949"><ele>277.8</ele><time>2026-04-18T14:06:45Z</time></trkpt><trkpt lat="45.53509720589942" lon="11.07044296294723"><ele>280.4</ele><time>2026-04-18T14:06:46Z</time></trkpt><trkpt lat="45.534995765209885" lon="11.070369610303466"><ele>283.0</ele><time>2026-04-18T14:06:47Z</time></trkpt><trkpt lat="45.53489948155758" lon="11.070273936193857"><ele>283.0</ele><time>2026-04-18T14:06:48Z</time></trkpt><trkpt lat="45.53481585366366" lon="11.070175399978917"><ele>283.0</ele><time>2026-04-18T14:06:49Z</time></trkpt><trkpt lat="45.53471634155247" lon="11.07006712955941"><ele>283.0</ele><time>2026-04-18T14:06:50Z</time></trkpt><trkpt lat="45.53461523066379" lon="11.069969511632054"><ele>283.0</ele><time>2026-04-18T14:06:51Z</time></trkpt><trkpt lat="45.5345196178538" lon="11.069888861736978"><ele>280.8</ele><time>2026-04-18T14:06:52Z</time></trkpt><trkpt lat="45.53443030315854" lon="11.069809982857889"><ele>278.6</ele><time>2026-04-18T14:06:53Z</time></trkpt><trkpt lat="45.53434242327835" lon="11.069750828179666"><ele>276.4</ele><time>2026-04-18T14:06:54Z</time></trkpt><trkpt lat="45.5342556590044" lon="11.069716991329926"><ele>274.2</ele><time>2026-04-18T14:06:55Z</time></trkpt><trkpt lat="45.534183776387195" lon="11.069728985213128"><ele>272.0</ele><time>2026-04-18T14:06:56Z</time></trkpt><trkpt lat="45.534102730561486" lon="11.069766317068312"><ele>272.0</ele><time>2026-04-18T14:06:57Z</time></trkpt><trkpt lat="45.534024358829356" lon="11.069832457088427"><ele>272.0</ele><time>2026-04-18T14:06:58Z</time></trkpt><trkpt lat="45.53393628742117" lon="11.069910739854658"><ele>272.0</ele><time>2026-04-18T14:06:59Z</time></trkpt><trkpt lat="45.533848294849065" lon="11.069978224817048"><ele>272.0</ele><time>2026-04-18T14:07:00Z</time></trkpt><trkpt lat="45.533747720503975" lon="11.070044131836973"><ele>272.0</ele><time>2026-04-18T14:07:01Z</time></trkpt><trkpt lat="45.533642879469234" lon="11.070118736467432"><ele>278.25</ele><time>2026-04-18T14:07:02Z</time></trkpt><trkpt lat="45.53353983520677" lon="11.070199528883503"><ele>284.5</ele><time>2026-04-18T14:07:03Z</time></trkpt><trkpt lat="45.533424233662984" lon="11.070255530512222"><ele>290.75</ele><time>2026-04-18T14:07:04Z</time></trkpt><trkpt lat="45.53329797261807" lon="11.070286306649974"><ele>297.0</ele><time>2026-04-18T14:07:05Z</time></trkpt><trkpt lat="45.53317352534783" lon="11.070308290599865"><ele>297.0</ele><time>2026-04-18T14:07:06Z</time></trkpt><trkpt lat="45.53303738423086" lon="11.070324863981751"><ele>297.0</ele><time>2026-04-18T14:07:07Z</time></trkpt><trkpt lat="45.53293587833671" lon="11.070358245445895"><ele>297.0</ele><time>2026-04-18T14:07:08Z</time></trkpt><trkpt lat="45.53283575733886" lon="11.07039336126958"><ele>297.0</ele><time>2026-04-18T14:07:09Z</time></trkpt><trkpt lat="45.53273809049085" lon="11.070448461338305"><ele>297.0</ele><time>2026-04-18T14:07:10Z</time></trkpt><trkpt lat="45.53263923521359" lon="11.070523646647935"><ele>299.8</ele><time>2026-04-18T14:07:11Z</time></trkpt><trkpt lat="45.532552975154076" lon="11.070619855092529"><ele>302.6</ele><time>2026-04-18T14:07:12Z</time></trkpt><trkpt lat="45.53247388044223" lon="11.070731366201821"><ele>305.40000000000003</ele><time>2026-04-18T14:07:13Z</time></trkpt><trkpt lat="45.53239103008153" lon="11.070834678871107"><ele>308.2</ele><time>2026-04-18T14:07:14Z</time></trkpt><trkpt lat="45.53232423222735" lon="11.070967273614864"><ele>311.0</ele><time>2026-04-18T14:07:15Z</time></trkpt><trkpt lat="45.532238139125745" lon="11.071099423169038"><ele>311.0</ele><time>2026-04-18T14:07:16Z</time></trkpt><trkpt lat="45.53215620502959" lon="11.071226540543368"><ele>311.0</ele><time>2026-04-18T14:07:17Z</time></trkpt><trkpt lat="45.53207312543299" lon="11.071328760385883"><ele>311.0</ele><time>2026-04-18T14:07:18Z</time></trkpt><trkpt lat="45.53198028015436" lon="11.071415624809148"><ele>311.0</ele><time>2026-04-18T14:07:19Z</time></trkpt><trkpt lat="45.53187021149068" lon="11.071486731093566"><ele>316.0</ele><time>2026-04-18T14:07:20Z</time></trkpt><trkpt lat="45.53174910450724" lon="11.071538035451114"><ele>321.0</ele><time>2026-04-18T14:07:21Z</time></trkpt><trkpt lat="45.531622332499836" lon="11.07157407323612"><ele>326.0</ele><time>2026-04-18T14:07:22Z</time></trkpt><trkpt lat="45.53149593331478" lon="11.071616138981238"><ele>331.0</ele><time>2026-04-18T14:07:23Z</time></trkpt><trkpt lat="45.53136526074733" lon="11.0716565959093"><ele>328.0</ele><time>2026-04-18T14:07:24Z</time></trkpt><trkpt lat="45.531222259478625" lon="11.071689140172023"><ele>325.0</ele><time>2026-04-18T14:07:25Z</time></trkpt><trkpt lat="45.531078493943184" lon="11.071706115679344"><ele>322.0</ele><time>2026-04-18T14:07:26Z</time></trkpt><trkpt lat="45.5309349290337" lon="11.07173704879148"><ele>319.0</ele><time>2026-04-18T14:07:27Z</time></trkpt><trkpt lat="45.53079603040135" lon="11.071768123528166"><ele>319.0</ele><time>2026-04-18T14:07:28Z</time></trkpt><trkpt lat="45.53069008884425" lon="11.071800017294118"><ele>319.0</ele><time>2026-04-18T14:07:29Z</time></trkpt><trkpt lat="45.53059416731368" lon="11.071816335090743"><ele>319.0</ele><time>2026-04-18T14:07:30Z</time></trkpt><trkpt lat="45.53050708292349" lon="11.071835037383465"><ele>319.0</ele><time>2026-04-18T14:07:31Z</time></trkpt><trkpt lat="45.53044230736677" lon="11.071854868073167"><ele>319.0</ele><time>2026-04-18T14:07:32Z</time></trkpt><trkpt lat="45.530423982792996" lon="11.071977058895595"><ele>319.0</ele><time>2026-04-18T14:07:34Z</time></trkpt><trkpt lat="45.53052864475909" lon="11.072035112850699"><ele>319.0</ele><time>2026-04-18T14:07:36Z</time></trkpt><trkpt lat="45.53060609596915" lon="11.072004864207324"><ele>319.0</ele><time>2026-04-18T14:07:37Z</time></trkpt><trkpt lat="45.53066605858331" lon="11.071966558004023"><ele>319.0</ele><time>2026-04-18T14:07:38Z</time></trkpt><trkpt lat="45.53078640606863" lon="11.071922458038202"><ele>319.0</ele><time>2026-04-18T14:07:40Z</time></trkpt><trkpt lat="45.530869283948846" lon="11.071904003317002"><ele>319.0</ele><time>2026-04-18T14:07:41Z</time></trkpt><trkpt lat="45.53095786388626" lon="11.0718957370995"><ele>319.0</ele><time>2026-04-18T14:07:42Z</time></trkpt><trkpt lat="45.5310521524071" lon="11.071904063317055"><ele>319.0</ele><time>2026-04-18T14:07:43Z</time></trkpt><trkpt lat="45.53115691040891" lon="11.071915338387868"><ele>319.0</ele><time>2026-04-18T14:07:44Z</time></trkpt><trkpt lat="45.53126497881616" lon="11.071921172795289"><ele>319.0</ele><time>2026-04-18T14:07:45Z</time></trkpt><trkpt lat="45.531377915843095" lon="11.071923068359908"><ele>319.0</ele><time>2026-04-18T14:07:46Z</time></trkpt><trkpt lat="45.531488155783244" lon="11.071927491187653"><ele>319.0</ele><time>2026-04-18T14:07:47Z</time></trkpt><trkpt lat="45.53160215918677" lon="11.071919105350899"><ele>322.0</ele><time>2026-04-18T14:07:48Z</time></trkpt><trkpt lat="45.53172007145686" lon="11.071878392783475"><ele>325.0</ele><time>2026-04-18T14:07:49Z</time></trkpt><trkpt lat="45.53183595184215" lon="11.071847372518477"><ele>328.0</ele><time>2026-04-18T14:07:50Z</time></trkpt><trkpt lat="45.53194811525796" lon="11.071829944431766"><ele>331.0</ele><time>2026-04-18T14:07:51Z</time></trkpt><trkpt lat="45.53205991606512" lon="11.071817639796727"><ele>327.0</ele><time>2026-04-18T14:07:52Z</time></trkpt><trkpt lat="45.53215857846047" lon="11.071788858631395"><ele>323.0</ele><time>2026-04-18T14:07:53Z</time></trkpt><trkpt lat="45.53224898052679" lon="11.071710695502041"><ele>319.0</ele><time>2026-04-18T14:07:54Z</time></trkpt><trkpt lat="45.53233688041078" lon="11.071611129469954"><ele>315.0</ele><time>2026-04-18T14:07:55Z</time></trkpt><trkpt lat="45.53241976767304" lon="11.071505884184623"><ele>311.0</ele><time>2026-04-18T14:07:56Z</time></trkpt><trkpt lat="45.532503803800566" lon="11.071404310831928"><ele>311.0</ele><time>2026-04-18T14:07:57Z</time></trkpt><trkpt lat="45.532587290274776" lon="11.071305918118972"><ele>311.0</ele><time>2026-04-18T14:07:58Z</time></trkpt><trkpt lat="45.53267770786518" lon="11.071204978789163"><ele>311.0</ele><time>2026-04-18T14:07:59Z</time></trkpt><trkpt lat="45.532774396757915" lon="11.071108809271943"><ele>311.0</ele><time>2026-04-18T14:08:00Z</time></trkpt><trkpt lat="45.53286391828612" lon="11.071013879234986"><ele>317.20000000000005</ele><time>2026-04-18T14:08:01Z</time></trkpt><trkpt lat="45.532952620514465" lon="11.070956147534114"><ele>323.40000000000003</ele><time>2026-04-18T14:08:02Z</time></trkpt><trkpt lat="45.533047518662855" lon="11.07092767804685"><ele>329.6</ele><time>2026-04-18T14:08:03Z</time></trkpt><trkpt lat="45.53315464126608" lon="11.070930423253122"><ele>335.8</ele><time>2026-04-18T14:08:04Z</time></trkpt><trkpt lat="45.53325829555048" lon="11.070935186126123"><ele>342.0</ele><time>2026-04-18T14:08:05Z</time></trkpt><trkpt lat="45.53336610601889" lon="11.07093206129995"><ele>342.0</ele><time>2026-04-18T14:08:06Z</time></trkpt><trkpt lat="45.53348267927855" lon="11.070929726400722"><ele>342.0</ele><time>2026-04-18T14:08:07Z</time></trkpt><trkpt lat="45.53359930627076" lon="11.070896674871287"><ele>342.0</ele><time>2026-04-18T14:08:08Z</time></trkpt><trkpt lat="45.53372144718321" lon="11.07085719367273"><ele>342.0</ele><time>2026-04-18T14:08:09Z</time></trkpt><trkpt lat="45.53384181055151" lon="11.07081917412403"><ele>344.20000000000005</ele><time>2026-04-18T14:08:10Z</time></trkpt><trkpt lat="45.5339506437371" lon="11.070785878632893"><ele>346.4</ele><time>2026-04-18T14:08:11Z</time></trkpt><trkpt lat="45.53403796226518" lon="11.070751889282642"><ele>348.6</ele><time>2026-04-18T14:08:12Z</time></trkpt><trkpt lat="45.53412142228377" lon="11.070746478503503"><ele>350.79999999999995</ele><time>2026-04-18T14:08:13Z</time></trkpt><trkpt lat="45.534202521227044" lon="11.070765532551242"><ele>353.0</ele><time>2026-04-18T14:08:14Z</time></trkpt><trkpt lat="45.534282716694946" lon="11.07082885619064"><ele>353.0</ele><time>2026-04-18T14:08:15Z</time></trkpt><trkpt lat="45.53435856450487" lon="11.070901880808423"><ele>353.0</ele><time>2026-04-18T14:08:16Z</time></trkpt><trkpt lat="45.53443729861856" lon="11.0709729787551"><ele>353.0</ele><time>2026-04-18T14:08:17Z</time></trkpt><trkpt lat="45.534521627222006" lon="11.071054888320456"><ele>353.0</ele><time>2026-04-18T14:08:18Z</time></trkpt><trkpt lat="45.534608990305216" lon="11.071132927974617"><ele>353.0</ele><time>2026-04-18T14:08:19Z</time></trkpt><trkpt lat="45.534704527014185" lon="11.07120018357642"><ele>348.0</ele><time>2026-04-18T14:08:20Z</time></trkpt><trkpt lat="45.5348078393697" lon="11.071253809575365"><ele>343.0</ele><time>2026-04-18T14:08:21Z</time></trkpt><trkpt lat="45.5349173880512" lon="11.071306650581375"><ele>338.0</ele><time>2026-04-18T14:08:22Z</time></trkpt><trkpt lat="45.53503174756006" lon="11.071340913956673"><ele>333.0</ele><time>2026-04-18T14:08:23Z</time></trkpt><trkpt lat="45.53515020027481" lon="11.071365433023615"><ele>333.0</ele><time>2026-04-18T14:08:24Z</time></trkpt><trkpt lat="45.53527003707937" lon="11.07138344486605"><ele>333.0</ele><time>2026-04-18T14:08:25Z</time></trkpt><trkpt lat="45.535390703550036" lon="11.071408820550312"><ele>333.0</ele><time>2026-04-18T14:08:26Z</time></trkpt><trkpt lat="45.53549773214929" lon="11.07145065745646"><ele>333.0</ele><time>2026-04-18T14:08:27Z</time></trkpt><trkpt lat="45.53560361535567" lon="11.071493572403222"><ele>337.2</ele><time>2026-04-18T14:08:28Z</time></trkpt><trkpt lat="45.53569745921949" lon="11.07155352546423"><ele>341.4</ele><time>2026-04-18T14:08:29Z</time></trkpt><trkpt lat="45.53578028634276" lon="11.071629425248414"><ele>345.59999999999997</ele><time>2026-04-18T14:08:30Z</time></trkpt><trkpt lat="45.53583925758007" lon="11.071687737343069"><ele>349.79999999999995</ele><time>2026-04-18T14:08:31Z</time></trkpt><trkpt lat="45.53588985973278" lon="11.071765576335654"><ele>354.0</ele><time>2026-04-18T14:08:33Z</time></trkpt><trkpt lat="45.5357907634128" lon="11.07170729415204"><ele>354.0</ele><time>2026-04-18T14:08:36Z</time></trkpt><trkpt lat="45.53573783845014" lon="11.071628698246451"><ele>354.0</ele><time>2026-04-18T14:08:37Z</time></trkpt><trkpt lat="45.53567469892307" lon="11.071574056834583"><ele>354.0</ele><time>2026-04-18T14:08:38Z</time></trkpt><trkpt lat="45.53559792296491" lon="11.071524258620107"><ele>354.0</ele><time>2026-04-18T14:08:39Z</time></trkpt><trkpt lat="45.535512959749305" lon="11.071500629338068"><ele>354.0</ele><time>2026-04-18T14:08:40Z</time></trkpt><trkpt lat="45.53541622614711" lon="11.071495223197665"><ele>354.0</ele><time>2026-04-18T14:08:41Z</time></trkpt><trkpt lat="45.535310552683114" lon="11.07147830329672"><ele>349.79999999999995</ele><time>2026-04-18T14:08:42Z</time></trkpt><trkpt lat="45.535196865245986" lon="11.071470203498578"><ele>345.59999999999997</ele><time>2026-04-18T14:08:43Z</time></trkpt><trkpt lat="45.5350930357159" lon="11.071468748380337"><ele>341.4</ele><time>2026-04-18T14:08:44Z</time></trkpt><trkpt lat="45.5349869834882" lon="11.071467555755403"><ele>337.2</ele><time>2026-04-18T14:08:45Z</time></trkpt><trkpt lat="45.53487528248522" lon="11.071459865178108"><ele>333.0</ele><time>2026-04-18T14:08:46Z</time></trkpt><trkpt lat="45.53476362812533" lon="11.071411033825841"><ele>333.0</ele><time>2026-04-18T14:08:47Z</time></trkpt><trkpt lat="45.534655918713554" lon="11.071369792265461"><ele>333.0</ele><time>2026-04-18T14:08:48Z</time></trkpt><trkpt lat="45.534555050870324" lon="11.071328385954187"><ele>333.0</ele><time>2026-04-18T14:08:49Z</time></trkpt><trkpt lat="45.53444912705212" lon="11.071278080814443"><ele>333.0</ele><time>2026-04-18T14:08:50Z</time></trkpt><trkpt lat="45.53435383410551" lon="11.07122470682758"><ele>333.0</ele><time>2026-04-18T14:08:51Z</time></trkpt><trkpt lat="45.534267574460685" lon="11.071188946547771"><ele>337.0</ele><time>2026-04-18T14:08:52Z</time></trkpt><trkpt lat="45.53417896772141" lon="11.071152389304155"><ele>341.0</ele><time>2026-04-18T14:08:53Z</time></trkpt><trkpt lat="45.53408719090108" lon="11.07114405574698"><ele>345.0</ele><time>2026-04-18T14:08:54Z</time></trkpt><trkpt lat="45.53399132020204" lon="11.071206709696858"><ele>349.0</ele><time>2026-04-18T14:08:55Z</time></trkpt><trkpt lat="45.533897161440926" lon="11.071253331287876"><ele>353.0</ele><time>2026-04-18T14:08:56Z</time></trkpt><trkpt lat="45.53379999092371" lon="11.071311872906024"><ele>350.79999999999995</ele><time>2026-04-18T14:08:57Z</time></trkpt><trkpt lat="45.53369965437799" lon="11.071363400514855"><ele>348.6</ele><time>2026-04-18T14:08:58Z</time></trkpt><trkpt lat="45.53359305097907" lon="11.071407652329583"><ele>346.4</ele><time>2026-04-18T14:08:59Z</time></trkpt><trkpt lat="45.53347979581236" lon="11.071441274619202"><ele>344.20000000000005</ele><time>2026-04-18T14:09:00Z</time></trkpt><trkpt lat="45.533372003331635" lon="11.071485368602891"><ele>342.0</ele><time>2026-04-18T14:09:01Z</time></trkpt><trkpt lat="45.533278810523605" lon="11.07153517443116"><ele>342.0</ele><time>2026-04-18T14:09:02Z</time></trkpt><trkpt lat="45.53320221976315" lon="11.071592759853019"><ele>342.0</ele><time>2026-04-18T14:09:03Z</time></trkpt><trkpt lat="45.533126974700345" lon="11.071686971435156"><ele>342.0</ele><time>2026-04-18T14:09:04Z</time></trkpt><trkpt lat="45.53306427943659" lon="11.071793526348904"><ele>342.0</ele><time>2026-04-18T14:09:05Z</time></trkpt><trkpt lat="45.53299836448165" lon="11.071921567352417"><ele>342.0</ele><time>2026-04-18T14:09:06Z</time></trkpt><trkpt lat="45.532933617374944" lon="11.072037579138621"><ele>344.40000000000003</ele><time>2026-04-18T14:09:07Z</time></trkpt><trkpt lat="45.532867643652516" lon="11.072161849245125"><ele>346.8</ele><time>2026-04-18T14:09:08Z</time></trkpt><trkpt lat="45.53279533112218" lon="11.072284296184366"><ele>349.2</ele><time>2026-04-18T14:09:09Z</time></trkpt><trkpt lat="45.53271794920968" lon="11.072372693126118"><ele>351.6</ele><time>2026-04-18T14:09:10Z</time></trkpt><trkpt lat="45.53264419289031" lon="11.072476625612104"><ele>354.0</ele><time>2026-04-18T14:09:11Z</time></trkpt><trkpt lat="45.532564403539645" lon="11.072585112927914"><ele>363.5</ele><time>2026-04-18T14:09:12Z</time></trkpt><trkpt lat="45.53246632382184" lon="11.072690877042717"><ele>373.0</ele><time>2026-04-18T14:09:13Z</time></trkpt><trkpt lat="45.532360478670675" lon="11.07278027366353"><ele>382.5</ele><time>2026-04-18T14:09:14Z</time></trkpt><trkpt lat="45.532254186752205" lon="11.072842421412588"><ele>392.0</ele><time>2026-04-18T14:09:15Z</time></trkpt><trkpt lat="45.53213653742815" lon="11.072878709539232"><ele>387.75</ele><time>2026-04-18T14:09:16Z</time></trkpt><trkpt lat="45.532021093355056" lon="11.072899742670074"><ele>383.5</ele><time>2026-04-18T14:09:17Z</time></trkpt><trkpt lat="45.5318935237652" lon="11.072911677088312"><ele>379.25</ele><time>2026-04-18T14:09:18Z</time></trkpt><trkpt lat="45.53176422095347" lon="11.072928424468337"><ele>375.0</ele><time>2026-04-18T14:09:19Z</time></trkpt><trkpt lat="45.53163903156076" lon="11.07294914161164"><ele>375.0</ele><time>2026-04-18T14:09:20Z</time></trkpt><trkpt lat="45.53151551601182" lon="11.072957214231774"><ele>375.0</ele><time>2026-04-18T14:09:21Z</time></trkpt><trkpt lat="45.53139706781219" lon="11.072967784669098"><ele>375.0</ele><time>2026-04-18T14:09:22Z</time></trkpt><trkpt lat="45.53127795975092" lon="11.072981411692412"><ele>375.0</ele><time>2026-04-18T14:09:23Z</time></trkpt><trkpt lat="45.531160380050295" lon="11.073010123176205"><ele>371.5</ele><time>2026-04-18T14:09:24Z</time></trkpt><trkpt lat="45.53104942111461" lon="11.073067794674374"><ele>368.0</ele><time>2026-04-18T14:09:25Z</time></trkpt><trkpt lat="45.53094379957408" lon="11.07314515931949"><ele>364.5</ele><time>2026-04-18T14:09:26Z</time></trkpt><trkpt lat="45.530833544329106" lon="11.073220086337683"><ele>361.0</ele><time>2026-04-18T14:09:27Z</time></trkpt><trkpt lat="45.530744721127526" lon="11.073312577541738"><ele>368.8</ele><time>2026-04-18T14:09:28Z</time></trkpt><trkpt lat="45.53067338366318" lon="11.073422866237465"><ele>376.6</ele><time>2026-04-18T14:09:29Z</time></trkpt><trkpt lat="45.53062099021126" lon="11.073549232607215"><ele>384.4</ele><time>2026-04-18T14:09:30Z</time></trkpt><trkpt lat="45.53057184072204" lon="11.07367909100989"><ele>392.2</ele><time>2026-04-18T14:09:31Z</time></trkpt><trkpt lat="45.530510756084254" lon="11.073798890876185"><ele>400.0</ele><time>2026-04-18T14:09:32Z</time></trkpt><trkpt lat="45.53045086121704" lon="11.073917994920096"><ele>400.00000000000006</ele><time>2026-04-18T14:09:33Z</time></trkpt><trkpt lat="45.530405708997854" lon="11.074023676745906"><ele>400.0</ele><time>2026-04-18T14:09:34Z</time></trkpt><trkpt lat="45.53037480391611" lon="11.074119191555898"><ele>400.0</ele><time>2026-04-18T14:09:35Z</time></trkpt><trkpt lat="45.5303493756679" lon="11.074202475430933"><ele>400.0</ele><time>2026-04-18T14:09:36Z</time></trkpt><trkpt lat="45.530392902950716" lon="11.074330334053982"><ele>400.00000000000006</ele><time>2026-04-18T14:09:38Z</time></trkpt><trkpt lat="45.53048656746505" lon="11.074239347065426"><ele>400.0</ele><time>2026-04-18T14:09:40Z</time></trkpt><trkpt lat="45.530508556829886" lon="11.074140186642238"><ele>400.0</ele><time>2026-04-18T14:09:41Z</time></trkpt><trkpt lat="45.530524621465574" lon="11.074025439315651"><ele>400.0</ele><time>2026-04-18T14:09:42Z</time></trkpt><trkpt lat="45.53056855102305" lon="11.073915948029429"><ele>400.0</ele><time>2026-04-18T14:09:43Z</time></trkpt><trkpt lat="45.530616203212304" lon="11.073802837215899"><ele>400.0</ele><time>2026-04-18T14:09:44Z</time></trkpt><trkpt lat="45.53068502633969" lon="11.073697889257483"><ele>400.0</ele><time>2026-04-18T14:09:45Z</time></trkpt><trkpt lat="45.53074020449481" lon="11.073596905264113"><ele>400.0</ele><time>2026-04-18T14:09:46Z</time></trkpt><trkpt lat="45.5308072613347" lon="11.073506265098404"><ele>400.0</ele><time>2026-04-18T14:09:47Z</time></trkpt><trkpt lat="45.530882386973744" lon="11.073435992872444"><ele>400.0</ele><time>2026-04-18T14:09:48Z</time></trkpt><trkpt lat="45.53097018909242" lon="11.073374798434953"><ele>400.0</ele><time>2026-04-18T14:09:49Z</time></trkpt><trkpt lat="45.53106420247566" lon="11.073326764502658"><ele>400.0</ele><time>2026-04-18T14:09:50Z</time></trkpt><trkpt lat="45.53116805846348" lon="11.073292315448795"><ele>404.5</ele><time>2026-04-18T14:09:51Z</time></trkpt><trkpt lat="45.53128824646229" lon="11.073292819695963"><ele>409.0</ele><time>2026-04-18T14:09:52Z</time></trkpt><trkpt lat="45.53141183990472" lon="11.073348631714365"><ele>413.5</ele><time>2026-04-18T14:09:53Z</time></trkpt><trkpt lat="45.531539577474774" lon="11.073406539163223"><ele>418.0</ele><time>2026-04-18T14:09:54Z</time></trkpt><trkpt lat="45.53165887296883" lon="11.073435956861143"><ele>418.0</ele><time>2026-04-18T14:09:55Z</time></trkpt><trkpt lat="45.531784645278385" lon="11.073462355491081"><ele>418.0</ele><time>2026-04-18T14:09:56Z</time></trkpt><trkpt lat="45.53191148008868" lon="11.073464106185002"><ele>418.0</ele><time>2026-04-18T14:09:57Z</time></trkpt><trkpt lat="45.532036136790026" lon="11.073471061977397"><ele>418.0</ele><time>2026-04-18T14:09:58Z</time></trkpt><trkpt lat="45.53217278232536" lon="11.07348229368258"><ele>420.5</ele><time>2026-04-18T14:09:59Z</time></trkpt><trkpt lat="45.53229878942498" lon="11.073486723277151"><ele>423.0</ele><time>2026-04-18T14:10:00Z</time></trkpt><trkpt lat="45.53241059842988" lon="11.073480537424208"><ele>425.5</ele><time>2026-04-18T14:10:01Z</time></trkpt><trkpt lat="45.53253766347879" lon="11.073485399520877"><ele>428.0</ele><time>2026-04-18T14:10:02Z</time></trkpt><trkpt lat="45.53264460804243" lon="11.073449039848443"><ele>428.0</ele><time>2026-04-18T14:10:03Z</time></trkpt><trkpt lat="45.53275244872821" lon="11.073402920824917"><ele>427.99999999999994</ele><time>2026-04-18T14:10:04Z</time></trkpt><trkpt lat="45.53284984253208" lon="11.073347305227799"><ele>427.99999999999994</ele><time>2026-04-18T14:10:05Z</time></trkpt><trkpt lat="45.532948685565785" lon="11.073271113777333"><ele>428.0</ele><time>2026-04-18T14:10:06Z</time></trkpt><trkpt lat="45.53304398084491" lon="11.073183138724287"><ele>428.0</ele><time>2026-04-18T14:10:07Z</time></trkpt><trkpt lat="45.53313995034439" lon="11.073085768176973"><ele>426.25</ele><time>2026-04-18T14:10:08Z</time></trkpt><trkpt lat="45.53323711471338" lon="11.072988073935043"><ele>424.5</ele><time>2026-04-18T14:10:09Z</time></trkpt><trkpt lat="45.533334002785715" lon="11.072886268599273"><ele>422.75</ele><time>2026-04-18T14:10:10Z</time></trkpt><trkpt lat="45.533432161902525" lon="11.072779122452316"><ele>421.0</ele><time>2026-04-18T14:10:11Z</time></trkpt><trkpt lat="45.53353435546562" lon="11.072666897956534"><ele>421.0</ele><time>2026-04-18T14:10:12Z</time></trkpt><trkpt lat="45.53363028357661" lon="11.072566034778786"><ele>421.0</ele><time>2026-04-18T14:10:13Z</time></trkpt><trkpt lat="45.533725996667734" lon="11.072479179658174"><ele>421.0</ele><time>2026-04-18T14:10:14Z</time></trkpt><trkpt lat="45.53383297400311" lon="11.072421024840896"><ele>421.0</ele><time>2026-04-18T14:10:15Z</time></trkpt><trkpt lat="45.533929569884386" lon="11.072380612428427"><ele>421.0</ele><time>2026-04-18T14:10:16Z</time></trkpt><trkpt lat="45.53402557224104" lon="11.0723503533229"><ele>425.4</ele><time>2026-04-18T14:10:17Z</time></trkpt><trkpt lat="45.53412760460414" lon="11.07234342511509"><ele>429.8</ele><time>2026-04-18T14:10:18Z</time></trkpt><trkpt lat="45.534223659843086" lon="11.072364078118367"><ele>434.19999999999993</ele><time>2026-04-18T14:10:19Z</time></trkpt><trkpt lat="45.53432229708568" lon="11.072402502725058"><ele>438.59999999999997</ele><time>2026-04-18T14:10:20Z</time></trkpt><trkpt lat="45.53441957879904" lon="11.072467875198889"><ele>443.0</ele><time>2026-04-18T14:10:21Z</time></trkpt><trkpt lat="45.534525869934654" lon="11.072530353200001"><ele>440.0</ele><time>2026-04-18T14:10:22Z</time></trkpt><trkpt lat="45.53463474981454" lon="11.072588498495058"><ele>437.0</ele><time>2026-04-18T14:10:23Z</time></trkpt><trkpt lat="45.53475574936135" lon="11.0726219504106"><ele>434.0</ele><time>2026-04-18T14:10:24Z</time></trkpt><trkpt lat="45.53488256719291" lon="11.072662936526768"><ele>431.0</ele><time>2026-04-18T14:10:25Z</time></trkpt><trkpt lat="45.5350122433188" lon="11.072712836720418"><ele>431.0</ele><time>2026-04-18T14:10:26Z</time></trkpt><trkpt lat="45.53512026429019" lon="11.072773667443256"><ele>431.0</ele><time>2026-04-18T14:10:27Z</time></trkpt><trkpt lat="45.535221558518955" lon="11.072824099350035"><ele>431.0</ele><time>2026-04-18T14:10:28Z</time></trkpt><trkpt lat="45.53531996008234" lon="11.072881230022121"><ele>431.0</ele><time>2026-04-18T14:10:29Z</time></trkpt><trkpt lat="45.53541722815667" lon="11.072941894987958"><ele>431.0</ele><time>2026-04-18T14:10:30Z</time></trkpt><trkpt lat="45.5355041364216" lon="11.073039407111574"><ele>432.0</ele><time>2026-04-18T14:10:31Z</time></trkpt><trkpt lat="45.53556258877495" lon="11.073155324931344"><ele>433.0</ele><time>2026-04-18T14:10:32Z</time></trkpt><trkpt lat="45.53562735419398" lon="11.07327787743437"><ele>434.0</ele><time>2026-04-18T14:10:33Z</time></trkpt><trkpt lat="45.53567062206599" lon="11.073417827719624"><ele>435.0</ele><time>2026-04-18T14:10:34Z</time></trkpt><trkpt lat="45.53576104983142" lon="11.073518297556234"><ele>436.0</ele><time>2026-04-18T14:10:35Z</time></trkpt><trkpt lat="45.535835698708" lon="11.073651208165032"><ele>436.0</ele><time>2026-04-18T14:10:36Z</time></trkpt><trkpt lat="45.535901407003834" lon="11.073783425206592"><ele>436.0</ele><time>2026-04-18T14:10:37Z</time></trkpt><trkpt lat="45.53598630448928" lon="11.07389905176454"><ele>436.0</ele><time>2026-04-18T14:10:38Z</time></trkpt><trkpt lat="45.53607629442925" lon="11.07400986030009"><ele>436.0</ele><time>2026-04-18T14:10:39Z</time></trkpt><trkpt lat="45.53618146446832" lon="11.074103615570632"><ele>440.0</ele><time>2026-04-18T14:10:40Z</time></trkpt><trkpt lat="45.536298044706584" lon="11.074174003398337"><ele>444.0</ele><time>2026-04-18T14:10:41Z</time></trkpt><trkpt lat="45.53643141095268" lon="11.074223816515543"><ele>448.0</ele><time>2026-04-18T14:10:42Z</time></trkpt><trkpt lat="45.53655320918491" lon="11.074268828351252"><ele>452.0</ele><time>2026-04-18T14:10:43Z</time></trkpt><trkpt lat="45.53667124907215" lon="11.074303842290513"><ele>452.0</ele><time>2026-04-18T14:10:44Z</time></trkpt><trkpt lat="45.536797016650866" lon="11.074310047836454"><ele>452.0</ele><time>2026-04-18T14:10:45Z</time></trkpt><trkpt lat="45.5369163261595" lon="11.074293922558626"><ele>452.0</ele><time>2026-04-18T14:10:46Z</time></trkpt><trkpt lat="45.537028922859896" lon="11.074250258474706"><ele>452.0</ele><time>2026-04-18T14:10:47Z</time></trkpt><trkpt lat="45.53712503191781" lon="11.074210571771163"><ele>450.25</ele><time>2026-04-18T14:10:48Z</time></trkpt><trkpt lat="45.537225027838254" lon="11.074194036250095"><ele>448.5</ele><time>2026-04-18T14:10:49Z</time></trkpt><trkpt lat="45.537331905442684" lon="11.07424092913091"><ele>446.75</ele><time>2026-04-18T14:10:50Z</time></trkpt><trkpt lat="45.53744238374637" lon="11.074355483193807"><ele>445.0</ele><time>2026-04-18T14:10:51Z</time></trkpt><trkpt lat="45.53754977786353" lon="11.074446771654573"><ele>445.0</ele><time>2026-04-18T14:10:52Z</time></trkpt><trkpt lat="45.5376697756478" lon="11.074568364068071"><ele>445.0</ele><time>2026-04-18T14:10:53Z</time></trkpt><trkpt lat="45.53777432542122" lon="11.074635446201682"><ele>445.0</ele><time>2026-04-18T14:10:54Z</time></trkpt><trkpt lat="45.53786123738757" lon="11.0745998804654"><ele>445.0</ele><time>2026-04-18T14:10:55Z</time></trkpt><trkpt lat="45.537964284552096" lon="11.074541334992583"><ele>446.8</ele><time>2026-04-18T14:10:56Z</time></trkpt><trkpt lat="45.53805908434883" lon="11.074405485411127"><ele>448.6</ele><time>2026-04-18T14:10:57Z</time></trkpt><trkpt lat="45.53813115746908" lon="11.074282054697402"><ele>450.4</ele><time>2026-04-18T14:10:58Z</time></trkpt><trkpt lat="45.53819431851984" lon="11.074186743744136"><ele>452.2</ele><time>2026-04-18T14:10:59Z</time></trkpt><trkpt lat="45.538257344310104" lon="11.074132307205913"><ele>454.0</ele><time>2026-04-18T14:11:00Z</time></trkpt><trkpt lat="45.53834454498259" lon="11.074106370266612"><ele>454.0</ele><time>2026-04-18T14:11:01Z</time></trkpt><trkpt lat="45.53845567127353" lon="11.0741029794426"><ele>454.0</ele><time>2026-04-18T14:11:02Z</time></trkpt><trkpt lat="45.53854805661242" lon="11.074132077880373"><ele>454.0</ele><time>2026-04-18T14:11:03Z</time></trkpt><trkpt lat="45.53862768725027" lon="11.074152604617455"><ele>454.0</ele><time>2026-04-18T14:11:04Z</time></trkpt><trkpt lat="45.53870845406597" lon="11.074195924835914"><ele>454.0</ele><time>2026-04-18T14:11:05Z</time></trkpt><trkpt lat="45.53877764246094" lon="11.074273586223548"><ele>448.4</ele><time>2026-04-18T14:11:06Z</time></trkpt><trkpt lat="45.53884362336666" lon="11.074383561850713"><ele>442.79999999999995</ele><time>2026-04-18T14:11:07Z</time></trkpt><trkpt lat="45.538919774513246" lon="11.074498679428652"><ele>437.20000000000005</ele><time>2026-04-18T14:11:08Z</time></trkpt><trkpt lat="45.539001663786706" lon="11.074607906442266"><ele>431.6</ele><time>2026-04-18T14:11:09Z</time></trkpt><trkpt lat="45.539087103409315" lon="11.074715507247468"><ele>426.0</ele><time>2026-04-18T14:11:10Z</time></trkpt><trkpt lat="45.539179841517694" lon="11.074816814275781"><ele>426.0</ele><time>2026-04-18T14:11:11Z</time></trkpt><trkpt lat="45.53926715471163" lon="11.074916648602052"><ele>426.0</ele><time>2026-04-18T14:11:12Z</time></trkpt><trkpt lat="45.539356077266845" lon="11.07501009071775"><ele>426.0</ele><time>2026-04-18T14:11:13Z</time></trkpt><trkpt lat="45.539452974993765" lon="11.075107483774003"><ele>426.0</ele><time>2026-04-18T14:11:14Z</time></trkpt><trkpt lat="45.53953789259965" lon="11.075214645373942"><ele>429.75</ele><time>2026-04-18T14:11:15Z</time></trkpt><trkpt lat="45.539620119169115" lon="11.075324030891887"><ele>433.5</ele><time>2026-04-18T14:11:16Z</time></trkpt><trkpt lat="45.53969906188582" lon="11.075447743902629"><ele>437.25</ele><time>2026-04-18T14:11:17Z</time></trkpt><trkpt lat="45.5397743329866" lon="11.075589945877244"><ele>441.0</ele><time>2026-04-18T14:11:18Z</time></trkpt><trkpt lat="45.53983288713529" lon="11.075719533622276"><ele>447.6</ele><time>2026-04-18T14:11:19Z</time></trkpt><trkpt lat="45.539880284303095" lon="11.075835560274626"><ele>454.20000000000005</ele><time>2026-04-18T14:11:20Z</time></trkpt><trkpt lat="45.53995466650698" lon="11.075916136410493"><ele>460.79999999999995</ele><time>2026-04-18T14:11:21Z</time></trkpt><trkpt lat="45.5400471525935" lon="11.075948733727522"><ele>467.4</ele><time>2026-04-18T14:11:22Z</time></trkpt><trkpt lat="45.54016055041579" lon="11.075960061446416"><ele>474.0</ele><time>2026-04-18T14:11:23Z</time></trkpt><trkpt lat="45.54029803770424" lon="11.075950197449302"><ele>472.25</ele><time>2026-04-18T14:11:24Z</time></trkpt><trkpt lat="45.54043001711266" lon="11.075943142312347"><ele>470.5</ele><time>2026-04-18T14:11:25Z</time></trkpt><trkpt lat="45.54055560033523" lon="11.07592464398469"><ele>468.75</ele><time>2026-04-18T14:11:26Z</time></trkpt><trkpt lat="45.540668384768836" lon="11.075914437569757"><ele>467.0</ele><time>2026-04-18T14:11:27Z</time></trkpt><trkpt lat="45.540758552309754" lon="11.075912735518532"><ele>467.0</ele><time>2026-04-18T14:11:28Z</time></trkpt><trkpt lat="45.54082019478518" lon="11.075946613840722"><ele>467.00000000000006</ele><time>2026-04-18T14:11:29Z</time></trkpt><trkpt lat="45.54089092037581" lon="11.076010375744216"><ele>467.00000000000006</ele><time>2026-04-18T14:11:30Z</time></trkpt><trkpt lat="45.54095677744848" lon="11.076113755275324"><ele>467.0</ele><time>2026-04-18T14:11:31Z</time></trkpt><trkpt lat="45.54099976317636" lon="11.0762472077178"><ele>467.0</ele><time>2026-04-18T14:11:32Z</time></trkpt><trkpt lat="45.54104015251892" lon="11.076398967993352"><ele>467.0</ele><time>2026-04-18T14:11:33Z</time></trkpt><trkpt lat="45.54107460133961" lon="11.07655294328019"><ele>467.00000000000006</ele><time>2026-04-18T14:11:34Z</time></trkpt><trkpt lat="45.541059779519415" lon="11.076722102144108"><ele>467.00000000000006</ele><time>2026-04-18T14:11:35Z</time></trkpt><trkpt lat="45.54105000044873" lon="11.076870991688189"><ele>467.0</ele><time>2026-04-18T14:11:36Z</time></trkpt><trkpt lat="45.54103587247508" lon="11.077023649279317"><ele>467.0</ele><time>2026-04-18T14:11:37Z</time></trkpt><trkpt lat="45.54100937083733" lon="11.077169246494162"><ele>469.8</ele><time>2026-04-18T14:11:38Z</time></trkpt><trkpt lat="45.54097234720669" lon="11.077318647394506"><ele>472.6</ele><time>2026-04-18T14:11:39Z</time></trkpt><trkpt lat="45.54093088008238" lon="11.077469288604183"><ele>475.40000000000003</ele><time>2026-04-18T14:11:40Z</time></trkpt><trkpt lat="45.54088444590281" lon="11.077619474805015"><ele>478.20000000000005</ele><time>2026-04-18T14:11:41Z</time></trkpt><trkpt lat="45.540830402648815" lon="11.0777504900684"><ele>481.0</ele><time>2026-04-18T14:11:42Z</time></trkpt><trkpt lat="45.54076333351661" lon="11.077867884725539"><ele>481.20000000000005</ele><time>2026-04-18T14:11:43Z</time></trkpt><trkpt lat="45.5406827365266" lon="11.077978668719314"><ele>481.40000000000003</ele><time>2026-04-18T14:11:44Z</time></trkpt><trkpt lat="45.54059920645257" lon="11.078070158013766"><ele>481.6</ele><time>2026-04-18T14:11:45Z</time></trkpt><trkpt lat="45.540516622437664" lon="11.078153998789615"><ele>481.8</ele><time>2026-04-18T14:11:46Z</time></trkpt><trkpt lat="45.54044650897187" lon="11.078246558391141"><ele>482.0</ele><time>2026-04-18T14:11:47Z</time></trkpt><trkpt lat="45.54038756624804" lon="11.078350651858008"><ele>481.6</ele><time>2026-04-18T14:11:48Z</time></trkpt><trkpt lat="45.54035821265312" lon="11.07847900567119"><ele>481.20000000000005</ele><time>2026-04-18T14:11:49Z</time></trkpt><trkpt lat="45.5403690146772" lon="11.078627621203177"><ele>480.8</ele><time>2026-04-18T14:11:50Z</time></trkpt><trkpt lat="45.54039344249147" lon="11.078771822113717"><ele>480.4</ele><time>2026-04-18T14:11:51Z</time></trkpt><trkpt lat="45.54043705048376" lon="11.078901245669968"><ele>480.0</ele><time>2026-04-18T14:11:52Z</time></trkpt><trkpt lat="45.540493816124126" lon="11.079022308839212"><ele>480.8</ele><time>2026-04-18T14:11:53Z</time></trkpt><trkpt lat="45.540548877965605" lon="11.079149048545622"><ele>481.6</ele><time>2026-04-18T14:11:54Z</time></trkpt><trkpt lat="45.5406041567289" lon="11.07927631846596"><ele>482.4</ele><time>2026-04-18T14:11:55Z</time></trkpt><trkpt lat="45.54068361134073" lon="11.079389010933813"><ele>483.2</ele><time>2026-04-18T14:11:56Z</time></trkpt><trkpt lat="45.54077573084826" lon="11.079492198748888"><ele>484.0</ele><time>2026-04-18T14:11:57Z</time></trkpt><trkpt lat="45.54087808260493" lon="11.079567004990484"><ele>484.00000000000006</ele><time>2026-04-18T14:11:58Z</time></trkpt><trkpt lat="45.540974961225714" lon="11.079636672014388"><ele>484.0</ele><time>2026-04-18T14:11:59Z</time></trkpt><trkpt lat="45.541024229404314" lon="11.079718541129603"><ele>484.0</ele><time>2026-04-18T14:12:00Z</time></trkpt><trkpt lat="45.541046751629345" lon="11.079827558359607"><ele>484.0</ele><time>2026-04-18T14:12:01Z</time></trkpt><trkpt lat="45.541034129343174" lon="11.079956107442248"><ele>484.00000000000006</ele><time>2026-04-18T14:12:02Z</time></trkpt><trkpt lat="45.54106225839919" lon="11.080079196041178"><ele>484.0</ele><time>2026-04-18T14:12:03Z</time></trkpt><trkpt lat="45.54107812366446" lon="11.080202132701496"><ele>486.1666666666667</ele><time>2026-04-18T14:12:04Z</time></trkpt><trkpt lat="45.54107052123794" lon="11.080309746768886"><ele>488.33333333333337</ele><time>2026-04-18T14:12:05Z</time></trkpt><trkpt lat="45.54102064421757" lon="11.080398025931299"><ele>490.5</ele><time>2026-04-18T14:12:06Z</time></trkpt><trkpt lat="45.54095539474007" lon="11.080496849188759"><ele>492.66666666666663</ele><time>2026-04-18T14:12:07Z</time></trkpt><trkpt lat="45.54091391487747" lon="11.080583016416599"><ele>494.8333333333333</ele><time>2026-04-18T14:12:08Z</time></trkpt><trkpt lat="45.54088339038598" lon="11.080673189409469"><ele>497.0</ele><time>2026-04-18T14:12:09Z</time></trkpt><trkpt lat="45.54093532628023" lon="11.08077956606925"><ele>497.42857142857144</ele><time>2026-04-18T14:12:10Z</time></trkpt><trkpt lat="45.540986805501966" lon="11.08084496017869"><ele>497.8571428571429</ele><time>2026-04-18T14:12:11Z</time></trkpt><trkpt lat="45.54105067588441" lon="11.080891152451432"><ele>498.2857142857143</ele><time>2026-04-18T14:12:12Z</time></trkpt><trkpt lat="45.54111733767823" lon="11.080919034684097"><ele>498.7142857142857</ele><time>2026-04-18T14:12:13Z</time></trkpt><trkpt lat="45.541190370389714" lon="11.0809136787465"><ele>499.14285714285717</ele><time>2026-04-18T14:12:14Z</time></trkpt><trkpt lat="45.541263889475985" lon="11.080895383174424"><ele>499.57142857142856</ele><time>2026-04-18T14:12:15Z</time></trkpt><trkpt lat="45.54133727393053" lon="11.080864004709278"><ele>500.0</ele><time>2026-04-18T14:12:16Z</time></trkpt><trkpt lat="45.54140856944233" lon="11.080830089111085"><ele>500.0</ele><time>2026-04-18T14:12:17Z</time></trkpt><trkpt lat="45.54147825414535" lon="11.080793725259294"><ele>500.0</ele><time>2026-04-18T14:12:18Z</time></trkpt><trkpt lat="45.541544215288965" lon="11.080742405133073"><ele>500.0</ele><time>2026-04-18T14:12:19Z</time></trkpt><trkpt lat="45.54160681504629" lon="11.080690553883024"><ele>500.0</ele><time>2026-04-18T14:12:20Z</time></trkpt><trkpt lat="45.54166439125938" lon="11.080639035910698"><ele>500.0</ele><time>2026-04-18T14:12:21Z</time></trkpt><trkpt lat="45.54172654054409" lon="11.080586317066194"><ele>500.0</ele><time>2026-04-18T14:12:22Z</time></trkpt><trkpt lat="45.54177935646744" lon="11.080515986549244"><ele>500.0</ele><time>2026-04-18T14:12:23Z</time></trkpt><trkpt lat="45.541831424323625" lon="11.080426973362545"><ele>500.99999999999994</ele><time>2026-04-18T14:12:24Z</time></trkpt><trkpt lat="45.541889456184826" lon="11.080331106576896"><ele>502.0</ele><time>2026-04-18T14:12:25Z</time></trkpt><trkpt lat="45.541944285115434" lon="11.080232830726443"><ele>503.0</ele><time>2026-04-18T14:12:26Z</time></trkpt><trkpt lat="45.5419900644391" lon="11.080140924502507"><ele>504.0</ele><time>2026-04-18T14:12:27Z</time></trkpt><trkpt lat="45.54203739443758" lon="11.080051536035752"><ele>504.99999999999994</ele><time>2026-04-18T14:12:28Z</time></trkpt><trkpt lat="45.5421255425561" lon="11.079996795680733"><ele>506.0</ele><time>2026-04-18T14:12:30Z</time></trkpt><trkpt lat="45.54222981598819" lon="11.080117121117693"><ele>505.99999999999994</ele><time>2026-04-18T14:12:32Z</time></trkpt><trkpt lat="45.54228827608283" lon="11.080170358804134"><ele>506.0</ele><time>2026-04-18T14:12:33Z</time></trkpt><trkpt lat="45.54229710182922" lon="11.08028330502251"><ele>506.0</ele><time>2026-04-18T14:12:34Z</time></trkpt><trkpt lat="45.54232598701028" lon="11.080380246119065"><ele>506.0</ele><time>2026-04-18T14:12:35Z</time></trkpt><trkpt lat="45.54234877397376" lon="11.080484542600972"><ele>505.99999999999994</ele><time>2026-04-18T14:12:36Z</time></trkpt><trkpt lat="45.54235609297993" lon="11.080591818175273"><ele>506.0</ele><time>2026-04-18T14:12:37Z</time></trkpt><trkpt lat="45.54235427647476" lon="11.080702376716362"><ele>506.28571428571433</ele><time>2026-04-18T14:12:38Z</time></trkpt><trkpt lat="45.5423503498885" lon="11.08082036332222"><ele>506.57142857142856</ele><time>2026-04-18T14:12:39Z</time></trkpt><trkpt lat="45.54234081474757" lon="11.080933638143716"><ele>506.8571428571429</ele><time>2026-04-18T14:12:40Z</time></trkpt><trkpt lat="45.5423313904038" lon="11.081033904575916"><ele>507.14285714285717</ele><time>2026-04-18T14:12:41Z</time></trkpt><trkpt lat="45.542328055202915" lon="11.081132100045899"><ele>507.42857142857144</ele><time>2026-04-18T14:12:42Z</time></trkpt><trkpt lat="45.5423364419383" lon="11.081224161278017"><ele>507.7142857142857</ele><time>2026-04-18T14:12:43Z</time></trkpt><trkpt lat="45.54236684063868" lon="11.081316608080936"><ele>508.0</ele><time>2026-04-18T14:12:44Z</time></trkpt><trkpt lat="45.54241427811837" lon="11.08137601109637"><ele>508.0</ele><time>2026-04-18T14:12:45Z</time></trkpt><trkpt lat="45.542478942004784" lon="11.081420232666321"><ele>507.99999999999994</ele><time>2026-04-18T14:12:46Z</time></trkpt><trkpt lat="45.54255744303318" lon="11.081446633833274"><ele>507.99999999999994</ele><time>2026-04-18T14:12:47Z</time></trkpt><trkpt lat="45.54263972835419" lon="11.08141888829224"><ele>508.0</ele><time>2026-04-18T14:12:48Z</time></trkpt><trkpt lat="45.54272630895608" lon="11.081342248236288"><ele>508.0</ele><time>2026-04-18T14:12:49Z</time></trkpt><trkpt lat="45.542804089199386" lon="11.081223561697653"><ele>508.0</ele><time>2026-04-18T14:12:50Z</time></trkpt><trkpt lat="45.54285521090491" lon="11.081068464098662"><ele>507.99999999999994</ele><time>2026-04-18T14:12:51Z</time></trkpt><trkpt lat="45.54290639159242" lon="11.080921799373446"><ele>507.99999999999994</ele><time>2026-04-18T14:12:52Z</time></trkpt><trkpt lat="45.54294835681214" lon="11.080788509361003"><ele>508.0</ele><time>2026-04-18T14:12:53Z</time></trkpt><trkpt lat="45.542978814061904" lon="11.080645627493109"><ele>508.0</ele><time>2026-04-18T14:12:54Z</time></trkpt><trkpt lat="45.542989919402274" lon="11.080489754143075"><ele>514.25</ele><time>2026-04-18T14:12:55Z</time></trkpt><trkpt lat="45.54297077460453" lon="11.080323171894017"><ele>520.5</ele><time>2026-04-18T14:12:56Z</time></trkpt><trkpt lat="45.542944569452374" lon="11.080153538041566"><ele>526.75</ele><time>2026-04-18T14:12:57Z</time></trkpt><trkpt lat="45.54293809207239" lon="11.079993397399958"><ele>533.0</ele><time>2026-04-18T14:12:58Z</time></trkpt><trkpt lat="45.54293950642855" lon="11.079835932716549"><ele>533.4</ele><time>2026-04-18T14:12:59Z</time></trkpt><trkpt lat="45.54293000271898" lon="11.079682682257568"><ele>533.8</ele><time>2026-04-18T14:13:00Z</time></trkpt><trkpt lat="45.54296807242056" lon="11.079529423451369"><ele>534.2</ele><time>2026-04-18T14:13:01Z</time></trkpt><trkpt lat="45.542987250763645" lon="11.079375800308846"><ele>534.6</ele><time>2026-04-18T14:13:02Z</time></trkpt><trkpt lat="45.54300449487273" lon="11.079237669011283"><ele>535.0</ele><time>2026-04-18T14:13:03Z</time></trkpt><trkpt lat="45.54302563908971" lon="11.079077743990753"><ele>534.2</ele><time>2026-04-18T14:13:04Z</time></trkpt><trkpt lat="45.54303688369313" lon="11.078918136674021"><ele>533.4</ele><time>2026-04-18T14:13:05Z</time></trkpt><trkpt lat="45.54306308899181" lon="11.078775127934897"><ele>532.6</ele><time>2026-04-18T14:13:06Z</time></trkpt><trkpt lat="45.54308144673836" lon="11.078628194110646"><ele>531.8</ele><time>2026-04-18T14:13:07Z</time></trkpt><trkpt lat="45.5431059595077" lon="11.078485303417992"><ele>531.0</ele><time>2026-04-18T14:13:08Z</time></trkpt><trkpt lat="45.543134744902034" lon="11.07834486949913"><ele>529.0</ele><time>2026-04-18T14:13:09Z</time></trkpt><trkpt lat="45.54317483666717" lon="11.078209077115506"><ele>527.0</ele><time>2026-04-18T14:13:10Z</time></trkpt><trkpt lat="45.543227605787166" lon="11.078075682673923"><ele>525.0</ele><time>2026-04-18T14:13:11Z</time></trkpt><trkpt lat="45.54329519090395" lon="11.0779485981611"><ele>523.0</ele><time>2026-04-18T14:13:12Z</time></trkpt><trkpt lat="45.54336593364234" lon="11.077835417614294"><ele>521.0</ele><time>2026-04-18T14:13:13Z</time></trkpt><trkpt lat="45.54344048336679" lon="11.077724308453787"><ele>521.0</ele><time>2026-04-18T14:13:14Z</time></trkpt><trkpt lat="45.543510855799894" lon="11.077611078029586"><ele>521.0</ele><time>2026-04-18T14:13:15Z</time></trkpt><trkpt lat="45.54357384989828" lon="11.077513320036037"><ele>521.0</ele><time>2026-04-18T14:13:16Z</time></trkpt><trkpt lat="45.54363788014531" lon="11.077434043128763"><ele>521.0</ele><time>2026-04-18T14:13:17Z</time></trkpt><trkpt lat="45.543698505220036" lon="11.07736568114506"><ele>521.0</ele><time>2026-04-18T14:13:18Z</time></trkpt><trkpt lat="45.54375771390614" lon="11.077309911039265"><ele>521.0</ele><time>2026-04-18T14:13:19Z</time></trkpt><trkpt lat="45.54382380193209" lon="11.077269694955683"><ele>521.5</ele><time>2026-04-18T14:13:20Z</time></trkpt><trkpt lat="45.5439002125944" lon="11.07725404223466"><ele>522.0</ele><time>2026-04-18T14:13:21Z</time></trkpt><trkpt lat="45.543980068814925" lon="11.077249987299464"><ele>522.5</ele><time>2026-04-18T14:13:22Z</time></trkpt><trkpt lat="45.54406125851619" lon="11.077245004104752"><ele>523.0</ele><time>2026-04-18T14:13:23Z</time></trkpt><trkpt lat="45.544145749666804" lon="11.077237525429712"><ele>523.5</ele><time>2026-04-18T14:13:24Z</time></trkpt><trkpt lat="45.544235624658896" lon="11.077211491323798"><ele>524.0</ele><time>2026-04-18T14:13:25Z</time></trkpt><trkpt lat="45.54432492514023" lon="11.077157354206145"><ele>524.0</ele><time>2026-04-18T14:13:26Z</time></trkpt><trkpt lat="45.54441407048104" lon="11.077099120276257"><ele>524.0</ele><time>2026-04-18T14:13:27Z</time></trkpt><trkpt lat="45.544505312682986" lon="11.077053255020221"><ele>524.0</ele><time>2026-04-18T14:13:28Z</time></trkpt><trkpt lat="45.54459279021281" lon="11.077021274660517"><ele>524.0</ele><time>2026-04-18T14:13:29Z</time></trkpt><trkpt lat="45.54468292012953" lon="11.077014308338427"><ele>524.0</ele><time>2026-04-18T14:13:30Z</time></trkpt><trkpt lat="45.54476641102431" lon="11.07702084272266"><ele>524.1666666666666</ele><time>2026-04-18T14:13:31Z</time></trkpt><trkpt lat="45.54484689982279" lon="11.077033464038855"><ele>524.3333333333333</ele><time>2026-04-18T14:13:32Z</time></trkpt><trkpt lat="45.5449314522888" lon="11.077050750889725"><ele>524.5</ele><time>2026-04-18T14:13:33Z</time></trkpt><trkpt lat="45.5450137312571" lon="11.077078839623068"><ele>524.6666666666666</ele><time>2026-04-18T14:13:34Z</time></trkpt><trkpt lat="45.54510001999189" lon="11.0771073352151"><ele>524.8333333333334</ele><time>2026-04-18T14:13:35Z</time></trkpt><trkpt lat="45.54517736846629" lon="11.077131663332388"><ele>525.0</ele><time>2026-04-18T14:13:36Z</time></trkpt><trkpt lat="45.54525536110324" lon="11.077160761059607"><ele>525.0</ele><time>2026-04-18T14:13:37Z</time></trkpt><trkpt lat="45.54531567628194" lon="11.077194180977676"><ele>525.0</ele><time>2026-04-18T14:13:38Z</time></trkpt><trkpt lat="45.545406782993574" lon="11.077222514899757"><ele>525.0</ele><time>2026-04-18T14:13:40Z</time></trkpt><trkpt lat="45.5454782911748" lon="11.077230679417216"><ele>525.0</ele><time>2026-04-18T14:14:28Z</time></trkpt><trkpt lat="45.54555726403656" lon="11.07725179512518"><ele>525.0</ele><time>2026-04-18T14:14:30Z</time></trkpt><trkpt lat="45.54565902971495" lon="11.077277338189432"><ele>525.0</ele><time>2026-04-18T14:14:32Z</time></trkpt><trkpt lat="45.54572309930339" lon="11.077289581280285"><ele>525.5</ele><time>2026-04-18T14:14:33Z</time></trkpt><trkpt lat="45.54579764202927" lon="11.077315007435208"><ele>526.0</ele><time>2026-04-18T14:14:34Z</time></trkpt><trkpt lat="45.54587473698486" lon="11.077353215990874"><ele>526.5</ele><time>2026-04-18T14:14:35Z</time></trkpt><trkpt lat="45.54595053914449" lon="11.077402361673183"><ele>527.0</ele><time>2026-04-18T14:14:36Z</time></trkpt><trkpt lat="45.546033215646396" lon="11.077451223800853"><ele>527.5</ele><time>2026-04-18T14:14:37Z</time></trkpt><trkpt lat="45.54612228837091" lon="11.077513969660316"><ele>528.0</ele><time>2026-04-18T14:14:38Z</time></trkpt><trkpt lat="45.5462077460259" lon="11.077591725798017"><ele>530.1999999999999</ele><time>2026-04-18T14:14:39Z</time></trkpt><trkpt lat="45.54629019228162" lon="11.077685501507876"><ele>532.4</ele><time>2026-04-18T14:14:40Z</time></trkpt><trkpt lat="45.54639266227158" lon="11.077764273876612"><ele>534.5999999999999</ele><time>2026-04-18T14:14:41Z</time></trkpt><trkpt lat="45.54649855736381" lon="11.077825413126531"><ele>536.8</ele><time>2026-04-18T14:14:42Z</time></trkpt><trkpt lat="45.54659250525522" lon="11.077867903517097"><ele>539.0</ele><time>2026-04-18T14:14:43Z</time></trkpt><trkpt lat="45.546676005120986" lon="11.077913613078973"><ele>539.0</ele><time>2026-04-18T14:14:44Z</time></trkpt><trkpt lat="45.54674698559931" lon="11.077979748653055"><ele>539.0</ele><time>2026-04-18T14:14:45Z</time></trkpt><trkpt lat="45.54678289135909" lon="11.078095882665917"><ele>539.0</ele><time>2026-04-18T14:14:46Z</time></trkpt><trkpt lat="45.54680781230867" lon="11.07822658982925"><ele>539.0</ele><time>2026-04-18T14:14:47Z</time></trkpt><trkpt lat="45.546836926289856" lon="11.078354110143593"><ele>539.0</ele><time>2026-04-18T14:14:48Z</time></trkpt><trkpt lat="45.54686170411473" lon="11.07849066145577"><ele>540.0</ele><time>2026-04-18T14:14:49Z</time></trkpt><trkpt lat="45.546887112963844" lon="11.07863282630724"><ele>541.0</ele><time>2026-04-18T14:14:50Z</time></trkpt><trkpt lat="45.546912975503254" lon="11.078784584981735"><ele>542.0</ele><time>2026-04-18T14:14:51Z</time></trkpt><trkpt lat="45.546936785842746" lon="11.078941588995471"><ele>543.0</ele><time>2026-04-18T14:14:52Z</time></trkpt><trkpt lat="45.546973239970846" lon="11.07910407312357"><ele>544.0</ele><time>2026-04-18T14:14:53Z</time></trkpt><trkpt lat="45.546974874093095" lon="11.079279370387898"><ele>544.5</ele><time>2026-04-18T14:14:54Z</time></trkpt><trkpt lat="45.546986107428964" lon="11.079455195295761"><ele>545.0</ele><time>2026-04-18T14:14:55Z</time></trkpt><trkpt lat="45.54699257109861" lon="11.079641541443445"><ele>545.5</ele><time>2026-04-18T14:14:56Z</time></trkpt><trkpt lat="45.54701583971918" lon="11.079828711819713"><ele>546.0</ele><time>2026-04-18T14:14:57Z</time></trkpt><trkpt lat="45.54702613128431" lon="11.080009106301741"><ele>546.2</ele><time>2026-04-18T14:14:58Z</time></trkpt><trkpt lat="45.54703469609254" lon="11.080175073573125"><ele>546.4000000000001</ele><time>2026-04-18T14:14:59Z</time></trkpt><trkpt lat="45.54704649002081" lon="11.080330848948257"><ele>546.6</ele><time>2026-04-18T14:15:00Z</time></trkpt><trkpt lat="45.54708665741595" lon="11.080466824904146"><ele>546.8000000000001</ele><time>2026-04-18T14:15:01Z</time></trkpt><trkpt lat="45.54711271476499" lon="11.080597108992256"><ele>547.0</ele><time>2026-04-18T14:15:02Z</time></trkpt><trkpt lat="45.5471404144685" lon="11.080718739222005"><ele>548.1666666666667</ele><time>2026-04-18T14:15:03Z</time></trkpt><trkpt lat="45.54715978455293" lon="11.08084223021006"><ele>549.3333333333334</ele><time>2026-04-18T14:15:04Z</time></trkpt><trkpt lat="45.547180035374154" lon="11.080962934077363"><ele>550.5</ele><time>2026-04-18T14:15:05Z</time></trkpt><trkpt lat="45.54720291930432" lon="11.08107214821526"><ele>551.6666666666666</ele><time>2026-04-18T14:15:06Z</time></trkpt><trkpt lat="45.54722011379506" lon="11.081158859716512"><ele>552.8333333333333</ele><time>2026-04-18T14:15:07Z</time></trkpt><trkpt lat="45.5473130775311" lon="11.081273634602518"><ele>554.0</ele><time>2026-04-18T14:15:09Z</time></trkpt><trkpt lat="45.54737610669398" lon="11.081304282363588"><ele>554.0</ele><time>2026-04-18T14:15:10Z</time></trkpt><trkpt lat="45.5474401853636" lon="11.081344829065776"><ele>554.0</ele><time>2026-04-18T14:15:11Z</time></trkpt><trkpt lat="45.547541881586994" lon="11.081416424737105"><ele>554.0</ele><time>2026-04-18T14:15:13Z</time></trkpt><trkpt lat="45.54761542223209" lon="11.081447505300037"><ele>554.0</ele><time>2026-04-18T14:15:15Z</time></trkpt><trkpt lat="45.54767870189516" lon="11.08145196172877"><ele>554.0</ele><time>2026-04-18T14:15:18Z</time></trkpt><trkpt lat="45.54760042852707" lon="11.081453655392771"><ele>554.0</ele><time>2026-04-18T14:15:58Z</time></trkpt><trkpt lat="45.54751790748227" lon="11.081399625284105"><ele>554.0</ele><time>2026-04-18T14:16:00Z</time></trkpt><trkpt lat="45.54742598833406" lon="11.081338107238471"><ele>554.0</ele><time>2026-04-18T14:16:02Z</time></trkpt><trkpt lat="45.547327177226784" lon="11.081273840134408"><ele>554.0</ele><time>2026-04-18T14:16:04Z</time></trkpt><trkpt lat="45.547183413224275" lon="11.081297914222622"><ele>554.0</ele><time>2026-04-18T14:16:06Z</time></trkpt><trkpt lat="45.547124586705884" lon="11.081354921966895"><ele>554.0</ele><time>2026-04-18T14:16:07Z</time></trkpt><trkpt lat="45.5470014233179" lon="11.081383763311996"><ele>554.0</ele><time>2026-04-18T14:16:09Z</time></trkpt><trkpt lat="45.54693433275887" lon="11.081382880361879"><ele>554.0</ele><time>2026-04-18T14:16:10Z</time></trkpt><trkpt lat="45.54685566652104" lon="11.08136984981553"><ele>554.0</ele><time>2026-04-18T14:16:11Z</time></trkpt><trkpt lat="45.54677640309186" lon="11.08135922543047"><ele>554.0</ele><time>2026-04-18T14:16:12Z</time></trkpt><trkpt lat="45.54670198246865" lon="11.081353586480477"><ele>554.0</ele><time>2026-04-18T14:16:13Z</time></trkpt><trkpt lat="45.546618592478865" lon="11.081382712768171"><ele>554.0</ele><time>2026-04-18T14:16:14Z</time></trkpt><trkpt lat="45.54653821768491" lon="11.081419925792849"><ele>554.0</ele><time>2026-04-18T14:16:15Z</time></trkpt><trkpt lat="45.546458459138606" lon="11.081469764011503"><ele>554.0</ele><time>2026-04-18T14:16:16Z</time></trkpt><trkpt lat="45.546371884502484" lon="11.081499437149983"><ele>554.0</ele><time>2026-04-18T14:16:17Z</time></trkpt><trkpt lat="45.54628512988952" lon="11.081516269223094"><ele>554.0</ele><time>2026-04-18T14:16:18Z</time></trkpt><trkpt lat="45.54619851393112" lon="11.081510416775853"><ele>554.0</ele><time>2026-04-18T14:16:19Z</time></trkpt><trkpt lat="45.54611160761764" lon="11.081468633136666"><ele>554.0</ele><time>2026-04-18T14:16:20Z</time></trkpt><trkpt lat="45.54604626186914" lon="11.081409501351182"><ele>555.8</ele><time>2026-04-18T14:16:21Z</time></trkpt><trkpt lat="45.54596100154334" lon="11.081343171336691"><ele>557.5999999999999</ele><time>2026-04-18T14:16:22Z</time></trkpt><trkpt lat="45.54587927770183" lon="11.081278505502345"><ele>559.4</ele><time>2026-04-18T14:16:23Z</time></trkpt><trkpt lat="45.5457886372036" lon="11.081206760609684"><ele>561.1999999999999</ele><time>2026-04-18T14:16:24Z</time></trkpt><trkpt lat="45.545705484904715" lon="11.081138439252214"><ele>563.0</ele><time>2026-04-18T14:16:25Z</time></trkpt><trkpt lat="45.545628562199205" lon="11.081069546031712"><ele>563.0</ele><time>2026-04-18T14:16:26Z</time></trkpt><trkpt lat="45.54555526808154" lon="11.081002214805993"><ele>563.0</ele><time>2026-04-18T14:16:27Z</time></trkpt><trkpt lat="45.54548652403322" lon="11.080939062876945"><ele>563.0</ele><time>2026-04-18T14:16:28Z</time></trkpt><trkpt lat="45.545412326435944" lon="11.080899964562397"><ele>563.0</ele><time>2026-04-18T14:16:29Z</time></trkpt><trkpt lat="45.54531984685683" lon="11.080898991213203"><ele>563.0</ele><time>2026-04-18T14:16:30Z</time></trkpt><trkpt lat="45.54523175331214" lon="11.08096367916795"><ele>563.0</ele><time>2026-04-18T14:16:31Z</time></trkpt><trkpt lat="45.545182687566566" lon="11.081058745035417"><ele>563.4</ele><time>2026-04-18T14:16:32Z</time></trkpt><trkpt lat="45.545152995402994" lon="11.0812095751644"><ele>563.8</ele><time>2026-04-18T14:16:33Z</time></trkpt><trkpt lat="45.54512934174439" lon="11.081338397861433"><ele>564.2</ele><time>2026-04-18T14:16:34Z</time></trkpt><trkpt lat="45.54510529431817" lon="11.081469607245822"><ele>564.6</ele><time>2026-04-18T14:16:35Z</time></trkpt><trkpt lat="45.545082781307954" lon="11.081602420751402"><ele>565.0</ele><time>2026-04-18T14:16:36Z</time></trkpt><trkpt lat="45.545078151082485" lon="11.081743289509971"><ele>565.6</ele><time>2026-04-18T14:16:37Z</time></trkpt><trkpt lat="45.54505144581372" lon="11.081884129398597"><ele>566.2</ele><time>2026-04-18T14:16:38Z</time></trkpt><trkpt lat="45.54507089482981" lon="11.082028666309329"><ele>566.8</ele><time>2026-04-18T14:16:39Z</time></trkpt><trkpt lat="45.54508757907546" lon="11.082172833541398"><ele>567.4</ele><time>2026-04-18T14:16:40Z</time></trkpt><trkpt lat="45.545124129416905" lon="11.08231345138567"><ele>568.0</ele><time>2026-04-18T14:16:41Z</time></trkpt><trkpt lat="45.545179969712684" lon="11.082444416586343"><ele>568.25</ele><time>2026-04-18T14:16:42Z</time></trkpt><trkpt lat="45.54524062545622" lon="11.082572664277475"><ele>568.5</ele><time>2026-04-18T14:16:43Z</time></trkpt><trkpt lat="45.54530359173161" lon="11.082702420356943"><ele>568.75</ele><time>2026-04-18T14:16:44Z</time></trkpt><trkpt lat="45.54536867353598" lon="11.082836972175244"><ele>569.0</ele><time>2026-04-18T14:16:45Z</time></trkpt><trkpt lat="45.54543989571295" lon="11.08297294915342"><ele>571.75</ele><time>2026-04-18T14:16:46Z</time></trkpt><trkpt lat="45.54551258137626" lon="11.083110532608762"><ele>574.5</ele><time>2026-04-18T14:16:47Z</time></trkpt><trkpt lat="45.54557930838574" lon="11.083259347672957"><ele>577.25</ele><time>2026-04-18T14:16:48Z</time></trkpt><trkpt lat="45.545640724900856" lon="11.083420025639995"><ele>580.0</ele><time>2026-04-18T14:16:49Z</time></trkpt><trkpt lat="45.54569797200883" lon="11.083587476734031"><ele>581.0</ele><time>2026-04-18T14:16:50Z</time></trkpt><trkpt lat="45.54573975319887" lon="11.083764729077128"><ele>582.0</ele><time>2026-04-18T14:16:51Z</time></trkpt><trkpt lat="45.54579634305689" lon="11.083920840653526"><ele>583.0</ele><time>2026-04-18T14:16:52Z</time></trkpt><trkpt lat="45.54584260715143" lon="11.084060205043034"><ele>584.0</ele><time>2026-04-18T14:16:53Z</time></trkpt><trkpt lat="45.54589637546814" lon="11.084180404482636"><ele>584.3333333333333</ele><time>2026-04-18T14:16:54Z</time></trkpt><trkpt lat="45.5459418996466" lon="11.084299823634003"><ele>584.6666666666666</ele><time>2026-04-18T14:16:55Z</time></trkpt><trkpt lat="45.545978597882595" lon="11.08441299765482"><ele>585.0</ele><time>2026-04-18T14:16:56Z</time></trkpt><trkpt lat="45.54599677538329" lon="11.084525648184739"><ele>585.3333333333334</ele><time>2026-04-18T14:16:57Z</time></trkpt><trkpt lat="45.545966570966364" lon="11.084627017550288"><ele>585.6666666666667</ele><time>2026-04-18T14:16:58Z</time></trkpt><trkpt lat="45.545922050680986" lon="11.084691628717934"><ele>586.0</ele><time>2026-04-18T14:16:59Z</time></trkpt><trkpt lat="45.54579928389445" lon="11.084675712997873"><ele>586.0</ele><time>2026-04-18T14:17:01Z</time></trkpt><trkpt lat="45.54571594422765" lon="11.084664811419179"><ele>586.0</ele><time>2026-04-18T14:17:02Z</time></trkpt><trkpt lat="45.54563689328651" lon="11.084655898816713"><ele>586.0</ele><time>2026-04-18T14:17:03Z</time></trkpt><trkpt lat="45.54554182884151" lon="11.084652913002675"><ele>586.0</ele><time>2026-04-18T14:17:04Z</time></trkpt><trkpt lat="45.545444711429525" lon="11.084676301414119"><ele>586.0</ele><time>2026-04-18T14:17:05Z</time></trkpt><trkpt lat="45.54535629306737" lon="11.084744001967332"><ele>584.2</ele><time>2026-04-18T14:17:06Z</time></trkpt><trkpt lat="45.545289290161335" lon="11.084853218769444"><ele>582.4000000000001</ele><time>2026-04-18T14:17:07Z</time></trkpt><trkpt lat="45.54527353371372" lon="11.085017569465645"><ele>580.6</ele><time>2026-04-18T14:17:08Z</time></trkpt><trkpt lat="45.54526962115054" lon="11.085160862410657"><ele>578.8000000000001</ele><time>2026-04-18T14:17:09Z</time></trkpt><trkpt lat="45.545308817881825" lon="11.085307359874369"><ele>577.0</ele><time>2026-04-18T14:17:10Z</time></trkpt><trkpt lat="45.54531912078091" lon="11.085458198068729"><ele>577.0</ele><time>2026-04-18T14:17:11Z</time></trkpt><trkpt lat="45.54536111235971" lon="11.085604385250996"><ele>577.0</ele><time>2026-04-18T14:17:12Z</time></trkpt><trkpt lat="45.54542663090391" lon="11.085738086208716"><ele>577.0</ele><time>2026-04-18T14:17:13Z</time></trkpt><trkpt lat="45.54547605123382" lon="11.085885698904297"><ele>577.0</ele><time>2026-04-18T14:17:14Z</time></trkpt><trkpt lat="45.545529353673494" lon="11.086034213795534"><ele>582.0</ele><time>2026-04-18T14:17:15Z</time></trkpt><trkpt lat="45.54558296633699" lon="11.086187811822166"><ele>587.0</ele><time>2026-04-18T14:17:16Z</time></trkpt><trkpt lat="45.54563834323637" lon="11.086342036953269"><ele>592.0</ele><time>2026-04-18T14:17:17Z</time></trkpt><trkpt lat="45.545692001546776" lon="11.086502291124624"><ele>597.0</ele><time>2026-04-18T14:17:18Z</time></trkpt><trkpt lat="45.54575014445628" lon="11.086658304018325"><ele>597.0</ele><time>2026-04-18T14:17:19Z</time></trkpt><trkpt lat="45.54581328764044" lon="11.086804942510641"><ele>597.0</ele><time>2026-04-18T14:17:20Z</time></trkpt><trkpt lat="45.54588322494537" lon="11.086954267237843"><ele>597.0</ele><time>2026-04-18T14:17:21Z</time></trkpt><trkpt lat="45.54594993654321" lon="11.08709533853143"><ele>597.0</ele><time>2026-04-18T14:17:22Z</time></trkpt><trkpt lat="45.54600682986853" lon="11.087238085004522"><ele>597.0</ele><time>2026-04-18T14:17:23Z</time></trkpt><trkpt lat="45.5460487588116" lon="11.087387629622947"><ele>597.0</ele><time>2026-04-18T14:17:24Z</time></trkpt><trkpt lat="45.546039756264555" lon="11.087550076891304"><ele>597.0</ele><time>2026-04-18T14:17:25Z</time></trkpt><trkpt lat="45.54603602908529" lon="11.087714800846443"><ele>597.0</ele><time>2026-04-18T14:17:26Z</time></trkpt><trkpt lat="45.546080896747974" lon="11.087864325335634"><ele>597.0</ele><time>2026-04-18T14:17:27Z</time></trkpt><trkpt lat="45.54612286113895" lon="11.088004016384188"><ele>597.0</ele><time>2026-04-18T14:17:28Z</time></trkpt><trkpt lat="45.546142438299185" lon="11.088142586263448"><ele>597.0</ele><time>2026-04-18T14:17:29Z</time></trkpt><trkpt lat="45.54610456052335" lon="11.088283066843712"><ele>597.0</ele><time>2026-04-18T14:17:30Z</time></trkpt><trkpt lat="45.54607591124136" lon="11.088426960212443"><ele>597.0</ele><time>2026-04-18T14:17:31Z</time></trkpt><trkpt lat="45.5460736242415" lon="11.088558466052435"><ele>597.0</ele><time>2026-04-18T14:17:32Z</time></trkpt><trkpt lat="45.546067074681865" lon="11.0886696859176"><ele>597.0</ele><time>2026-04-18T14:17:33Z</time></trkpt><trkpt lat="45.546055192824184" lon="11.088814459335461"><ele>597.0</ele><time>2026-04-18T14:17:35Z</time></trkpt><trkpt lat="45.54606133049407" lon="11.088908112559938"><ele>597.0</ele><time>2026-04-18T14:17:40Z</time></trkpt><trkpt lat="45.5461029834699" lon="11.088993537995684"><ele>597.0</ele><time>2026-04-18T14:17:42Z</time></trkpt><trkpt lat="45.546193193385655" lon="11.088996540199307"><ele>597.0</ele><time>2026-04-18T14:17:43Z</time></trkpt><trkpt lat="45.546251167713805" lon="11.089035306913418"><ele>599.1666666666666</ele><time>2026-04-18T14:17:44Z</time></trkpt><trkpt lat="45.546314005424165" lon="11.08907080395895"><ele>601.3333333333334</ele><time>2026-04-18T14:17:45Z</time></trkpt><trkpt lat="45.54638698953686" lon="11.089116309284845"><ele>603.5</ele><time>2026-04-18T14:17:46Z</time></trkpt><trkpt lat="45.54646566404494" lon="11.089175485183539"><ele>605.6666666666667</ele><time>2026-04-18T14:17:47Z</time></trkpt><trkpt lat="45.546553941847336" lon="11.089237473570497"><ele>607.8333333333334</ele><time>2026-04-18T14:17:48Z</time></trkpt><trkpt lat="45.5466463185147" lon="11.089313316519476"><ele>610.0</ele><time>2026-04-18T14:17:49Z</time></trkpt><trkpt lat="45.54673222822339" lon="11.089389626687804"><ele>610.0</ele><time>2026-04-18T14:17:50Z</time></trkpt><trkpt lat="45.546825793583146" lon="11.089468769839934"><ele>610.0</ele><time>2026-04-18T14:17:51Z</time></trkpt><trkpt lat="45.546921193269796" lon="11.089551150330589"><ele>610.0</ele><time>2026-04-18T14:17:52Z</time></trkpt><trkpt lat="45.54701842896182" lon="11.089641843563786"><ele>610.0</ele><time>2026-04-18T14:17:53Z</time></trkpt><trkpt lat="45.547118538080156" lon="11.089730559822904"><ele>610.75</ele><time>2026-04-18T14:17:54Z</time></trkpt><trkpt lat="45.54722571581673" lon="11.089816098717156"><ele>611.5</ele><time>2026-04-18T14:17:55Z</time></trkpt><trkpt lat="45.547338030869895" lon="11.089902788952589"><ele>612.25</ele><time>2026-04-18T14:17:56Z</time></trkpt><trkpt lat="45.54746142831075" lon="11.089978296435104"><ele>613.0</ele><time>2026-04-18T14:17:57Z</time></trkpt><trkpt lat="45.54759764552624" lon="11.090032920976949"><ele>613.0</ele><time>2026-04-18T14:17:58Z</time></trkpt><trkpt lat="45.547744952277455" lon="11.090071301267738"><ele>613.0</ele><time>2026-04-18T14:17:59Z</time></trkpt><trkpt lat="45.54789983102743" lon="11.090089141793104"><ele>613.0</ele><time>2026-04-18T14:18:00Z</time></trkpt><trkpt lat="45.54805291789965" lon="11.090095128275598"><ele>614.75</ele><time>2026-04-18T14:18:01Z</time></trkpt><trkpt lat="45.548196215193386" lon="11.090095658834521"><ele>616.5</ele><time>2026-04-18T14:18:02Z</time></trkpt><trkpt lat="45.54832950298593" lon="11.090089144049438"><ele>618.25</ele><time>2026-04-18T14:18:03Z</time></trkpt><trkpt lat="45.54845865553676" lon="11.09006639714633"><ele>620.0</ele><time>2026-04-18T14:18:04Z</time></trkpt><trkpt lat="45.54857988260069" lon="11.090031544279974"><ele>620.0</ele><time>2026-04-18T14:18:05Z</time></trkpt><trkpt lat="45.54869605514351" lon="11.089985248894253"><ele>620.0</ele><time>2026-04-18T14:18:06Z</time></trkpt><trkpt lat="45.54880124230925" lon="11.089906120701187"><ele>620.0</ele><time>2026-04-18T14:18:07Z</time></trkpt><trkpt lat="45.54889610713723" lon="11.089808356555606"><ele>620.0</ele><time>2026-04-18T14:18:08Z</time></trkpt><trkpt lat="45.54898069278928" lon="11.089701696940356"><ele>622.0</ele><time>2026-04-18T14:18:09Z</time></trkpt><trkpt lat="45.549052918535054" lon="11.089576850126605"><ele>624.0</ele><time>2026-04-18T14:18:10Z</time></trkpt><trkpt lat="45.549117480939806" lon="11.089443161613284"><ele>626.0</ele><time>2026-04-18T14:18:11Z</time></trkpt><trkpt lat="45.54916775660963" lon="11.089323995691016"><ele>628.0</ele><time>2026-04-18T14:18:12Z</time></trkpt><trkpt lat="45.54921390023526" lon="11.089226592597985"><ele>630.0</ele><time>2026-04-18T14:18:13Z</time></trkpt><trkpt lat="45.54925126953771" lon="11.089147391260473"><ele>631.0</ele><time>2026-04-18T14:18:14Z</time></trkpt><trkpt lat="45.54931350624826" lon="11.089002530496401"><ele>632.0</ele><time>2026-04-18T14:18:16Z</time></trkpt><trkpt lat="45.54935322514294" lon="11.088857577670076"><ele>633.0</ele><time>2026-04-18T14:18:18Z</time></trkpt><trkpt lat="45.54930181251385" lon="11.088740823982084"><ele>634.0</ele><time>2026-04-18T14:18:19Z</time></trkpt><trkpt lat="45.54931377128722" lon="11.088608338856947"><ele>635.0</ele><time>2026-04-18T14:18:21Z</time></trkpt><trkpt lat="45.54931124649757" lon="11.088487485375776"><ele>635.0</ele><time>2026-04-18T14:19:06Z</time></trkpt><trkpt lat="45.54916447385035" lon="11.08846242088299"><ele>635.0</ele><time>2026-04-18T14:19:10Z</time></trkpt><trkpt lat="45.549109464148614" lon="11.088508186192648"><ele>635.0</ele><time>2026-04-18T14:19:11Z</time></trkpt><trkpt lat="45.54905429232582" lon="11.088564420186197"><ele>635.0</ele><time>2026-04-18T14:19:12Z</time></trkpt><trkpt lat="45.54899183167228" lon="11.088626844691209"><ele>635.0</ele><time>2026-04-18T14:19:13Z</time></trkpt><trkpt lat="45.54892464454936" lon="11.088686732613954"><ele>635.0</ele><time>2026-04-18T14:19:14Z</time></trkpt><trkpt lat="45.548857388583215" lon="11.088738850828129"><ele>635.0</ele><time>2026-04-18T14:19:15Z</time></trkpt><trkpt lat="45.54879609486246" lon="11.088772554841839"><ele>635.0</ele><time>2026-04-18T14:19:16Z</time></trkpt><trkpt lat="45.54869462324258" lon="11.088755735249983"><ele>635.0</ele><time>2026-04-18T14:19:18Z</time></trkpt><trkpt lat="45.54861909241712" lon="11.08864298024566"><ele>635.0</ele><time>2026-04-18T14:19:20Z</time></trkpt><trkpt lat="45.54855428861874" lon="11.088493067195044"><ele>635.0</ele><time>2026-04-18T14:19:22Z</time></trkpt><trkpt lat="45.54852569296143" lon="11.088398858053267"><ele>635.3333333333333</ele><time>2026-04-18T14:19:23Z</time></trkpt><trkpt lat="45.54849598969205" lon="11.088294417179874"><ele>635.6666666666666</ele><time>2026-04-18T14:19:24Z</time></trkpt><trkpt lat="45.54845455683072" lon="11.088197648879255"><ele>636.0</ele><time>2026-04-18T14:19:25Z</time></trkpt><trkpt lat="45.54843380963671" lon="11.088099210297644"><ele>636.3333333333334</ele><time>2026-04-18T14:19:26Z</time></trkpt><trkpt lat="45.54840841504516" lon="11.088002569193634"><ele>636.6666666666667</ele><time>2026-04-18T14:19:27Z</time></trkpt><trkpt lat="45.54838621797816" lon="11.0879075438638"><ele>637.0</ele><time>2026-04-18T14:19:28Z</time></trkpt><trkpt lat="45.54834519772953" lon="11.087742934079877"><ele>637.1666666666667</ele><time>2026-04-18T14:19:30Z</time></trkpt><trkpt lat="45.54832301117285" lon="11.087611898352273"><ele>637.3333333333334</ele><time>2026-04-18T14:19:32Z</time></trkpt><trkpt lat="45.548291547244965" lon="11.087509751087223"><ele>637.5</ele><time>2026-04-18T14:19:35Z</time></trkpt><trkpt lat="45.54826280278758" lon="11.087408443638084"><ele>637.6666666666666</ele><time>2026-04-18T14:19:49Z</time></trkpt><trkpt lat="45.548222079257876" lon="11.087318610774545"><ele>637.8333333333333</ele><time>2026-04-18T14:19:54Z</time></trkpt><trkpt lat="45.54820886016573" lon="11.087222627388988"><ele>638.0</ele><time>2026-04-18T14:19:58Z</time></trkpt><trkpt lat="45.548232681123444" lon="11.087362907240873"><ele>638.0</ele><time>2026-04-18T14:20:21Z</time></trkpt><trkpt lat="45.548269281311825" lon="11.087513486824214"><ele>638.0</ele><time>2026-04-18T14:20:23Z</time></trkpt><trkpt lat="45.54829056856551" lon="11.087600113460278"><ele>638.0</ele><time>2026-04-18T14:20:24Z</time></trkpt><trkpt lat="45.54832062685522" lon="11.087703036148389"><ele>638.0</ele><time>2026-04-18T14:20:25Z</time></trkpt><trkpt lat="45.548349875478884" lon="11.0878154100939"><ele>638.0</ele><time>2026-04-18T14:20:26Z</time></trkpt><trkpt lat="45.54837772130006" lon="11.087940369575282"><ele>638.0</ele><time>2026-04-18T14:20:27Z</time></trkpt><trkpt lat="45.548410557981356" lon="11.088069356731584"><ele>638.0</ele><time>2026-04-18T14:20:28Z</time></trkpt><trkpt lat="45.548446535496716" lon="11.088191409312788"><ele>638.0</ele><time>2026-04-18T14:20:29Z</time></trkpt><trkpt lat="45.548479426595826" lon="11.088305823439338"><ele>638.0</ele><time>2026-04-18T14:20:30Z</time></trkpt><trkpt lat="45.548510731212886" lon="11.088420580573121"><ele>638.0</ele><time>2026-04-18T14:20:31Z</time></trkpt><trkpt lat="45.54854203909653" lon="11.088528948000546"><ele>638.0</ele><time>2026-04-18T14:20:32Z</time></trkpt><trkpt lat="45.548579446117" lon="11.088619313511838"><ele>638.0</ele><time>2026-04-18T14:20:33Z</time></trkpt><trkpt lat="45.548618612674744" lon="11.088699031779775"><ele>637.8571428571429</ele><time>2026-04-18T14:20:34Z</time></trkpt><trkpt lat="45.54866694583033" lon="11.088762397166972"><ele>637.7142857142857</ele><time>2026-04-18T14:20:35Z</time></trkpt><trkpt lat="45.5487213681437" lon="11.088811983792445"><ele>637.5714285714286</ele><time>2026-04-18T14:20:36Z</time></trkpt><trkpt lat="45.548784655451165" lon="11.088845175572361"><ele>637.4285714285714</ele><time>2026-04-18T14:20:37Z</time></trkpt><trkpt lat="45.54885884892594" lon="11.088834182871757"><ele>637.2857142857142</ele><time>2026-04-18T14:20:38Z</time></trkpt><trkpt lat="45.5489238546805" lon="11.088788581141754"><ele>637.1428571428571</ele><time>2026-04-18T14:20:39Z</time></trkpt><trkpt lat="45.54898654790994" lon="11.088705216888682"><ele>637.0</ele><time>2026-04-18T14:20:40Z</time></trkpt><trkpt lat="45.549046404838805" lon="11.088633682909519"><ele>636.8333333333334</ele><time>2026-04-18T14:20:41Z</time></trkpt><trkpt lat="45.54911088920806" lon="11.088570239648355"><ele>636.6666666666667</ele><time>2026-04-18T14:20:42Z</time></trkpt><trkpt lat="45.54917770450613" lon="11.088505750825941"><ele>636.5</ele><time>2026-04-18T14:20:43Z</time></trkpt><trkpt lat="45.549245191379" lon="11.088435647211409"><ele>636.3333333333334</ele><time>2026-04-18T14:20:44Z</time></trkpt><trkpt lat="45.54931625900372" lon="11.088369507581435"><ele>636.1666666666666</ele><time>2026-04-18T14:20:45Z</time></trkpt><trkpt lat="45.54939304538884" lon="11.088307619130296"><ele>636.0</ele><time>2026-04-18T14:20:46Z</time></trkpt><trkpt lat="45.549468590480615" lon="11.088241412733904"><ele>635.6666666666666</ele><time>2026-04-18T14:20:47Z</time></trkpt><trkpt lat="45.54954488482542" lon="11.088171197831178"><ele>635.3333333333334</ele><time>2026-04-18T14:20:48Z</time></trkpt><trkpt lat="45.54961186155688" lon="11.088090445955668"><ele>635.0</ele><time>2026-04-18T14:20:49Z</time></trkpt><trkpt lat="45.549677000841655" lon="11.088009234943963"><ele>634.6666666666667</ele><time>2026-04-18T14:20:50Z</time></trkpt><trkpt lat="45.54973391725904" lon="11.08792224543431"><ele>634.3333333333334</ele><time>2026-04-18T14:20:51Z</time></trkpt><trkpt lat="45.549777304793025" lon="11.087815220600278"><ele>634.0</ele><time>2026-04-18T14:20:52Z</time></trkpt><trkpt lat="45.54984557046161" lon="11.087748006285343"><ele>634.0</ele><time>2026-04-18T14:20:53Z</time></trkpt><trkpt lat="45.54989564394189" lon="11.087665135749383"><ele>634.0</ele><time>2026-04-18T14:20:54Z</time></trkpt><trkpt lat="45.54998204953527" lon="11.087558066665476"><ele>634.0</ele><time>2026-04-18T14:20:56Z</time></trkpt><trkpt lat="45.550021511206914" lon="11.087440673063005"><ele>634.0</ele><time>2026-04-18T14:20:58Z</time></trkpt><trkpt lat="45.55009018023011" lon="11.087354515442511"><ele>634.0</ele><time>2026-04-18T14:21:00Z</time></trkpt><trkpt lat="45.55016478518201" lon="11.087330905924683"><ele>634.5</ele><time>2026-04-18T14:21:02Z</time></trkpt><trkpt lat="45.55024813231999" lon="11.087263408363725"><ele>635.0</ele><time>2026-04-18T14:21:04Z</time></trkpt><trkpt lat="45.55033418001838" lon="11.087239031819152"><ele>635.5</ele><time>2026-04-18T14:21:06Z</time></trkpt><trkpt lat="45.55043248952872" lon="11.087289053811988"><ele>636.0</ele><time>2026-04-18T14:21:08Z</time></trkpt><trkpt lat="45.55049496150166" lon="11.087213809871415"><ele>636.5</ele><time>2026-04-18T14:21:09Z</time></trkpt><trkpt lat="45.55055770456211" lon="11.087191462767423"><ele>637.0</ele><time>2026-04-18T14:21:10Z</time></trkpt><trkpt lat="45.55061733686277" lon="11.087141520845408"><ele>637.3333333333334</ele><time>2026-04-18T14:21:11Z</time></trkpt><trkpt lat="45.55068377001156" lon="11.087093091286649"><ele>637.6666666666667</ele><time>2026-04-18T14:21:12Z</time></trkpt><trkpt lat="45.5507585593421" lon="11.087042014502062"><ele>638.0</ele><time>2026-04-18T14:21:13Z</time></trkpt><trkpt lat="45.55083769626171" lon="11.087000040130967"><ele>638.3333333333334</ele><time>2026-04-18T14:21:14Z</time></trkpt><trkpt lat="45.550920175307674" lon="11.086952576870885"><ele>638.6666666666666</ele><time>2026-04-18T14:21:15Z</time></trkpt><trkpt lat="45.551004869680575" lon="11.08690821602255"><ele>639.0</ele><time>2026-04-18T14:21:16Z</time></trkpt><trkpt lat="45.551083721616564" lon="11.086867191273186"><ele>639.0</ele><time>2026-04-18T14:21:17Z</time></trkpt><trkpt lat="45.551159766033294" lon="11.08682464702151"><ele>639.0</ele><time>2026-04-18T14:21:18Z</time></trkpt><trkpt lat="45.55122016663548" lon="11.086784233611647"><ele>639.0</ele><time>2026-04-18T14:21:19Z</time></trkpt><trkpt lat="45.55128145959511" lon="11.086747272201743"><ele>639.0</ele><time>2026-04-18T14:21:20Z</time></trkpt><trkpt lat="45.55139335402531" lon="11.086735427112343"><ele>639.0</ele><time>2026-04-18T14:21:22Z</time></trkpt><trkpt lat="45.551447729523176" lon="11.08686780396613"><ele>639.0</ele><time>2026-04-18T14:21:24Z</time></trkpt><trkpt lat="45.55144565779417" lon="11.086997677209332"><ele>638.8333333333334</ele><time>2026-04-18T14:21:26Z</time></trkpt><trkpt lat="45.551490140075515" lon="11.087117635313826"><ele>638.6666666666666</ele><time>2026-04-18T14:21:29Z</time></trkpt><trkpt lat="45.55151635784327" lon="11.087231926301774"><ele>638.5</ele><time>2026-04-18T14:21:32Z</time></trkpt><trkpt lat="45.55146051908376" lon="11.087154492269056"><ele>638.3333333333333</ele><time>2026-04-18T14:21:54Z</time></trkpt><trkpt lat="45.551446981834424" lon="11.087054594460621"><ele>638.1666666666666</ele><time>2026-04-18T14:22:18Z</time></trkpt><trkpt lat="45.55142877640891" lon="11.086956797245067"><ele>638.0</ele><time>2026-04-18T14:22:25Z</time></trkpt><trkpt lat="45.551362687893615" lon="11.08693047915547"><ele>638.0</ele><time>2026-04-18T14:22:31Z</time></trkpt><trkpt lat="45.55161523651477" lon="11.086854933570255"><ele>638.0</ele><time>2026-04-18T14:23:24Z</time></trkpt><trkpt lat="45.55150510979028" lon="11.086885150355961"><ele>638.0</ele><time>2026-04-18T14:23:35Z</time></trkpt><trkpt lat="45.55143814106767" lon="11.08686262481126"><ele>638.0</ele><time>2026-04-18T14:23:52Z</time></trkpt></trkseg></trk></gpx>